<?xml version="1.0" encoding="UTF-8" standalone="no" ?>
<gpx xmlns="http://www.topografix.com/GPX/1/1" xmlns:xsi="http://www.w3.org/2001/XMLSchema-instance" xsi:schemaLocation="http://www.topografix.com/GPX/1/1 http://www.topografix.com/GPX/1/1/gpx.xsd" version="1.1" creator="VisuGPX - https://www.visugpx.com">
  <metadata>
    <name>91 M01/21Boucle forêt de la grange IBP 33</name>
    <desc><![CDATA[[img]https://1.bp.blogspot.com/-sLyghmwJxsw/XX5Yo_hbmeI/AAAAAAABnyI/QZg-RxlCf6s3dFnT9w-YORgDcuU3Wb-UACNcBGAsYHQ/s1600/logo-dtour3-ConvertImage.ico[/img]   [b]Rando Club Yerrois[/b]


[img]https://1.bp.blogspot.com/-sLyghmwJxsw/XX5Yo_hbmeI/AAAAAAABnyI/QZg-RxlCf6s3dFnT9w-YORgDcuU3Wb-UACNcBGAsYHQ/s1600/logo-dtour3-ConvertImage.icoo[/img]   [b]Rando Club Yerrois[/b]

[b]Date[/b] :  Mercredi 3 mars 2021
[b]Animateur[/b] : Jean Marc M
[b]Groupe[/b] : 12km demi journée
[b]Effectif[/b] : 16

[b]Remarque particulière[/b] : Parcours sans difficulté et avec une météo estivale très agréable.

[b]Avertissement[/b] Toutes les randonnées répertoriées dans la randothèque du [b]R[/b]ando [b]C[/b]lub [b]Y[/b]errois ont été tracées par l'un de nos animateurs, puis reconnues et enfin effectuées avec un groupe. Pour votre sécurité, regardez toujours la date à laquelle la sortie a été effectuée - Nous tachons de mentionner des conditions météos particulières ou les difficultés éventuelles. N'oubliez jamais les consignes supplémentaires de sécurité.]]></desc>
  </metadata>
  <trk>
    <name><![CDATA[SityTrail - Rando forêt de la Grange 12km]]></name>
    <trkseg>
      <trkpt lat="48.71713" lon="2.47784">
        <ele>61</ele>
        <time>2021-03-03T08:22:06.536Z</time>
      </trkpt>
      <trkpt lat="48.71709" lon="2.47783">
        <ele>61</ele>
        <time>2021-03-03T08:22:07.516Z</time>
      </trkpt>
      <trkpt lat="48.71709" lon="2.47781">
        <ele>61</ele>
        <time>2021-03-03T08:22:12.521Z</time>
      </trkpt>
      <trkpt lat="48.71708" lon="2.47775">
        <ele>56</ele>
        <time>2021-03-03T08:22:17.530Z</time>
      </trkpt>
      <trkpt lat="48.71707" lon="2.47769">
        <ele>56</ele>
        <time>2021-03-03T08:22:21.519Z</time>
      </trkpt>
      <trkpt lat="48.71705" lon="2.47762">
        <ele>59</ele>
        <time>2021-03-03T08:22:26.535Z</time>
      </trkpt>
      <trkpt lat="48.71703" lon="2.47755">
        <ele>59</ele>
        <time>2021-03-03T08:22:31.535Z</time>
      </trkpt>
      <trkpt lat="48.71703" lon="2.47751">
        <ele>59</ele>
        <time>2021-03-03T08:22:36.504Z</time>
      </trkpt>
      <trkpt lat="48.71702" lon="2.47747">
        <ele>59</ele>
        <time>2021-03-03T08:22:40.527Z</time>
      </trkpt>
      <trkpt lat="48.71702" lon="2.47742">
        <ele>59</ele>
        <time>2021-03-03T08:22:44.549Z</time>
      </trkpt>
      <trkpt lat="48.71701" lon="2.47736">
        <ele>60</ele>
        <time>2021-03-03T08:22:49.537Z</time>
      </trkpt>
      <trkpt lat="48.717" lon="2.47727">
        <ele>60</ele>
        <time>2021-03-03T08:22:54.531Z</time>
      </trkpt>
      <trkpt lat="48.717" lon="2.47719">
        <ele>60</ele>
        <time>2021-03-03T08:22:59.528Z</time>
      </trkpt>
      <trkpt lat="48.71697" lon="2.47711">
        <ele>60</ele>
        <time>2021-03-03T08:23:04.506Z</time>
      </trkpt>
      <trkpt lat="48.71697" lon="2.47703">
        <ele>60</ele>
        <time>2021-03-03T08:23:08.517Z</time>
      </trkpt>
      <trkpt lat="48.71693" lon="2.47695">
        <ele>60</ele>
        <time>2021-03-03T08:23:13.552Z</time>
      </trkpt>
      <trkpt lat="48.71693" lon="2.4769">
        <ele>60</ele>
        <time>2021-03-03T08:23:17.541Z</time>
      </trkpt>
      <trkpt lat="48.7169" lon="2.47683">
        <ele>60</ele>
        <time>2021-03-03T08:23:22.537Z</time>
      </trkpt>
      <trkpt lat="48.71688" lon="2.47676">
        <ele>60</ele>
        <time>2021-03-03T08:23:27.532Z</time>
      </trkpt>
      <trkpt lat="48.71686" lon="2.4767">
        <ele>60</ele>
        <time>2021-03-03T08:23:32.529Z</time>
      </trkpt>
      <trkpt lat="48.71684" lon="2.47664">
        <ele>60</ele>
        <time>2021-03-03T08:23:36.527Z</time>
      </trkpt>
      <trkpt lat="48.71682" lon="2.47657">
        <ele>60</ele>
        <time>2021-03-03T08:23:41.528Z</time>
      </trkpt>
      <trkpt lat="48.71681" lon="2.47651">
        <ele>62</ele>
        <time>2021-03-03T08:23:45.531Z</time>
      </trkpt>
      <trkpt lat="48.7168" lon="2.47643">
        <ele>57</ele>
        <time>2021-03-03T08:23:50.535Z</time>
      </trkpt>
      <trkpt lat="48.71679" lon="2.47635">
        <ele>57</ele>
        <time>2021-03-03T08:23:55.542Z</time>
      </trkpt>
      <trkpt lat="48.71677" lon="2.47627">
        <ele>57</ele>
        <time>2021-03-03T08:24:00.537Z</time>
      </trkpt>
      <trkpt lat="48.71677" lon="2.47621">
        <ele>59</ele>
        <time>2021-03-03T08:24:04.539Z</time>
      </trkpt>
      <trkpt lat="48.71676" lon="2.4761">
        <ele>59</ele>
        <time>2021-03-03T08:24:09.522Z</time>
      </trkpt>
      <trkpt lat="48.71675" lon="2.476">
        <ele>59</ele>
        <time>2021-03-03T08:24:13.546Z</time>
      </trkpt>
      <trkpt lat="48.71677" lon="2.47593">
        <ele>60</ele>
        <time>2021-03-03T08:24:18.539Z</time>
      </trkpt>
      <trkpt lat="48.71679" lon="2.47591">
        <ele>60</ele>
        <time>2021-03-03T08:24:22.533Z</time>
      </trkpt>
      <trkpt lat="48.71681" lon="2.47589">
        <ele>64</ele>
        <time>2021-03-03T08:24:27.538Z</time>
      </trkpt>
      <trkpt lat="48.71684" lon="2.47584">
        <ele>64</ele>
        <time>2021-03-03T08:24:32.548Z</time>
      </trkpt>
      <trkpt lat="48.71684" lon="2.47582">
        <ele>64</ele>
        <time>2021-03-03T08:24:36.538Z</time>
      </trkpt>
      <trkpt lat="48.71685" lon="2.4758">
        <ele>64</ele>
        <time>2021-03-03T08:24:41.534Z</time>
      </trkpt>
      <trkpt lat="48.71687" lon="2.47577">
        <ele>64</ele>
        <time>2021-03-03T08:24:46.535Z</time>
      </trkpt>
      <trkpt lat="48.7169" lon="2.47572">
        <ele>64</ele>
        <time>2021-03-03T08:24:51.543Z</time>
      </trkpt>
      <trkpt lat="48.71694" lon="2.47568">
        <ele>66</ele>
        <time>2021-03-03T08:24:56.530Z</time>
      </trkpt>
      <trkpt lat="48.71697" lon="2.47567">
        <ele>66</ele>
        <time>2021-03-03T08:25:00.543Z</time>
      </trkpt>
      <trkpt lat="48.71701" lon="2.47572">
        <ele>64</ele>
        <time>2021-03-03T08:25:05.531Z</time>
      </trkpt>
      <trkpt lat="48.71704" lon="2.47578">
        <ele>64</ele>
        <time>2021-03-03T08:25:10.529Z</time>
      </trkpt>
      <trkpt lat="48.71706" lon="2.47585">
        <ele>64</ele>
        <time>2021-03-03T08:25:15.538Z</time>
      </trkpt>
      <trkpt lat="48.71711" lon="2.4759">
        <ele>70</ele>
        <time>2021-03-03T08:25:20.537Z</time>
      </trkpt>
      <trkpt lat="48.71712" lon="2.47593">
        <ele>70</ele>
        <time>2021-03-03T08:25:24.537Z</time>
      </trkpt>
      <trkpt lat="48.71713" lon="2.47599">
        <ele>68</ele>
        <time>2021-03-03T08:25:29.530Z</time>
      </trkpt>
      <trkpt lat="48.71716" lon="2.47607">
        <ele>68</ele>
        <time>2021-03-03T08:25:34.526Z</time>
      </trkpt>
      <trkpt lat="48.71719" lon="2.47613">
        <ele>68</ele>
        <time>2021-03-03T08:25:38.527Z</time>
      </trkpt>
      <trkpt lat="48.71724" lon="2.47619">
        <ele>68</ele>
        <time>2021-03-03T08:25:43.520Z</time>
      </trkpt>
      <trkpt lat="48.71726" lon="2.47626">
        <ele>66</ele>
        <time>2021-03-03T08:25:47.535Z</time>
      </trkpt>
      <trkpt lat="48.7173" lon="2.47634">
        <ele>66</ele>
        <time>2021-03-03T08:25:52.534Z</time>
      </trkpt>
      <trkpt lat="48.71734" lon="2.47642">
        <ele>66</ele>
        <time>2021-03-03T08:25:57.525Z</time>
      </trkpt>
      <trkpt lat="48.71737" lon="2.47647">
        <ele>73</ele>
        <time>2021-03-03T08:26:01.521Z</time>
      </trkpt>
      <trkpt lat="48.71742" lon="2.47649">
        <ele>73</ele>
        <time>2021-03-03T08:26:05.536Z</time>
      </trkpt>
      <trkpt lat="48.71745" lon="2.47654">
        <ele>73</ele>
        <time>2021-03-03T08:26:10.533Z</time>
      </trkpt>
      <trkpt lat="48.71748" lon="2.47662">
        <ele>73</ele>
        <time>2021-03-03T08:26:15.534Z</time>
      </trkpt>
      <trkpt lat="48.7175" lon="2.47672">
        <ele>73</ele>
        <time>2021-03-03T08:26:20.536Z</time>
      </trkpt>
      <trkpt lat="48.71751" lon="2.4768">
        <ele>73</ele>
        <time>2021-03-03T08:26:25.532Z</time>
      </trkpt>
      <trkpt lat="48.71753" lon="2.47685">
        <ele>72</ele>
        <time>2021-03-03T08:26:30.532Z</time>
      </trkpt>
      <trkpt lat="48.71757" lon="2.47692">
        <ele>72</ele>
        <time>2021-03-03T08:26:35.534Z</time>
      </trkpt>
      <trkpt lat="48.7176" lon="2.47698">
        <ele>72</ele>
        <time>2021-03-03T08:26:40.534Z</time>
      </trkpt>
      <trkpt lat="48.71762" lon="2.47704">
        <ele>72</ele>
        <time>2021-03-03T08:26:45.532Z</time>
      </trkpt>
      <trkpt lat="48.71764" lon="2.47709">
        <ele>77</ele>
        <time>2021-03-03T08:26:49.538Z</time>
      </trkpt>
      <trkpt lat="48.71761" lon="2.47725">
        <ele>70</ele>
        <time>2021-03-03T08:26:54.532Z</time>
      </trkpt>
      <trkpt lat="48.71762" lon="2.47734">
        <ele>70</ele>
        <time>2021-03-03T08:26:59.522Z</time>
      </trkpt>
      <trkpt lat="48.7176" lon="2.47745">
        <ele>67</ele>
        <time>2021-03-03T08:27:04.525Z</time>
      </trkpt>
      <trkpt lat="48.71762" lon="2.47753">
        <ele>67</ele>
        <time>2021-03-03T08:27:09.517Z</time>
      </trkpt>
      <trkpt lat="48.71764" lon="2.47761">
        <ele>67</ele>
        <time>2021-03-03T08:27:13.544Z</time>
      </trkpt>
      <trkpt lat="48.71768" lon="2.47768">
        <ele>72</ele>
        <time>2021-03-03T08:27:18.528Z</time>
      </trkpt>
      <trkpt lat="48.7177" lon="2.47776">
        <ele>72</ele>
        <time>2021-03-03T08:27:23.532Z</time>
      </trkpt>
      <trkpt lat="48.71772" lon="2.47783">
        <ele>72</ele>
        <time>2021-03-03T08:27:28.530Z</time>
      </trkpt>
      <trkpt lat="48.71774" lon="2.47791">
        <ele>72</ele>
        <time>2021-03-03T08:27:33.531Z</time>
      </trkpt>
      <trkpt lat="48.71777" lon="2.47798">
        <ele>71</ele>
        <time>2021-03-03T08:27:38.532Z</time>
      </trkpt>
      <trkpt lat="48.71779" lon="2.47804">
        <ele>71</ele>
        <time>2021-03-03T08:27:43.532Z</time>
      </trkpt>
      <trkpt lat="48.7178" lon="2.47812">
        <ele>71</ele>
        <time>2021-03-03T08:27:48.528Z</time>
      </trkpt>
      <trkpt lat="48.71783" lon="2.47819">
        <ele>71</ele>
        <time>2021-03-03T08:27:53.532Z</time>
      </trkpt>
      <trkpt lat="48.71784" lon="2.47828">
        <ele>71</ele>
        <time>2021-03-03T08:27:57.534Z</time>
      </trkpt>
      <trkpt lat="48.71786" lon="2.47833">
        <ele>71</ele>
        <time>2021-03-03T08:28:02.528Z</time>
      </trkpt>
      <trkpt lat="48.71786" lon="2.47845">
        <ele>71</ele>
        <time>2021-03-03T08:28:07.536Z</time>
      </trkpt>
      <trkpt lat="48.71787" lon="2.47851">
        <ele>70</ele>
        <time>2021-03-03T08:28:12.524Z</time>
      </trkpt>
      <trkpt lat="48.71791" lon="2.47858">
        <ele>70</ele>
        <time>2021-03-03T08:28:17.523Z</time>
      </trkpt>
      <trkpt lat="48.71794" lon="2.47858">
        <ele>78</ele>
        <time>2021-03-03T08:28:22.530Z</time>
      </trkpt>
      <trkpt lat="48.71796" lon="2.47859">
        <ele>78</ele>
        <time>2021-03-03T08:28:27.526Z</time>
      </trkpt>
      <trkpt lat="48.71801" lon="2.4786">
        <ele>78</ele>
        <time>2021-03-03T08:28:51.538Z</time>
      </trkpt>
      <trkpt lat="48.71803" lon="2.4786">
        <ele>78</ele>
        <time>2021-03-03T08:28:55.531Z</time>
      </trkpt>
      <trkpt lat="48.71806" lon="2.47859">
        <ele>78</ele>
        <time>2021-03-03T08:29:00.511Z</time>
      </trkpt>
      <trkpt lat="48.71808" lon="2.47862">
        <ele>78</ele>
        <time>2021-03-03T08:29:05.540Z</time>
      </trkpt>
      <trkpt lat="48.71811" lon="2.47861">
        <ele>78</ele>
        <time>2021-03-03T08:29:10.509Z</time>
      </trkpt>
      <trkpt lat="48.71812" lon="2.47862">
        <ele>78</ele>
        <time>2021-03-03T08:29:14.536Z</time>
      </trkpt>
      <trkpt lat="48.71816" lon="2.47863">
        <ele>78</ele>
        <time>2021-03-03T08:29:19.532Z</time>
      </trkpt>
      <trkpt lat="48.71818" lon="2.4786">
        <ele>78</ele>
        <time>2021-03-03T08:29:24.538Z</time>
      </trkpt>
      <trkpt lat="48.7182" lon="2.4786">
        <ele>85</ele>
        <time>2021-03-03T08:29:28.533Z</time>
      </trkpt>
      <trkpt lat="48.71822" lon="2.47858">
        <ele>85</ele>
        <time>2021-03-03T08:29:33.537Z</time>
      </trkpt>
      <trkpt lat="48.71823" lon="2.47856">
        <ele>85</ele>
        <time>2021-03-03T08:29:38.526Z</time>
      </trkpt>
      <trkpt lat="48.71826" lon="2.47856">
        <ele>85</ele>
        <time>2021-03-03T08:29:43.537Z</time>
      </trkpt>
      <trkpt lat="48.71829" lon="2.47859">
        <ele>85</ele>
        <time>2021-03-03T08:29:48.531Z</time>
      </trkpt>
      <trkpt lat="48.71832" lon="2.47857">
        <ele>85</ele>
        <time>2021-03-03T08:29:53.523Z</time>
      </trkpt>
      <trkpt lat="48.71833" lon="2.47857">
        <ele>85</ele>
        <time>2021-03-03T08:29:58.530Z</time>
      </trkpt>
      <trkpt lat="48.71836" lon="2.47857">
        <ele>85</ele>
        <time>2021-03-03T08:30:03.517Z</time>
      </trkpt>
      <trkpt lat="48.7184" lon="2.47855">
        <ele>85</ele>
        <time>2021-03-03T08:30:08.527Z</time>
      </trkpt>
      <trkpt lat="48.71843" lon="2.47856">
        <ele>85</ele>
        <time>2021-03-03T08:30:17.525Z</time>
      </trkpt>
      <trkpt lat="48.71847" lon="2.47856">
        <ele>85</ele>
        <time>2021-03-03T08:30:21.545Z</time>
      </trkpt>
      <trkpt lat="48.71852" lon="2.47854">
        <ele>88</ele>
        <time>2021-03-03T08:30:26.528Z</time>
      </trkpt>
      <trkpt lat="48.71857" lon="2.47857">
        <ele>88</ele>
        <time>2021-03-03T08:30:31.530Z</time>
      </trkpt>
      <trkpt lat="48.71861" lon="2.47859">
        <ele>88</ele>
        <time>2021-03-03T08:30:36.540Z</time>
      </trkpt>
      <trkpt lat="48.71864" lon="2.47864">
        <ele>88</ele>
        <time>2021-03-03T08:30:41.516Z</time>
      </trkpt>
      <trkpt lat="48.71869" lon="2.47864">
        <ele>88</ele>
        <time>2021-03-03T08:30:45.533Z</time>
      </trkpt>
      <trkpt lat="48.7187" lon="2.47865">
        <ele>88</ele>
        <time>2021-03-03T08:30:50.533Z</time>
      </trkpt>
      <trkpt lat="48.71874" lon="2.47869">
        <ele>88</ele>
        <time>2021-03-03T08:31:00.534Z</time>
      </trkpt>
      <trkpt lat="48.71876" lon="2.47871">
        <ele>91</ele>
        <time>2021-03-03T08:31:05.535Z</time>
      </trkpt>
      <trkpt lat="48.71879" lon="2.47871">
        <ele>91</ele>
        <time>2021-03-03T08:31:10.537Z</time>
      </trkpt>
      <trkpt lat="48.71882" lon="2.47868">
        <ele>91</ele>
        <time>2021-03-03T08:31:15.536Z</time>
      </trkpt>
      <trkpt lat="48.71884" lon="2.47868">
        <ele>91</ele>
        <time>2021-03-03T08:31:20.532Z</time>
      </trkpt>
      <trkpt lat="48.71891" lon="2.47863">
        <ele>91</ele>
        <time>2021-03-03T08:31:25.532Z</time>
      </trkpt>
      <trkpt lat="48.71894" lon="2.4786">
        <ele>91</ele>
        <time>2021-03-03T08:31:30.535Z</time>
      </trkpt>
      <trkpt lat="48.71896" lon="2.47857">
        <ele>91</ele>
        <time>2021-03-03T08:31:35.536Z</time>
      </trkpt>
      <trkpt lat="48.71898" lon="2.47853">
        <ele>91</ele>
        <time>2021-03-03T08:31:39.526Z</time>
      </trkpt>
      <trkpt lat="48.71899" lon="2.47848">
        <ele>91</ele>
        <time>2021-03-03T08:31:43.538Z</time>
      </trkpt>
      <trkpt lat="48.71904" lon="2.4784">
        <ele>93</ele>
        <time>2021-03-03T08:31:48.516Z</time>
      </trkpt>
      <trkpt lat="48.71908" lon="2.47832">
        <ele>93</ele>
        <time>2021-03-03T08:31:52.521Z</time>
      </trkpt>
      <trkpt lat="48.71909" lon="2.47826">
        <ele>93</ele>
        <time>2021-03-03T08:31:57.531Z</time>
      </trkpt>
      <trkpt lat="48.7191" lon="2.47819">
        <ele>92</ele>
        <time>2021-03-03T08:32:02.535Z</time>
      </trkpt>
      <trkpt lat="48.71912" lon="2.47813">
        <ele>92</ele>
        <time>2021-03-03T08:32:06.541Z</time>
      </trkpt>
      <trkpt lat="48.71913" lon="2.47806">
        <ele>92</ele>
        <time>2021-03-03T08:32:11.533Z</time>
      </trkpt>
      <trkpt lat="48.71915" lon="2.47794">
        <ele>92</ele>
        <time>2021-03-03T08:32:16.536Z</time>
      </trkpt>
      <trkpt lat="48.71917" lon="2.4778">
        <ele>92</ele>
        <time>2021-03-03T08:32:21.538Z</time>
      </trkpt>
      <trkpt lat="48.71918" lon="2.4777">
        <ele>92</ele>
        <time>2021-03-03T08:32:26.534Z</time>
      </trkpt>
      <trkpt lat="48.71919" lon="2.47762">
        <ele>92</ele>
        <time>2021-03-03T08:32:31.538Z</time>
      </trkpt>
      <trkpt lat="48.71923" lon="2.47758">
        <ele>92</ele>
        <time>2021-03-03T08:32:36.534Z</time>
      </trkpt>
      <trkpt lat="48.71926" lon="2.4776">
        <ele>92</ele>
        <time>2021-03-03T08:32:41.540Z</time>
      </trkpt>
      <trkpt lat="48.71928" lon="2.47763">
        <ele>92</ele>
        <time>2021-03-03T08:32:45.531Z</time>
      </trkpt>
      <trkpt lat="48.71931" lon="2.47765">
        <ele>95</ele>
        <time>2021-03-03T08:32:50.535Z</time>
      </trkpt>
      <trkpt lat="48.71932" lon="2.47768">
        <ele>95</ele>
        <time>2021-03-03T08:32:55.530Z</time>
      </trkpt>
      <trkpt lat="48.71933" lon="2.47768">
        <ele>95</ele>
        <time>2021-03-03T08:32:59.536Z</time>
      </trkpt>
      <trkpt lat="48.71937" lon="2.47771">
        <ele>95</ele>
        <time>2021-03-03T08:33:04.538Z</time>
      </trkpt>
      <trkpt lat="48.71941" lon="2.47774">
        <ele>95</ele>
        <time>2021-03-03T08:33:09.532Z</time>
      </trkpt>
      <trkpt lat="48.71944" lon="2.47776">
        <ele>95</ele>
        <time>2021-03-03T08:33:14.534Z</time>
      </trkpt>
      <trkpt lat="48.71947" lon="2.47776">
        <ele>95</ele>
        <time>2021-03-03T08:33:18.528Z</time>
      </trkpt>
      <trkpt lat="48.7195" lon="2.47779">
        <ele>95</ele>
        <time>2021-03-03T08:33:22.527Z</time>
      </trkpt>
      <trkpt lat="48.71956" lon="2.47782">
        <ele>95</ele>
        <time>2021-03-03T08:33:27.524Z</time>
      </trkpt>
      <trkpt lat="48.7196" lon="2.47783">
        <ele>96</ele>
        <time>2021-03-03T08:33:32.541Z</time>
      </trkpt>
      <trkpt lat="48.71966" lon="2.47787">
        <ele>96</ele>
        <time>2021-03-03T08:33:37.513Z</time>
      </trkpt>
      <trkpt lat="48.7197" lon="2.47787">
        <ele>96</ele>
        <time>2021-03-03T08:33:41.550Z</time>
      </trkpt>
      <trkpt lat="48.71974" lon="2.47789">
        <ele>96</ele>
        <time>2021-03-03T08:33:46.540Z</time>
      </trkpt>
      <trkpt lat="48.71979" lon="2.4779">
        <ele>96</ele>
        <time>2021-03-03T08:33:50.534Z</time>
      </trkpt>
      <trkpt lat="48.71983" lon="2.47788">
        <ele>96</ele>
        <time>2021-03-03T08:33:55.538Z</time>
      </trkpt>
      <trkpt lat="48.71987" lon="2.47785">
        <ele>100</ele>
        <time>2021-03-03T08:34:00.530Z</time>
      </trkpt>
      <trkpt lat="48.71992" lon="2.47785">
        <ele>100</ele>
        <time>2021-03-03T08:34:05.531Z</time>
      </trkpt>
      <trkpt lat="48.71997" lon="2.47783">
        <ele>100</ele>
        <time>2021-03-03T08:34:10.529Z</time>
      </trkpt>
      <trkpt lat="48.72002" lon="2.47782">
        <ele>100</ele>
        <time>2021-03-03T08:34:15.532Z</time>
      </trkpt>
      <trkpt lat="48.72008" lon="2.47785">
        <ele>100</ele>
        <time>2021-03-03T08:34:20.529Z</time>
      </trkpt>
      <trkpt lat="48.72014" lon="2.47788">
        <ele>102</ele>
        <time>2021-03-03T08:34:25.542Z</time>
      </trkpt>
      <trkpt lat="48.72018" lon="2.47791">
        <ele>102</ele>
        <time>2021-03-03T08:34:30.538Z</time>
      </trkpt>
      <trkpt lat="48.72023" lon="2.47794">
        <ele>101</ele>
        <time>2021-03-03T08:34:35.538Z</time>
      </trkpt>
      <trkpt lat="48.72029" lon="2.47796">
        <ele>101</ele>
        <time>2021-03-03T08:34:40.536Z</time>
      </trkpt>
      <trkpt lat="48.72032" lon="2.478">
        <ele>101</ele>
        <time>2021-03-03T08:34:45.545Z</time>
      </trkpt>
      <trkpt lat="48.72036" lon="2.478">
        <ele>101</ele>
        <time>2021-03-03T08:34:50.550Z</time>
      </trkpt>
      <trkpt lat="48.72038" lon="2.47801">
        <ele>101</ele>
        <time>2021-03-03T08:34:55.523Z</time>
      </trkpt>
      <trkpt lat="48.72043" lon="2.47798">
        <ele>102</ele>
        <time>2021-03-03T08:34:59.522Z</time>
      </trkpt>
      <trkpt lat="48.7205" lon="2.47791">
        <ele>103</ele>
        <time>2021-03-03T08:35:04.534Z</time>
      </trkpt>
      <trkpt lat="48.72055" lon="2.47789">
        <ele>103</ele>
        <time>2021-03-03T08:35:09.536Z</time>
      </trkpt>
      <trkpt lat="48.72061" lon="2.47788">
        <ele>103</ele>
        <time>2021-03-03T08:35:14.533Z</time>
      </trkpt>
      <trkpt lat="48.72065" lon="2.47788">
        <ele>103</ele>
        <time>2021-03-03T08:35:19.535Z</time>
      </trkpt>
      <trkpt lat="48.7207" lon="2.47787">
        <ele>102</ele>
        <time>2021-03-03T08:35:24.515Z</time>
      </trkpt>
      <trkpt lat="48.72074" lon="2.47784">
        <ele>102</ele>
        <time>2021-03-03T08:35:28.535Z</time>
      </trkpt>
      <trkpt lat="48.7208" lon="2.4778">
        <ele>102</ele>
        <time>2021-03-03T08:35:32.517Z</time>
      </trkpt>
      <trkpt lat="48.72089" lon="2.47775">
        <ele>102</ele>
        <time>2021-03-03T08:35:37.514Z</time>
      </trkpt>
      <trkpt lat="48.72095" lon="2.47775">
        <ele>102</ele>
        <time>2021-03-03T08:35:41.529Z</time>
      </trkpt>
      <trkpt lat="48.721" lon="2.4777">
        <ele>101</ele>
        <time>2021-03-03T08:35:56.532Z</time>
      </trkpt>
      <trkpt lat="48.72103" lon="2.47771">
        <ele>101</ele>
        <time>2021-03-03T08:36:06.533Z</time>
      </trkpt>
      <trkpt lat="48.72105" lon="2.47765">
        <ele>101</ele>
        <time>2021-03-03T08:36:10.527Z</time>
      </trkpt>
      <trkpt lat="48.72107" lon="2.4777">
        <ele>101</ele>
        <time>2021-03-03T08:36:15.533Z</time>
      </trkpt>
      <trkpt lat="48.72108" lon="2.47769">
        <ele>101</ele>
        <time>2021-03-03T08:36:20.532Z</time>
      </trkpt>
      <trkpt lat="48.72109" lon="2.47765">
        <ele>101</ele>
        <time>2021-03-03T08:38:30.536Z</time>
      </trkpt>
      <trkpt lat="48.72109" lon="2.47763">
        <ele>101</ele>
        <time>2021-03-03T08:38:40.522Z</time>
      </trkpt>
      <trkpt lat="48.7211" lon="2.47762">
        <ele>101</ele>
        <time>2021-03-03T08:38:45.525Z</time>
      </trkpt>
      <trkpt lat="48.72114" lon="2.4776">
        <ele>101</ele>
        <time>2021-03-03T08:38:50.544Z</time>
      </trkpt>
      <trkpt lat="48.72119" lon="2.47759">
        <ele>101</ele>
        <time>2021-03-03T08:38:55.532Z</time>
      </trkpt>
      <trkpt lat="48.72121" lon="2.47759">
        <ele>101</ele>
        <time>2021-03-03T08:39:00.531Z</time>
      </trkpt>
      <trkpt lat="48.72123" lon="2.47757">
        <ele>101</ele>
        <time>2021-03-03T08:39:05.530Z</time>
      </trkpt>
      <trkpt lat="48.72124" lon="2.47757">
        <ele>101</ele>
        <time>2021-03-03T08:39:09.530Z</time>
      </trkpt>
      <trkpt lat="48.7213" lon="2.47759">
        <ele>101</ele>
        <time>2021-03-03T08:39:14.530Z</time>
      </trkpt>
      <trkpt lat="48.72135" lon="2.47757">
        <ele>101</ele>
        <time>2021-03-03T08:39:19.538Z</time>
      </trkpt>
      <trkpt lat="48.72138" lon="2.47756">
        <ele>101</ele>
        <time>2021-03-03T08:39:24.538Z</time>
      </trkpt>
      <trkpt lat="48.7214" lon="2.47756">
        <ele>101</ele>
        <time>2021-03-03T08:39:29.533Z</time>
      </trkpt>
      <trkpt lat="48.72146" lon="2.47756">
        <ele>101</ele>
        <time>2021-03-03T08:39:34.534Z</time>
      </trkpt>
      <trkpt lat="48.7215" lon="2.47756">
        <ele>101</ele>
        <time>2021-03-03T08:39:38.534Z</time>
      </trkpt>
      <trkpt lat="48.72156" lon="2.47757">
        <ele>101</ele>
        <time>2021-03-03T08:39:43.529Z</time>
      </trkpt>
      <trkpt lat="48.72161" lon="2.47757">
        <ele>101</ele>
        <time>2021-03-03T08:39:48.531Z</time>
      </trkpt>
      <trkpt lat="48.72165" lon="2.47758">
        <ele>101</ele>
        <time>2021-03-03T08:39:53.535Z</time>
      </trkpt>
      <trkpt lat="48.72169" lon="2.47758">
        <ele>101</ele>
        <time>2021-03-03T08:39:58.535Z</time>
      </trkpt>
      <trkpt lat="48.72173" lon="2.47758">
        <ele>101</ele>
        <time>2021-03-03T08:40:03.527Z</time>
      </trkpt>
      <trkpt lat="48.72176" lon="2.47758">
        <ele>101</ele>
        <time>2021-03-03T08:40:07.533Z</time>
      </trkpt>
      <trkpt lat="48.72183" lon="2.47758">
        <ele>101</ele>
        <time>2021-03-03T08:40:12.527Z</time>
      </trkpt>
      <trkpt lat="48.72189" lon="2.47756">
        <ele>101</ele>
        <time>2021-03-03T08:40:17.535Z</time>
      </trkpt>
      <trkpt lat="48.72193" lon="2.47754">
        <ele>101</ele>
        <time>2021-03-03T08:40:22.531Z</time>
      </trkpt>
      <trkpt lat="48.72203" lon="2.47747">
        <ele>101</ele>
        <time>2021-03-03T08:40:27.539Z</time>
      </trkpt>
      <trkpt lat="48.72208" lon="2.47744">
        <ele>101</ele>
        <time>2021-03-03T08:40:31.538Z</time>
      </trkpt>
      <trkpt lat="48.72215" lon="2.4774">
        <ele>101</ele>
        <time>2021-03-03T08:40:36.520Z</time>
      </trkpt>
      <trkpt lat="48.72222" lon="2.47734">
        <ele>99</ele>
        <time>2021-03-03T08:40:41.513Z</time>
      </trkpt>
      <trkpt lat="48.72227" lon="2.47732">
        <ele>99</ele>
        <time>2021-03-03T08:40:46.541Z</time>
      </trkpt>
      <trkpt lat="48.72233" lon="2.47729">
        <ele>99</ele>
        <time>2021-03-03T08:40:51.534Z</time>
      </trkpt>
      <trkpt lat="48.72239" lon="2.47722">
        <ele>98</ele>
        <time>2021-03-03T08:40:56.532Z</time>
      </trkpt>
      <trkpt lat="48.72245" lon="2.47717">
        <ele>98</ele>
        <time>2021-03-03T08:41:01.535Z</time>
      </trkpt>
      <trkpt lat="48.72253" lon="2.47711">
        <ele>98</ele>
        <time>2021-03-03T08:41:06.536Z</time>
      </trkpt>
      <trkpt lat="48.72258" lon="2.47706">
        <ele>96</ele>
        <time>2021-03-03T08:41:11.523Z</time>
      </trkpt>
      <trkpt lat="48.72263" lon="2.47702">
        <ele>96</ele>
        <time>2021-03-03T08:41:15.521Z</time>
      </trkpt>
      <trkpt lat="48.72266" lon="2.47696">
        <ele>97</ele>
        <time>2021-03-03T08:41:20.513Z</time>
      </trkpt>
      <trkpt lat="48.72269" lon="2.47695">
        <ele>97</ele>
        <time>2021-03-03T08:41:25.548Z</time>
      </trkpt>
      <trkpt lat="48.72275" lon="2.47688">
        <ele>97</ele>
        <time>2021-03-03T08:41:30.528Z</time>
      </trkpt>
      <trkpt lat="48.72281" lon="2.47684">
        <ele>97</ele>
        <time>2021-03-03T08:41:35.523Z</time>
      </trkpt>
      <trkpt lat="48.72286" lon="2.4768">
        <ele>96</ele>
        <time>2021-03-03T08:41:40.520Z</time>
      </trkpt>
      <trkpt lat="48.72288" lon="2.47679">
        <ele>96</ele>
        <time>2021-03-03T08:41:45.520Z</time>
      </trkpt>
      <trkpt lat="48.72297" lon="2.47675">
        <ele>97</ele>
        <time>2021-03-03T08:41:50.534Z</time>
      </trkpt>
      <trkpt lat="48.72303" lon="2.47674">
        <ele>97</ele>
        <time>2021-03-03T08:41:55.527Z</time>
      </trkpt>
      <trkpt lat="48.72307" lon="2.47674">
        <ele>97</ele>
        <time>2021-03-03T08:42:00.527Z</time>
      </trkpt>
      <trkpt lat="48.72314" lon="2.47671">
        <ele>97</ele>
        <time>2021-03-03T08:42:05.536Z</time>
      </trkpt>
      <trkpt lat="48.72321" lon="2.47669">
        <ele>97</ele>
        <time>2021-03-03T08:42:10.520Z</time>
      </trkpt>
      <trkpt lat="48.72326" lon="2.47667">
        <ele>97</ele>
        <time>2021-03-03T08:42:15.526Z</time>
      </trkpt>
      <trkpt lat="48.72333" lon="2.47665">
        <ele>97</ele>
        <time>2021-03-03T08:42:20.527Z</time>
      </trkpt>
      <trkpt lat="48.72337" lon="2.47664">
        <ele>97</ele>
        <time>2021-03-03T08:42:24.559Z</time>
      </trkpt>
      <trkpt lat="48.72342" lon="2.47663">
        <ele>97</ele>
        <time>2021-03-03T08:42:29.526Z</time>
      </trkpt>
      <trkpt lat="48.72348" lon="2.47665">
        <ele>97</ele>
        <time>2021-03-03T08:42:33.531Z</time>
      </trkpt>
      <trkpt lat="48.72353" lon="2.47668">
        <ele>97</ele>
        <time>2021-03-03T08:42:38.538Z</time>
      </trkpt>
      <trkpt lat="48.72357" lon="2.47671">
        <ele>97</ele>
        <time>2021-03-03T08:42:42.529Z</time>
      </trkpt>
      <trkpt lat="48.72363" lon="2.47673">
        <ele>97</ele>
        <time>2021-03-03T08:42:47.525Z</time>
      </trkpt>
      <trkpt lat="48.72371" lon="2.47672">
        <ele>97</ele>
        <time>2021-03-03T08:42:52.537Z</time>
      </trkpt>
      <trkpt lat="48.72375" lon="2.47671">
        <ele>98</ele>
        <time>2021-03-03T08:42:56.534Z</time>
      </trkpt>
      <trkpt lat="48.72381" lon="2.4767">
        <ele>98</ele>
        <time>2021-03-03T08:43:01.543Z</time>
      </trkpt>
      <trkpt lat="48.72387" lon="2.47668">
        <ele>98</ele>
        <time>2021-03-03T08:43:05.531Z</time>
      </trkpt>
      <trkpt lat="48.72394" lon="2.47664">
        <ele>98</ele>
        <time>2021-03-03T08:43:10.539Z</time>
      </trkpt>
      <trkpt lat="48.72402" lon="2.47661">
        <ele>98</ele>
        <time>2021-03-03T08:43:15.533Z</time>
      </trkpt>
      <trkpt lat="48.7241" lon="2.47657">
        <ele>97</ele>
        <time>2021-03-03T08:43:20.517Z</time>
      </trkpt>
      <trkpt lat="48.72416" lon="2.47656">
        <ele>97</ele>
        <time>2021-03-03T08:43:24.522Z</time>
      </trkpt>
      <trkpt lat="48.72422" lon="2.47653">
        <ele>97</ele>
        <time>2021-03-03T08:43:29.518Z</time>
      </trkpt>
      <trkpt lat="48.72427" lon="2.47651">
        <ele>96</ele>
        <time>2021-03-03T08:43:33.534Z</time>
      </trkpt>
      <trkpt lat="48.72432" lon="2.47647">
        <ele>94</ele>
        <time>2021-03-03T08:43:38.523Z</time>
      </trkpt>
      <trkpt lat="48.72438" lon="2.47642">
        <ele>94</ele>
        <time>2021-03-03T08:43:43.519Z</time>
      </trkpt>
      <trkpt lat="48.72441" lon="2.47642">
        <ele>94</ele>
        <time>2021-03-03T08:43:48.503Z</time>
      </trkpt>
      <trkpt lat="48.72446" lon="2.47639">
        <ele>94</ele>
        <time>2021-03-03T08:43:53.510Z</time>
      </trkpt>
      <trkpt lat="48.7245" lon="2.47639">
        <ele>94</ele>
        <time>2021-03-03T08:43:58.529Z</time>
      </trkpt>
      <trkpt lat="48.72454" lon="2.47637">
        <ele>94</ele>
        <time>2021-03-03T08:44:03.531Z</time>
      </trkpt>
      <trkpt lat="48.72462" lon="2.47633">
        <ele>92</ele>
        <time>2021-03-03T08:44:08.525Z</time>
      </trkpt>
      <trkpt lat="48.72469" lon="2.47631">
        <ele>92</ele>
        <time>2021-03-03T08:44:13.527Z</time>
      </trkpt>
      <trkpt lat="48.72476" lon="2.47635">
        <ele>92</ele>
        <time>2021-03-03T08:44:18.530Z</time>
      </trkpt>
      <trkpt lat="48.72481" lon="2.47637">
        <ele>92</ele>
        <time>2021-03-03T08:44:22.529Z</time>
      </trkpt>
      <trkpt lat="48.72486" lon="2.4764">
        <ele>92</ele>
        <time>2021-03-03T08:44:27.512Z</time>
      </trkpt>
      <trkpt lat="48.72489" lon="2.47641">
        <ele>92</ele>
        <time>2021-03-03T08:44:32.522Z</time>
      </trkpt>
      <trkpt lat="48.72496" lon="2.47642">
        <ele>92</ele>
        <time>2021-03-03T08:44:36.531Z</time>
      </trkpt>
      <trkpt lat="48.72502" lon="2.47641">
        <ele>92</ele>
        <time>2021-03-03T08:44:41.530Z</time>
      </trkpt>
      <trkpt lat="48.72508" lon="2.47643">
        <ele>92</ele>
        <time>2021-03-03T08:44:46.536Z</time>
      </trkpt>
      <trkpt lat="48.72513" lon="2.47645">
        <ele>92</ele>
        <time>2021-03-03T08:44:50.505Z</time>
      </trkpt>
      <trkpt lat="48.72518" lon="2.47648">
        <ele>94</ele>
        <time>2021-03-03T08:44:55.538Z</time>
      </trkpt>
      <trkpt lat="48.72522" lon="2.47649">
        <ele>94</ele>
        <time>2021-03-03T08:45:00.525Z</time>
      </trkpt>
      <trkpt lat="48.72529" lon="2.4765">
        <ele>94</ele>
        <time>2021-03-03T08:45:04.536Z</time>
      </trkpt>
      <trkpt lat="48.72536" lon="2.47651">
        <ele>94</ele>
        <time>2021-03-03T08:45:09.569Z</time>
      </trkpt>
      <trkpt lat="48.72543" lon="2.4765">
        <ele>95</ele>
        <time>2021-03-03T08:45:14.525Z</time>
      </trkpt>
      <trkpt lat="48.72547" lon="2.47649">
        <ele>95</ele>
        <time>2021-03-03T08:45:18.524Z</time>
      </trkpt>
      <trkpt lat="48.72551" lon="2.47648">
        <ele>95</ele>
        <time>2021-03-03T08:45:23.527Z</time>
      </trkpt>
      <trkpt lat="48.72557" lon="2.47648">
        <ele>95</ele>
        <time>2021-03-03T08:45:28.509Z</time>
      </trkpt>
      <trkpt lat="48.72563" lon="2.4765">
        <ele>95</ele>
        <time>2021-03-03T08:45:33.518Z</time>
      </trkpt>
      <trkpt lat="48.72572" lon="2.47647">
        <ele>97</ele>
        <time>2021-03-03T08:45:38.515Z</time>
      </trkpt>
      <trkpt lat="48.72577" lon="2.47645">
        <ele>97</ele>
        <time>2021-03-03T08:45:42.550Z</time>
      </trkpt>
      <trkpt lat="48.72582" lon="2.47646">
        <ele>97</ele>
        <time>2021-03-03T08:45:47.523Z</time>
      </trkpt>
      <trkpt lat="48.72584" lon="2.47645">
        <ele>97</ele>
        <time>2021-03-03T08:45:52.526Z</time>
      </trkpt>
      <trkpt lat="48.72587" lon="2.47646">
        <ele>97</ele>
        <time>2021-03-03T08:45:57.526Z</time>
      </trkpt>
      <trkpt lat="48.72598" lon="2.47639">
        <ele>98</ele>
        <time>2021-03-03T08:46:02.519Z</time>
      </trkpt>
      <trkpt lat="48.72604" lon="2.47636">
        <ele>98</ele>
        <time>2021-03-03T08:46:07.527Z</time>
      </trkpt>
      <trkpt lat="48.72608" lon="2.47635">
        <ele>98</ele>
        <time>2021-03-03T08:46:12.533Z</time>
      </trkpt>
      <trkpt lat="48.72614" lon="2.47632">
        <ele>98</ele>
        <time>2021-03-03T08:46:17.526Z</time>
      </trkpt>
      <trkpt lat="48.72619" lon="2.47629">
        <ele>98</ele>
        <time>2021-03-03T08:46:21.525Z</time>
      </trkpt>
      <trkpt lat="48.72625" lon="2.47628">
        <ele>98</ele>
        <time>2021-03-03T08:46:26.531Z</time>
      </trkpt>
      <trkpt lat="48.7263" lon="2.47632">
        <ele>96</ele>
        <time>2021-03-03T08:46:31.534Z</time>
      </trkpt>
      <trkpt lat="48.72633" lon="2.47637">
        <ele>96</ele>
        <time>2021-03-03T08:46:36.509Z</time>
      </trkpt>
      <trkpt lat="48.72636" lon="2.4764">
        <ele>96</ele>
        <time>2021-03-03T08:46:41.526Z</time>
      </trkpt>
      <trkpt lat="48.72641" lon="2.47643">
        <ele>96</ele>
        <time>2021-03-03T08:46:46.532Z</time>
      </trkpt>
      <trkpt lat="48.72644" lon="2.47642">
        <ele>96</ele>
        <time>2021-03-03T08:46:51.528Z</time>
      </trkpt>
      <trkpt lat="48.72649" lon="2.47643">
        <ele>96</ele>
        <time>2021-03-03T08:46:55.535Z</time>
      </trkpt>
      <trkpt lat="48.72654" lon="2.47644">
        <ele>95</ele>
        <time>2021-03-03T08:47:00.516Z</time>
      </trkpt>
      <trkpt lat="48.72656" lon="2.47642">
        <ele>95</ele>
        <time>2021-03-03T08:47:04.529Z</time>
      </trkpt>
      <trkpt lat="48.72663" lon="2.47637">
        <ele>95</ele>
        <time>2021-03-03T08:47:09.540Z</time>
      </trkpt>
      <trkpt lat="48.7267" lon="2.47634">
        <ele>95</ele>
        <time>2021-03-03T08:47:14.516Z</time>
      </trkpt>
      <trkpt lat="48.72676" lon="2.47632">
        <ele>95</ele>
        <time>2021-03-03T08:47:19.534Z</time>
      </trkpt>
      <trkpt lat="48.72678" lon="2.47633">
        <ele>95</ele>
        <time>2021-03-03T08:47:24.535Z</time>
      </trkpt>
      <trkpt lat="48.72683" lon="2.47639">
        <ele>93</ele>
        <time>2021-03-03T08:47:29.529Z</time>
      </trkpt>
      <trkpt lat="48.72686" lon="2.47643">
        <ele>93</ele>
        <time>2021-03-03T08:47:34.511Z</time>
      </trkpt>
      <trkpt lat="48.7269" lon="2.4765">
        <ele>93</ele>
        <time>2021-03-03T08:47:38.501Z</time>
      </trkpt>
      <trkpt lat="48.72692" lon="2.47654">
        <ele>94</ele>
        <time>2021-03-03T08:47:42.527Z</time>
      </trkpt>
      <trkpt lat="48.72695" lon="2.4766">
        <ele>94</ele>
        <time>2021-03-03T08:47:47.524Z</time>
      </trkpt>
      <trkpt lat="48.72699" lon="2.47667">
        <ele>94</ele>
        <time>2021-03-03T08:47:52.531Z</time>
      </trkpt>
      <trkpt lat="48.727" lon="2.4767">
        <ele>94</ele>
        <time>2021-03-03T08:47:57.497Z</time>
      </trkpt>
      <trkpt lat="48.72705" lon="2.47678">
        <ele>94</ele>
        <time>2021-03-03T08:48:01.517Z</time>
      </trkpt>
      <trkpt lat="48.72709" lon="2.47686">
        <ele>94</ele>
        <time>2021-03-03T08:48:06.522Z</time>
      </trkpt>
      <trkpt lat="48.72711" lon="2.47691">
        <ele>94</ele>
        <time>2021-03-03T08:48:11.528Z</time>
      </trkpt>
      <trkpt lat="48.72714" lon="2.47695">
        <ele>94</ele>
        <time>2021-03-03T08:48:15.517Z</time>
      </trkpt>
      <trkpt lat="48.72717" lon="2.47701">
        <ele>94</ele>
        <time>2021-03-03T08:48:20.523Z</time>
      </trkpt>
      <trkpt lat="48.72719" lon="2.47707">
        <ele>94</ele>
        <time>2021-03-03T08:48:24.529Z</time>
      </trkpt>
      <trkpt lat="48.7272" lon="2.47711">
        <ele>95</ele>
        <time>2021-03-03T08:48:29.532Z</time>
      </trkpt>
      <trkpt lat="48.72725" lon="2.47721">
        <ele>95</ele>
        <time>2021-03-03T08:48:34.526Z</time>
      </trkpt>
      <trkpt lat="48.72729" lon="2.47727">
        <ele>95</ele>
        <time>2021-03-03T08:48:38.510Z</time>
      </trkpt>
      <trkpt lat="48.72732" lon="2.47735">
        <ele>95</ele>
        <time>2021-03-03T08:48:43.509Z</time>
      </trkpt>
      <trkpt lat="48.72736" lon="2.47741">
        <ele>93</ele>
        <time>2021-03-03T08:48:47.538Z</time>
      </trkpt>
      <trkpt lat="48.72738" lon="2.4775">
        <ele>93</ele>
        <time>2021-03-03T08:48:52.505Z</time>
      </trkpt>
      <trkpt lat="48.72741" lon="2.47757">
        <ele>93</ele>
        <time>2021-03-03T08:48:56.517Z</time>
      </trkpt>
      <trkpt lat="48.72743" lon="2.47761">
        <ele>93</ele>
        <time>2021-03-03T08:49:00.523Z</time>
      </trkpt>
      <trkpt lat="48.72746" lon="2.47763">
        <ele>93</ele>
        <time>2021-03-03T08:49:05.516Z</time>
      </trkpt>
      <trkpt lat="48.72748" lon="2.47765">
        <ele>94</ele>
        <time>2021-03-03T08:49:09.516Z</time>
      </trkpt>
      <trkpt lat="48.72753" lon="2.47766">
        <ele>94</ele>
        <time>2021-03-03T08:49:14.517Z</time>
      </trkpt>
      <trkpt lat="48.72756" lon="2.47764">
        <ele>94</ele>
        <time>2021-03-03T08:49:19.520Z</time>
      </trkpt>
      <trkpt lat="48.72762" lon="2.47768">
        <ele>94</ele>
        <time>2021-03-03T08:49:24.529Z</time>
      </trkpt>
      <trkpt lat="48.72764" lon="2.47769">
        <ele>94</ele>
        <time>2021-03-03T08:49:29.530Z</time>
      </trkpt>
      <trkpt lat="48.72766" lon="2.47767">
        <ele>94</ele>
        <time>2021-03-03T08:49:34.528Z</time>
      </trkpt>
      <trkpt lat="48.72769" lon="2.47767">
        <ele>94</ele>
        <time>2021-03-03T08:49:39.525Z</time>
      </trkpt>
      <trkpt lat="48.72772" lon="2.47776">
        <ele>94</ele>
        <time>2021-03-03T08:49:44.524Z</time>
      </trkpt>
      <trkpt lat="48.72773" lon="2.47778">
        <ele>94</ele>
        <time>2021-03-03T08:49:48.526Z</time>
      </trkpt>
      <trkpt lat="48.72776" lon="2.47784">
        <ele>94</ele>
        <time>2021-03-03T08:49:53.522Z</time>
      </trkpt>
      <trkpt lat="48.72777" lon="2.47787">
        <ele>94</ele>
        <time>2021-03-03T08:49:58.514Z</time>
      </trkpt>
      <trkpt lat="48.72779" lon="2.47798">
        <ele>94</ele>
        <time>2021-03-03T08:50:03.527Z</time>
      </trkpt>
      <trkpt lat="48.7278" lon="2.47806">
        <ele>94</ele>
        <time>2021-03-03T08:50:08.525Z</time>
      </trkpt>
      <trkpt lat="48.72782" lon="2.47812">
        <ele>94</ele>
        <time>2021-03-03T08:50:12.514Z</time>
      </trkpt>
      <trkpt lat="48.72784" lon="2.47817">
        <ele>94</ele>
        <time>2021-03-03T08:50:17.514Z</time>
      </trkpt>
      <trkpt lat="48.72786" lon="2.47825">
        <ele>94</ele>
        <time>2021-03-03T08:50:22.515Z</time>
      </trkpt>
      <trkpt lat="48.72786" lon="2.4783">
        <ele>94</ele>
        <time>2021-03-03T08:50:27.521Z</time>
      </trkpt>
      <trkpt lat="48.72787" lon="2.47839">
        <ele>94</ele>
        <time>2021-03-03T08:50:31.525Z</time>
      </trkpt>
      <trkpt lat="48.72788" lon="2.47848">
        <ele>93</ele>
        <time>2021-03-03T08:50:36.525Z</time>
      </trkpt>
      <trkpt lat="48.72789" lon="2.47856">
        <ele>93</ele>
        <time>2021-03-03T08:50:41.525Z</time>
      </trkpt>
      <trkpt lat="48.7279" lon="2.47864">
        <ele>93</ele>
        <time>2021-03-03T08:50:46.520Z</time>
      </trkpt>
      <trkpt lat="48.7279" lon="2.47871">
        <ele>93</ele>
        <time>2021-03-03T08:50:51.526Z</time>
      </trkpt>
      <trkpt lat="48.72791" lon="2.47878">
        <ele>94</ele>
        <time>2021-03-03T08:50:55.521Z</time>
      </trkpt>
      <trkpt lat="48.72792" lon="2.47884">
        <ele>94</ele>
        <time>2021-03-03T08:51:00.528Z</time>
      </trkpt>
      <trkpt lat="48.72794" lon="2.47893">
        <ele>94</ele>
        <time>2021-03-03T08:51:05.527Z</time>
      </trkpt>
      <trkpt lat="48.72795" lon="2.47899">
        <ele>94</ele>
        <time>2021-03-03T08:51:09.522Z</time>
      </trkpt>
      <trkpt lat="48.72794" lon="2.47908">
        <ele>95</ele>
        <time>2021-03-03T08:51:14.510Z</time>
      </trkpt>
      <trkpt lat="48.72794" lon="2.47915">
        <ele>95</ele>
        <time>2021-03-03T08:51:18.511Z</time>
      </trkpt>
      <trkpt lat="48.72796" lon="2.47924">
        <ele>95</ele>
        <time>2021-03-03T08:51:23.516Z</time>
      </trkpt>
      <trkpt lat="48.72796" lon="2.47929">
        <ele>95</ele>
        <time>2021-03-03T08:51:27.523Z</time>
      </trkpt>
      <trkpt lat="48.72797" lon="2.47939">
        <ele>95</ele>
        <time>2021-03-03T08:51:32.531Z</time>
      </trkpt>
      <trkpt lat="48.72798" lon="2.47949">
        <ele>95</ele>
        <time>2021-03-03T08:51:37.505Z</time>
      </trkpt>
      <trkpt lat="48.72799" lon="2.47954">
        <ele>95</ele>
        <time>2021-03-03T08:51:41.539Z</time>
      </trkpt>
      <trkpt lat="48.728" lon="2.47963">
        <ele>94</ele>
        <time>2021-03-03T08:51:46.528Z</time>
      </trkpt>
      <trkpt lat="48.72801" lon="2.4797">
        <ele>94</ele>
        <time>2021-03-03T08:51:51.520Z</time>
      </trkpt>
      <trkpt lat="48.72803" lon="2.47978">
        <ele>94</ele>
        <time>2021-03-03T08:51:56.525Z</time>
      </trkpt>
      <trkpt lat="48.72803" lon="2.47984">
        <ele>94</ele>
        <time>2021-03-03T08:52:01.527Z</time>
      </trkpt>
      <trkpt lat="48.72803" lon="2.47994">
        <ele>94</ele>
        <time>2021-03-03T08:52:06.528Z</time>
      </trkpt>
      <trkpt lat="48.72804" lon="2.48">
        <ele>94</ele>
        <time>2021-03-03T08:52:11.525Z</time>
      </trkpt>
      <trkpt lat="48.72805" lon="2.48007">
        <ele>94</ele>
        <time>2021-03-03T08:52:15.529Z</time>
      </trkpt>
      <trkpt lat="48.72806" lon="2.48017">
        <ele>93</ele>
        <time>2021-03-03T08:52:20.531Z</time>
      </trkpt>
      <trkpt lat="48.72808" lon="2.48025">
        <ele>93</ele>
        <time>2021-03-03T08:52:25.517Z</time>
      </trkpt>
      <trkpt lat="48.7281" lon="2.48034">
        <ele>93</ele>
        <time>2021-03-03T08:52:30.515Z</time>
      </trkpt>
      <trkpt lat="48.72811" lon="2.48043">
        <ele>93</ele>
        <time>2021-03-03T08:52:35.525Z</time>
      </trkpt>
      <trkpt lat="48.72813" lon="2.48051">
        <ele>93</ele>
        <time>2021-03-03T08:52:40.521Z</time>
      </trkpt>
      <trkpt lat="48.72816" lon="2.4806">
        <ele>93</ele>
        <time>2021-03-03T08:52:45.513Z</time>
      </trkpt>
      <trkpt lat="48.72819" lon="2.48069">
        <ele>93</ele>
        <time>2021-03-03T08:52:50.525Z</time>
      </trkpt>
      <trkpt lat="48.72822" lon="2.48076">
        <ele>95</ele>
        <time>2021-03-03T08:52:55.523Z</time>
      </trkpt>
      <trkpt lat="48.72823" lon="2.48083">
        <ele>95</ele>
        <time>2021-03-03T08:52:59.527Z</time>
      </trkpt>
      <trkpt lat="48.72824" lon="2.48088">
        <ele>95</ele>
        <time>2021-03-03T08:53:04.512Z</time>
      </trkpt>
      <trkpt lat="48.72824" lon="2.48093">
        <ele>95</ele>
        <time>2021-03-03T08:53:09.511Z</time>
      </trkpt>
      <trkpt lat="48.72825" lon="2.481">
        <ele>94</ele>
        <time>2021-03-03T08:53:13.527Z</time>
      </trkpt>
      <trkpt lat="48.72825" lon="2.48104">
        <ele>94</ele>
        <time>2021-03-03T08:53:18.527Z</time>
      </trkpt>
      <trkpt lat="48.72825" lon="2.48112">
        <ele>94</ele>
        <time>2021-03-03T08:53:23.531Z</time>
      </trkpt>
      <trkpt lat="48.72827" lon="2.48122">
        <ele>94</ele>
        <time>2021-03-03T08:53:28.528Z</time>
      </trkpt>
      <trkpt lat="48.72828" lon="2.48132">
        <ele>94</ele>
        <time>2021-03-03T08:53:33.527Z</time>
      </trkpt>
      <trkpt lat="48.7283" lon="2.48139">
        <ele>94</ele>
        <time>2021-03-03T08:53:38.529Z</time>
      </trkpt>
      <trkpt lat="48.7283" lon="2.48144">
        <ele>94</ele>
        <time>2021-03-03T08:53:43.523Z</time>
      </trkpt>
      <trkpt lat="48.72833" lon="2.48151">
        <ele>94</ele>
        <time>2021-03-03T08:53:48.528Z</time>
      </trkpt>
      <trkpt lat="48.72835" lon="2.48155">
        <ele>93</ele>
        <time>2021-03-03T08:53:53.522Z</time>
      </trkpt>
      <trkpt lat="48.72837" lon="2.48165">
        <ele>93</ele>
        <time>2021-03-03T08:53:58.524Z</time>
      </trkpt>
      <trkpt lat="48.72839" lon="2.4817">
        <ele>93</ele>
        <time>2021-03-03T08:54:03.532Z</time>
      </trkpt>
      <trkpt lat="48.72842" lon="2.48178">
        <ele>93</ele>
        <time>2021-03-03T08:54:08.508Z</time>
      </trkpt>
      <trkpt lat="48.72844" lon="2.48183">
        <ele>93</ele>
        <time>2021-03-03T08:54:12.523Z</time>
      </trkpt>
      <trkpt lat="48.72847" lon="2.48192">
        <ele>93</ele>
        <time>2021-03-03T08:54:17.517Z</time>
      </trkpt>
      <trkpt lat="48.72849" lon="2.48199">
        <ele>94</ele>
        <time>2021-03-03T08:54:22.513Z</time>
      </trkpt>
      <trkpt lat="48.72851" lon="2.48206">
        <ele>94</ele>
        <time>2021-03-03T08:54:26.513Z</time>
      </trkpt>
      <trkpt lat="48.72852" lon="2.48214">
        <ele>94</ele>
        <time>2021-03-03T08:54:31.508Z</time>
      </trkpt>
      <trkpt lat="48.72855" lon="2.48221">
        <ele>94</ele>
        <time>2021-03-03T08:54:36.527Z</time>
      </trkpt>
      <trkpt lat="48.72858" lon="2.48228">
        <ele>94</ele>
        <time>2021-03-03T08:54:41.521Z</time>
      </trkpt>
      <trkpt lat="48.7286" lon="2.48235">
        <ele>94</ele>
        <time>2021-03-03T08:54:46.524Z</time>
      </trkpt>
      <trkpt lat="48.72862" lon="2.48241">
        <ele>94</ele>
        <time>2021-03-03T08:54:51.518Z</time>
      </trkpt>
      <trkpt lat="48.72864" lon="2.48252">
        <ele>94</ele>
        <time>2021-03-03T08:54:56.521Z</time>
      </trkpt>
      <trkpt lat="48.72863" lon="2.48257">
        <ele>94</ele>
        <time>2021-03-03T08:55:01.525Z</time>
      </trkpt>
      <trkpt lat="48.72864" lon="2.48265">
        <ele>95</ele>
        <time>2021-03-03T08:55:06.514Z</time>
      </trkpt>
      <trkpt lat="48.72864" lon="2.48272">
        <ele>95</ele>
        <time>2021-03-03T08:55:10.518Z</time>
      </trkpt>
      <trkpt lat="48.72866" lon="2.48279">
        <ele>95</ele>
        <time>2021-03-03T08:55:15.521Z</time>
      </trkpt>
      <trkpt lat="48.72867" lon="2.48288">
        <ele>95</ele>
        <time>2021-03-03T08:55:20.525Z</time>
      </trkpt>
      <trkpt lat="48.72869" lon="2.48295">
        <ele>95</ele>
        <time>2021-03-03T08:55:24.523Z</time>
      </trkpt>
      <trkpt lat="48.72871" lon="2.48301">
        <ele>95</ele>
        <time>2021-03-03T08:55:29.520Z</time>
      </trkpt>
      <trkpt lat="48.72872" lon="2.48307">
        <ele>95</ele>
        <time>2021-03-03T08:55:34.524Z</time>
      </trkpt>
      <trkpt lat="48.72873" lon="2.48313">
        <ele>95</ele>
        <time>2021-03-03T08:55:39.527Z</time>
      </trkpt>
      <trkpt lat="48.72878" lon="2.4832">
        <ele>96</ele>
        <time>2021-03-03T08:55:44.533Z</time>
      </trkpt>
      <trkpt lat="48.72881" lon="2.48327">
        <ele>96</ele>
        <time>2021-03-03T08:55:49.526Z</time>
      </trkpt>
      <trkpt lat="48.72883" lon="2.48334">
        <ele>96</ele>
        <time>2021-03-03T08:55:54.515Z</time>
      </trkpt>
      <trkpt lat="48.72884" lon="2.48339">
        <ele>96</ele>
        <time>2021-03-03T08:55:58.511Z</time>
      </trkpt>
      <trkpt lat="48.72888" lon="2.48346">
        <ele>96</ele>
        <time>2021-03-03T08:56:03.528Z</time>
      </trkpt>
      <trkpt lat="48.72891" lon="2.48352">
        <ele>95</ele>
        <time>2021-03-03T08:56:07.513Z</time>
      </trkpt>
      <trkpt lat="48.72893" lon="2.48357">
        <ele>95</ele>
        <time>2021-03-03T08:56:11.511Z</time>
      </trkpt>
      <trkpt lat="48.72897" lon="2.48364">
        <ele>95</ele>
        <time>2021-03-03T08:56:16.524Z</time>
      </trkpt>
      <trkpt lat="48.72899" lon="2.4837">
        <ele>95</ele>
        <time>2021-03-03T08:56:21.515Z</time>
      </trkpt>
      <trkpt lat="48.72901" lon="2.48378">
        <ele>94</ele>
        <time>2021-03-03T08:56:26.530Z</time>
      </trkpt>
      <trkpt lat="48.72903" lon="2.48383">
        <ele>94</ele>
        <time>2021-03-03T08:56:30.530Z</time>
      </trkpt>
      <trkpt lat="48.72906" lon="2.48393">
        <ele>95</ele>
        <time>2021-03-03T08:56:35.488Z</time>
      </trkpt>
      <trkpt lat="48.72908" lon="2.48403">
        <ele>94</ele>
        <time>2021-03-03T08:56:40.503Z</time>
      </trkpt>
      <trkpt lat="48.7291" lon="2.48414">
        <ele>94</ele>
        <time>2021-03-03T08:56:45.503Z</time>
      </trkpt>
      <trkpt lat="48.72914" lon="2.48428">
        <ele>94</ele>
        <time>2021-03-03T08:56:50.499Z</time>
      </trkpt>
      <trkpt lat="48.72915" lon="2.48437">
        <ele>94</ele>
        <time>2021-03-03T08:56:54.497Z</time>
      </trkpt>
      <trkpt lat="48.72918" lon="2.48444">
        <ele>94</ele>
        <time>2021-03-03T08:56:59.492Z</time>
      </trkpt>
      <trkpt lat="48.72922" lon="2.4845">
        <ele>94</ele>
        <time>2021-03-03T08:57:04.508Z</time>
      </trkpt>
      <trkpt lat="48.72925" lon="2.48458">
        <ele>94</ele>
        <time>2021-03-03T08:57:09.498Z</time>
      </trkpt>
      <trkpt lat="48.72929" lon="2.48467">
        <ele>93</ele>
        <time>2021-03-03T08:57:14.494Z</time>
      </trkpt>
      <trkpt lat="48.72932" lon="2.4847">
        <ele>95</ele>
        <time>2021-03-03T08:58:01.516Z</time>
      </trkpt>
      <trkpt lat="48.72935" lon="2.48476">
        <ele>95</ele>
        <time>2021-03-03T08:58:06.505Z</time>
      </trkpt>
      <trkpt lat="48.72937" lon="2.48481">
        <ele>95</ele>
        <time>2021-03-03T08:58:11.516Z</time>
      </trkpt>
      <trkpt lat="48.72939" lon="2.4849">
        <ele>94</ele>
        <time>2021-03-03T08:58:16.508Z</time>
      </trkpt>
      <trkpt lat="48.72942" lon="2.48497">
        <ele>94</ele>
        <time>2021-03-03T08:58:20.502Z</time>
      </trkpt>
      <trkpt lat="48.72945" lon="2.48503">
        <ele>94</ele>
        <time>2021-03-03T08:58:25.520Z</time>
      </trkpt>
      <trkpt lat="48.72947" lon="2.48512">
        <ele>94</ele>
        <time>2021-03-03T08:58:30.515Z</time>
      </trkpt>
      <trkpt lat="48.72949" lon="2.48519">
        <ele>93</ele>
        <time>2021-03-03T08:58:35.519Z</time>
      </trkpt>
      <trkpt lat="48.72951" lon="2.48523">
        <ele>93</ele>
        <time>2021-03-03T08:58:39.522Z</time>
      </trkpt>
      <trkpt lat="48.72954" lon="2.48532">
        <ele>93</ele>
        <time>2021-03-03T08:58:44.528Z</time>
      </trkpt>
      <trkpt lat="48.72956" lon="2.48539">
        <ele>93</ele>
        <time>2021-03-03T08:58:49.495Z</time>
      </trkpt>
      <trkpt lat="48.72957" lon="2.48545">
        <ele>93</ele>
        <time>2021-03-03T08:58:53.495Z</time>
      </trkpt>
      <trkpt lat="48.72959" lon="2.48553">
        <ele>93</ele>
        <time>2021-03-03T08:58:58.487Z</time>
      </trkpt>
      <trkpt lat="48.72961" lon="2.48563">
        <ele>93</ele>
        <time>2021-03-03T08:59:03.490Z</time>
      </trkpt>
      <trkpt lat="48.72963" lon="2.48571">
        <ele>94</ele>
        <time>2021-03-03T08:59:07.524Z</time>
      </trkpt>
      <trkpt lat="48.72967" lon="2.48579">
        <ele>94</ele>
        <time>2021-03-03T08:59:12.511Z</time>
      </trkpt>
      <trkpt lat="48.72968" lon="2.48586">
        <ele>94</ele>
        <time>2021-03-03T08:59:17.514Z</time>
      </trkpt>
      <trkpt lat="48.72971" lon="2.48595">
        <ele>94</ele>
        <time>2021-03-03T08:59:22.526Z</time>
      </trkpt>
      <trkpt lat="48.72973" lon="2.48603">
        <ele>94</ele>
        <time>2021-03-03T08:59:27.523Z</time>
      </trkpt>
      <trkpt lat="48.72975" lon="2.48611">
        <ele>94</ele>
        <time>2021-03-03T08:59:32.501Z</time>
      </trkpt>
      <trkpt lat="48.72977" lon="2.48617">
        <ele>94</ele>
        <time>2021-03-03T08:59:36.523Z</time>
      </trkpt>
      <trkpt lat="48.72978" lon="2.48628">
        <ele>95</ele>
        <time>2021-03-03T08:59:41.506Z</time>
      </trkpt>
      <trkpt lat="48.7298" lon="2.48634">
        <ele>95</ele>
        <time>2021-03-03T08:59:46.506Z</time>
      </trkpt>
      <trkpt lat="48.72983" lon="2.48645">
        <ele>95</ele>
        <time>2021-03-03T08:59:51.513Z</time>
      </trkpt>
      <trkpt lat="48.72984" lon="2.48651">
        <ele>95</ele>
        <time>2021-03-03T08:59:55.511Z</time>
      </trkpt>
      <trkpt lat="48.72985" lon="2.48656">
        <ele>95</ele>
        <time>2021-03-03T09:00:00.506Z</time>
      </trkpt>
      <trkpt lat="48.72987" lon="2.4867">
        <ele>94</ele>
        <time>2021-03-03T09:00:05.517Z</time>
      </trkpt>
      <trkpt lat="48.7299" lon="2.48678">
        <ele>94</ele>
        <time>2021-03-03T09:00:10.516Z</time>
      </trkpt>
      <trkpt lat="48.72995" lon="2.48686">
        <ele>95</ele>
        <time>2021-03-03T09:00:15.527Z</time>
      </trkpt>
      <trkpt lat="48.72997" lon="2.48694">
        <ele>95</ele>
        <time>2021-03-03T09:00:20.509Z</time>
      </trkpt>
      <trkpt lat="48.73002" lon="2.48705">
        <ele>95</ele>
        <time>2021-03-03T09:00:25.521Z</time>
      </trkpt>
      <trkpt lat="48.73007" lon="2.4871">
        <ele>95</ele>
        <time>2021-03-03T09:00:30.522Z</time>
      </trkpt>
      <trkpt lat="48.73008" lon="2.48717">
        <ele>95</ele>
        <time>2021-03-03T09:00:45.517Z</time>
      </trkpt>
      <trkpt lat="48.7301" lon="2.48726">
        <ele>95</ele>
        <time>2021-03-03T09:00:50.516Z</time>
      </trkpt>
      <trkpt lat="48.73013" lon="2.48735">
        <ele>95</ele>
        <time>2021-03-03T09:00:55.509Z</time>
      </trkpt>
      <trkpt lat="48.73016" lon="2.4874">
        <ele>95</ele>
        <time>2021-03-03T09:00:59.516Z</time>
      </trkpt>
      <trkpt lat="48.73018" lon="2.48747">
        <ele>95</ele>
        <time>2021-03-03T09:01:04.521Z</time>
      </trkpt>
      <trkpt lat="48.73022" lon="2.48752">
        <ele>95</ele>
        <time>2021-03-03T09:01:09.514Z</time>
      </trkpt>
      <trkpt lat="48.73023" lon="2.48757">
        <ele>95</ele>
        <time>2021-03-03T09:01:13.506Z</time>
      </trkpt>
      <trkpt lat="48.73025" lon="2.48763">
        <ele>95</ele>
        <time>2021-03-03T09:01:17.512Z</time>
      </trkpt>
      <trkpt lat="48.73027" lon="2.48771">
        <ele>96</ele>
        <time>2021-03-03T09:01:22.510Z</time>
      </trkpt>
      <trkpt lat="48.7303" lon="2.48778">
        <ele>96</ele>
        <time>2021-03-03T09:01:27.504Z</time>
      </trkpt>
      <trkpt lat="48.73033" lon="2.48786">
        <ele>96</ele>
        <time>2021-03-03T09:01:32.509Z</time>
      </trkpt>
      <trkpt lat="48.73036" lon="2.48793">
        <ele>97</ele>
        <time>2021-03-03T09:01:37.512Z</time>
      </trkpt>
      <trkpt lat="48.73039" lon="2.48798">
        <ele>97</ele>
        <time>2021-03-03T09:01:42.514Z</time>
      </trkpt>
      <trkpt lat="48.73041" lon="2.48805">
        <ele>97</ele>
        <time>2021-03-03T09:01:47.504Z</time>
      </trkpt>
      <trkpt lat="48.73043" lon="2.48811">
        <ele>95</ele>
        <time>2021-03-03T09:01:51.514Z</time>
      </trkpt>
      <trkpt lat="48.73047" lon="2.48816">
        <ele>95</ele>
        <time>2021-03-03T09:01:56.516Z</time>
      </trkpt>
      <trkpt lat="48.73051" lon="2.48824">
        <ele>95</ele>
        <time>2021-03-03T09:02:01.519Z</time>
      </trkpt>
      <trkpt lat="48.73053" lon="2.48829">
        <ele>95</ele>
        <time>2021-03-03T09:02:05.530Z</time>
      </trkpt>
      <trkpt lat="48.73055" lon="2.48834">
        <ele>95</ele>
        <time>2021-03-03T09:02:10.518Z</time>
      </trkpt>
      <trkpt lat="48.73059" lon="2.48841">
        <ele>95</ele>
        <time>2021-03-03T09:02:15.524Z</time>
      </trkpt>
      <trkpt lat="48.73061" lon="2.48847">
        <ele>95</ele>
        <time>2021-03-03T09:02:20.521Z</time>
      </trkpt>
      <trkpt lat="48.73062" lon="2.48851">
        <ele>95</ele>
        <time>2021-03-03T09:02:25.506Z</time>
      </trkpt>
      <trkpt lat="48.73062" lon="2.48853">
        <ele>95</ele>
        <time>2021-03-03T09:02:30.502Z</time>
      </trkpt>
      <trkpt lat="48.73065" lon="2.48852">
        <ele>95</ele>
        <time>2021-03-03T09:02:34.513Z</time>
      </trkpt>
      <trkpt lat="48.73068" lon="2.4885">
        <ele>95</ele>
        <time>2021-03-03T09:02:39.515Z</time>
      </trkpt>
      <trkpt lat="48.73073" lon="2.48849">
        <ele>94</ele>
        <time>2021-03-03T09:02:44.516Z</time>
      </trkpt>
      <trkpt lat="48.73077" lon="2.48847">
        <ele>93</ele>
        <time>2021-03-03T09:02:49.521Z</time>
      </trkpt>
      <trkpt lat="48.73082" lon="2.48841">
        <ele>93</ele>
        <time>2021-03-03T09:02:54.514Z</time>
      </trkpt>
      <trkpt lat="48.73089" lon="2.48836">
        <ele>93</ele>
        <time>2021-03-03T09:02:59.535Z</time>
      </trkpt>
      <trkpt lat="48.73095" lon="2.48833">
        <ele>93</ele>
        <time>2021-03-03T09:03:04.513Z</time>
      </trkpt>
      <trkpt lat="48.731" lon="2.48829">
        <ele>94</ele>
        <time>2021-03-03T09:03:09.512Z</time>
      </trkpt>
      <trkpt lat="48.73104" lon="2.48826">
        <ele>94</ele>
        <time>2021-03-03T09:03:14.511Z</time>
      </trkpt>
      <trkpt lat="48.73109" lon="2.4882">
        <ele>94</ele>
        <time>2021-03-03T09:03:19.520Z</time>
      </trkpt>
      <trkpt lat="48.73115" lon="2.48812">
        <ele>94</ele>
        <time>2021-03-03T09:03:24.512Z</time>
      </trkpt>
      <trkpt lat="48.73119" lon="2.48807">
        <ele>94</ele>
        <time>2021-03-03T09:03:28.501Z</time>
      </trkpt>
      <trkpt lat="48.73124" lon="2.48801">
        <ele>94</ele>
        <time>2021-03-03T09:03:33.519Z</time>
      </trkpt>
      <trkpt lat="48.73128" lon="2.48796">
        <ele>95</ele>
        <time>2021-03-03T09:03:38.516Z</time>
      </trkpt>
      <trkpt lat="48.73132" lon="2.48791">
        <ele>95</ele>
        <time>2021-03-03T09:03:42.511Z</time>
      </trkpt>
      <trkpt lat="48.73138" lon="2.48784">
        <ele>95</ele>
        <time>2021-03-03T09:03:47.506Z</time>
      </trkpt>
      <trkpt lat="48.73145" lon="2.4878">
        <ele>95</ele>
        <time>2021-03-03T09:03:51.494Z</time>
      </trkpt>
      <trkpt lat="48.73149" lon="2.48775">
        <ele>95</ele>
        <time>2021-03-03T09:03:56.507Z</time>
      </trkpt>
      <trkpt lat="48.73152" lon="2.48766">
        <ele>95</ele>
        <time>2021-03-03T09:04:01.512Z</time>
      </trkpt>
      <trkpt lat="48.73157" lon="2.48759">
        <ele>96</ele>
        <time>2021-03-03T09:04:06.492Z</time>
      </trkpt>
      <trkpt lat="48.73161" lon="2.48754">
        <ele>96</ele>
        <time>2021-03-03T09:04:10.497Z</time>
      </trkpt>
      <trkpt lat="48.73166" lon="2.48749">
        <ele>96</ele>
        <time>2021-03-03T09:04:15.516Z</time>
      </trkpt>
      <trkpt lat="48.73171" lon="2.48743">
        <ele>96</ele>
        <time>2021-03-03T09:04:20.514Z</time>
      </trkpt>
      <trkpt lat="48.73174" lon="2.48736">
        <ele>96</ele>
        <time>2021-03-03T09:04:25.512Z</time>
      </trkpt>
      <trkpt lat="48.73179" lon="2.48729">
        <ele>95</ele>
        <time>2021-03-03T09:04:30.522Z</time>
      </trkpt>
      <trkpt lat="48.73182" lon="2.48721">
        <ele>94</ele>
        <time>2021-03-03T09:04:35.519Z</time>
      </trkpt>
      <trkpt lat="48.73186" lon="2.48714">
        <ele>94</ele>
        <time>2021-03-03T09:04:40.520Z</time>
      </trkpt>
      <trkpt lat="48.73192" lon="2.48709">
        <ele>94</ele>
        <time>2021-03-03T09:04:45.507Z</time>
      </trkpt>
      <trkpt lat="48.73196" lon="2.48706">
        <ele>93</ele>
        <time>2021-03-03T09:04:50.515Z</time>
      </trkpt>
      <trkpt lat="48.73199" lon="2.487">
        <ele>93</ele>
        <time>2021-03-03T09:04:55.515Z</time>
      </trkpt>
      <trkpt lat="48.73203" lon="2.48695">
        <ele>93</ele>
        <time>2021-03-03T09:05:00.513Z</time>
      </trkpt>
      <trkpt lat="48.73207" lon="2.48691">
        <ele>93</ele>
        <time>2021-03-03T09:05:04.512Z</time>
      </trkpt>
      <trkpt lat="48.73211" lon="2.48689">
        <ele>93</ele>
        <time>2021-03-03T09:05:09.516Z</time>
      </trkpt>
      <trkpt lat="48.73215" lon="2.48689">
        <ele>93</ele>
        <time>2021-03-03T09:05:14.512Z</time>
      </trkpt>
      <trkpt lat="48.7322" lon="2.48686">
        <ele>93</ele>
        <time>2021-03-03T09:05:19.513Z</time>
      </trkpt>
      <trkpt lat="48.73225" lon="2.48684">
        <ele>93</ele>
        <time>2021-03-03T09:05:24.512Z</time>
      </trkpt>
      <trkpt lat="48.73231" lon="2.48681">
        <ele>93</ele>
        <time>2021-03-03T09:05:29.525Z</time>
      </trkpt>
      <trkpt lat="48.73238" lon="2.48676">
        <ele>94</ele>
        <time>2021-03-03T09:05:34.502Z</time>
      </trkpt>
      <trkpt lat="48.73247" lon="2.48678">
        <ele>94</ele>
        <time>2021-03-03T09:05:39.562Z</time>
      </trkpt>
      <trkpt lat="48.73253" lon="2.48683">
        <ele>93</ele>
        <time>2021-03-03T09:05:44.521Z</time>
      </trkpt>
      <trkpt lat="48.73255" lon="2.4869">
        <ele>93</ele>
        <time>2021-03-03T09:05:49.513Z</time>
      </trkpt>
      <trkpt lat="48.73256" lon="2.48695">
        <ele>93</ele>
        <time>2021-03-03T09:05:53.528Z</time>
      </trkpt>
      <trkpt lat="48.73259" lon="2.48701">
        <ele>93</ele>
        <time>2021-03-03T09:05:58.505Z</time>
      </trkpt>
      <trkpt lat="48.73262" lon="2.48708">
        <ele>93</ele>
        <time>2021-03-03T09:06:02.517Z</time>
      </trkpt>
      <trkpt lat="48.73267" lon="2.48717">
        <ele>95</ele>
        <time>2021-03-03T09:06:07.524Z</time>
      </trkpt>
      <trkpt lat="48.7327" lon="2.48723">
        <ele>95</ele>
        <time>2021-03-03T09:06:12.502Z</time>
      </trkpt>
      <trkpt lat="48.73273" lon="2.4873">
        <ele>95</ele>
        <time>2021-03-03T09:06:17.498Z</time>
      </trkpt>
      <trkpt lat="48.73274" lon="2.48735">
        <ele>95</ele>
        <time>2021-03-03T09:06:21.495Z</time>
      </trkpt>
      <trkpt lat="48.73275" lon="2.48742">
        <ele>95</ele>
        <time>2021-03-03T09:06:26.497Z</time>
      </trkpt>
      <trkpt lat="48.73276" lon="2.48748">
        <ele>95</ele>
        <time>2021-03-03T09:06:30.510Z</time>
      </trkpt>
      <trkpt lat="48.73279" lon="2.48755">
        <ele>95</ele>
        <time>2021-03-03T09:06:35.497Z</time>
      </trkpt>
      <trkpt lat="48.7328" lon="2.48763">
        <ele>95</ele>
        <time>2021-03-03T09:06:40.499Z</time>
      </trkpt>
      <trkpt lat="48.73283" lon="2.48771">
        <ele>96</ele>
        <time>2021-03-03T09:06:45.498Z</time>
      </trkpt>
      <trkpt lat="48.73283" lon="2.4878">
        <ele>96</ele>
        <time>2021-03-03T09:06:50.506Z</time>
      </trkpt>
      <trkpt lat="48.73285" lon="2.48788">
        <ele>96</ele>
        <time>2021-03-03T09:06:55.519Z</time>
      </trkpt>
      <trkpt lat="48.73288" lon="2.48797">
        <ele>96</ele>
        <time>2021-03-03T09:07:00.518Z</time>
      </trkpt>
      <trkpt lat="48.7329" lon="2.48805">
        <ele>96</ele>
        <time>2021-03-03T09:07:05.516Z</time>
      </trkpt>
      <trkpt lat="48.73292" lon="2.4881">
        <ele>97</ele>
        <time>2021-03-03T09:07:10.520Z</time>
      </trkpt>
      <trkpt lat="48.73293" lon="2.48817">
        <ele>97</ele>
        <time>2021-03-03T09:07:15.513Z</time>
      </trkpt>
      <trkpt lat="48.73296" lon="2.48827">
        <ele>96</ele>
        <time>2021-03-03T09:07:20.515Z</time>
      </trkpt>
      <trkpt lat="48.73298" lon="2.48834">
        <ele>96</ele>
        <time>2021-03-03T09:07:25.511Z</time>
      </trkpt>
      <trkpt lat="48.73299" lon="2.48842">
        <ele>96</ele>
        <time>2021-03-03T09:07:30.510Z</time>
      </trkpt>
      <trkpt lat="48.733" lon="2.48851">
        <ele>96</ele>
        <time>2021-03-03T09:07:35.511Z</time>
      </trkpt>
      <trkpt lat="48.73302" lon="2.48861">
        <ele>96</ele>
        <time>2021-03-03T09:07:40.511Z</time>
      </trkpt>
      <trkpt lat="48.73303" lon="2.48868">
        <ele>96</ele>
        <time>2021-03-03T09:07:44.512Z</time>
      </trkpt>
      <trkpt lat="48.73303" lon="2.48876">
        <ele>95</ele>
        <time>2021-03-03T09:07:49.512Z</time>
      </trkpt>
      <trkpt lat="48.73304" lon="2.48881">
        <ele>95</ele>
        <time>2021-03-03T09:07:53.513Z</time>
      </trkpt>
      <trkpt lat="48.73307" lon="2.48889">
        <ele>95</ele>
        <time>2021-03-03T09:07:58.516Z</time>
      </trkpt>
      <trkpt lat="48.73308" lon="2.48897">
        <ele>95</ele>
        <time>2021-03-03T09:08:03.512Z</time>
      </trkpt>
      <trkpt lat="48.73309" lon="2.48904">
        <ele>94</ele>
        <time>2021-03-03T09:08:07.517Z</time>
      </trkpt>
      <trkpt lat="48.7331" lon="2.48912">
        <ele>94</ele>
        <time>2021-03-03T09:08:12.516Z</time>
      </trkpt>
      <trkpt lat="48.7331" lon="2.48923">
        <ele>94</ele>
        <time>2021-03-03T09:08:17.515Z</time>
      </trkpt>
      <trkpt lat="48.73311" lon="2.48932">
        <ele>93</ele>
        <time>2021-03-03T09:08:22.503Z</time>
      </trkpt>
      <trkpt lat="48.73312" lon="2.48938">
        <ele>93</ele>
        <time>2021-03-03T09:08:26.512Z</time>
      </trkpt>
      <trkpt lat="48.73313" lon="2.48947">
        <ele>93</ele>
        <time>2021-03-03T09:08:31.513Z</time>
      </trkpt>
      <trkpt lat="48.73314" lon="2.48955">
        <ele>93</ele>
        <time>2021-03-03T09:08:36.510Z</time>
      </trkpt>
      <trkpt lat="48.73315" lon="2.48965">
        <ele>93</ele>
        <time>2021-03-03T09:08:41.515Z</time>
      </trkpt>
      <trkpt lat="48.73316" lon="2.48969">
        <ele>93</ele>
        <time>2021-03-03T09:08:45.516Z</time>
      </trkpt>
      <trkpt lat="48.73317" lon="2.48978">
        <ele>93</ele>
        <time>2021-03-03T09:08:50.528Z</time>
      </trkpt>
      <trkpt lat="48.73319" lon="2.48987">
        <ele>93</ele>
        <time>2021-03-03T09:08:55.512Z</time>
      </trkpt>
      <trkpt lat="48.7332" lon="2.48995">
        <ele>94</ele>
        <time>2021-03-03T09:08:59.515Z</time>
      </trkpt>
      <trkpt lat="48.7332" lon="2.49004">
        <ele>94</ele>
        <time>2021-03-03T09:09:04.498Z</time>
      </trkpt>
      <trkpt lat="48.73322" lon="2.49015">
        <ele>93</ele>
        <time>2021-03-03T09:09:09.512Z</time>
      </trkpt>
      <trkpt lat="48.73323" lon="2.49024">
        <ele>93</ele>
        <time>2021-03-03T09:09:14.516Z</time>
      </trkpt>
      <trkpt lat="48.73323" lon="2.49032">
        <ele>93</ele>
        <time>2021-03-03T09:09:19.514Z</time>
      </trkpt>
      <trkpt lat="48.73323" lon="2.49038">
        <ele>93</ele>
        <time>2021-03-03T09:09:23.515Z</time>
      </trkpt>
      <trkpt lat="48.73326" lon="2.49049">
        <ele>92</ele>
        <time>2021-03-03T09:09:28.513Z</time>
      </trkpt>
      <trkpt lat="48.73328" lon="2.49059">
        <ele>92</ele>
        <time>2021-03-03T09:09:33.503Z</time>
      </trkpt>
      <trkpt lat="48.73327" lon="2.49065">
        <ele>92</ele>
        <time>2021-03-03T09:09:37.527Z</time>
      </trkpt>
      <trkpt lat="48.7333" lon="2.49074">
        <ele>93</ele>
        <time>2021-03-03T09:09:42.522Z</time>
      </trkpt>
      <trkpt lat="48.73333" lon="2.49085">
        <ele>93</ele>
        <time>2021-03-03T09:09:47.510Z</time>
      </trkpt>
      <trkpt lat="48.73335" lon="2.49091">
        <ele>93</ele>
        <time>2021-03-03T09:09:51.517Z</time>
      </trkpt>
      <trkpt lat="48.73336" lon="2.49101">
        <ele>95</ele>
        <time>2021-03-03T09:09:56.508Z</time>
      </trkpt>
      <trkpt lat="48.73338" lon="2.49111">
        <ele>95</ele>
        <time>2021-03-03T09:10:01.514Z</time>
      </trkpt>
      <trkpt lat="48.7334" lon="2.49118">
        <ele>95</ele>
        <time>2021-03-03T09:10:06.511Z</time>
      </trkpt>
      <trkpt lat="48.7334" lon="2.49127">
        <ele>95</ele>
        <time>2021-03-03T09:10:11.514Z</time>
      </trkpt>
      <trkpt lat="48.73341" lon="2.49136">
        <ele>95</ele>
        <time>2021-03-03T09:10:16.515Z</time>
      </trkpt>
      <trkpt lat="48.73343" lon="2.49144">
        <ele>95</ele>
        <time>2021-03-03T09:10:21.524Z</time>
      </trkpt>
      <trkpt lat="48.73345" lon="2.49151">
        <ele>95</ele>
        <time>2021-03-03T09:10:26.508Z</time>
      </trkpt>
      <trkpt lat="48.73347" lon="2.49158">
        <ele>96</ele>
        <time>2021-03-03T09:10:31.507Z</time>
      </trkpt>
      <trkpt lat="48.73347" lon="2.49167">
        <ele>96</ele>
        <time>2021-03-03T09:10:36.519Z</time>
      </trkpt>
      <trkpt lat="48.73347" lon="2.49176">
        <ele>96</ele>
        <time>2021-03-03T09:10:41.510Z</time>
      </trkpt>
      <trkpt lat="48.73348" lon="2.49186">
        <ele>96</ele>
        <time>2021-03-03T09:10:46.514Z</time>
      </trkpt>
      <trkpt lat="48.7335" lon="2.49194">
        <ele>96</ele>
        <time>2021-03-03T09:10:50.511Z</time>
      </trkpt>
      <trkpt lat="48.73354" lon="2.49201">
        <ele>96</ele>
        <time>2021-03-03T09:10:55.518Z</time>
      </trkpt>
      <trkpt lat="48.73355" lon="2.4921">
        <ele>97</ele>
        <time>2021-03-03T09:11:00.515Z</time>
      </trkpt>
      <trkpt lat="48.73355" lon="2.4922">
        <ele>97</ele>
        <time>2021-03-03T09:11:05.527Z</time>
      </trkpt>
      <trkpt lat="48.73355" lon="2.4923">
        <ele>97</ele>
        <time>2021-03-03T09:11:10.520Z</time>
      </trkpt>
      <trkpt lat="48.73356" lon="2.49238">
        <ele>98</ele>
        <time>2021-03-03T09:11:15.518Z</time>
      </trkpt>
      <trkpt lat="48.73359" lon="2.49246">
        <ele>98</ele>
        <time>2021-03-03T09:11:19.521Z</time>
      </trkpt>
      <trkpt lat="48.73361" lon="2.49255">
        <ele>98</ele>
        <time>2021-03-03T09:11:24.509Z</time>
      </trkpt>
      <trkpt lat="48.73362" lon="2.49259">
        <ele>98</ele>
        <time>2021-03-03T09:11:28.514Z</time>
      </trkpt>
      <trkpt lat="48.73363" lon="2.49267">
        <ele>98</ele>
        <time>2021-03-03T09:11:33.511Z</time>
      </trkpt>
      <trkpt lat="48.73365" lon="2.49276">
        <ele>98</ele>
        <time>2021-03-03T09:11:38.513Z</time>
      </trkpt>
      <trkpt lat="48.73366" lon="2.49283">
        <ele>98</ele>
        <time>2021-03-03T09:11:42.513Z</time>
      </trkpt>
      <trkpt lat="48.73369" lon="2.49294">
        <ele>98</ele>
        <time>2021-03-03T09:11:47.520Z</time>
      </trkpt>
      <trkpt lat="48.73371" lon="2.49302">
        <ele>98</ele>
        <time>2021-03-03T09:11:52.514Z</time>
      </trkpt>
      <trkpt lat="48.73372" lon="2.4931">
        <ele>98</ele>
        <time>2021-03-03T09:11:57.506Z</time>
      </trkpt>
      <trkpt lat="48.73371" lon="2.49318">
        <ele>98</ele>
        <time>2021-03-03T09:12:02.506Z</time>
      </trkpt>
      <trkpt lat="48.73372" lon="2.49325">
        <ele>97</ele>
        <time>2021-03-03T09:12:06.512Z</time>
      </trkpt>
      <trkpt lat="48.73375" lon="2.49333">
        <ele>97</ele>
        <time>2021-03-03T09:12:11.515Z</time>
      </trkpt>
      <trkpt lat="48.73377" lon="2.49342">
        <ele>96</ele>
        <time>2021-03-03T09:12:16.507Z</time>
      </trkpt>
      <trkpt lat="48.73379" lon="2.4935">
        <ele>96</ele>
        <time>2021-03-03T09:12:21.505Z</time>
      </trkpt>
      <trkpt lat="48.73386" lon="2.4936">
        <ele>96</ele>
        <time>2021-03-03T09:18:59.495Z</time>
      </trkpt>
      <trkpt lat="48.73388" lon="2.49359">
        <ele>96</ele>
        <time>2021-03-03T09:19:04.489Z</time>
      </trkpt>
      <trkpt lat="48.7339" lon="2.49359">
        <ele>96</ele>
        <time>2021-03-03T09:19:09.494Z</time>
      </trkpt>
      <trkpt lat="48.73394" lon="2.49358">
        <ele>96</ele>
        <time>2021-03-03T09:19:14.492Z</time>
      </trkpt>
      <trkpt lat="48.73398" lon="2.49356">
        <ele>96</ele>
        <time>2021-03-03T09:19:19.484Z</time>
      </trkpt>
      <trkpt lat="48.734" lon="2.49356">
        <ele>96</ele>
        <time>2021-03-03T09:19:23.492Z</time>
      </trkpt>
      <trkpt lat="48.73405" lon="2.49357">
        <ele>92</ele>
        <time>2021-03-03T09:19:28.504Z</time>
      </trkpt>
      <trkpt lat="48.7341" lon="2.49358">
        <ele>92</ele>
        <time>2021-03-03T09:19:33.488Z</time>
      </trkpt>
      <trkpt lat="48.73413" lon="2.49362">
        <ele>92</ele>
        <time>2021-03-03T09:19:37.481Z</time>
      </trkpt>
      <trkpt lat="48.73413" lon="2.49367">
        <ele>92</ele>
        <time>2021-03-03T09:19:42.485Z</time>
      </trkpt>
      <trkpt lat="48.73414" lon="2.49374">
        <ele>92</ele>
        <time>2021-03-03T09:19:47.501Z</time>
      </trkpt>
      <trkpt lat="48.73416" lon="2.49382">
        <ele>92</ele>
        <time>2021-03-03T09:19:51.499Z</time>
      </trkpt>
      <trkpt lat="48.73416" lon="2.49392">
        <ele>92</ele>
        <time>2021-03-03T09:19:56.492Z</time>
      </trkpt>
      <trkpt lat="48.73414" lon="2.49401">
        <ele>92</ele>
        <time>2021-03-03T09:20:01.488Z</time>
      </trkpt>
      <trkpt lat="48.73413" lon="2.49407">
        <ele>92</ele>
        <time>2021-03-03T09:20:05.497Z</time>
      </trkpt>
      <trkpt lat="48.73413" lon="2.49416">
        <ele>92</ele>
        <time>2021-03-03T09:20:10.492Z</time>
      </trkpt>
      <trkpt lat="48.73412" lon="2.49424">
        <ele>92</ele>
        <time>2021-03-03T09:20:15.492Z</time>
      </trkpt>
      <trkpt lat="48.73409" lon="2.49431">
        <ele>91</ele>
        <time>2021-03-03T09:20:20.490Z</time>
      </trkpt>
      <trkpt lat="48.73409" lon="2.4944">
        <ele>91</ele>
        <time>2021-03-03T09:20:25.493Z</time>
      </trkpt>
      <trkpt lat="48.73408" lon="2.4945">
        <ele>91</ele>
        <time>2021-03-03T09:20:30.493Z</time>
      </trkpt>
      <trkpt lat="48.73406" lon="2.49461">
        <ele>91</ele>
        <time>2021-03-03T09:20:35.491Z</time>
      </trkpt>
      <trkpt lat="48.73405" lon="2.49466">
        <ele>91</ele>
        <time>2021-03-03T09:20:39.488Z</time>
      </trkpt>
      <trkpt lat="48.73404" lon="2.49476">
        <ele>91</ele>
        <time>2021-03-03T09:20:44.503Z</time>
      </trkpt>
      <trkpt lat="48.73403" lon="2.49484">
        <ele>91</ele>
        <time>2021-03-03T09:20:49.494Z</time>
      </trkpt>
      <trkpt lat="48.73401" lon="2.49494">
        <ele>93</ele>
        <time>2021-03-03T09:20:54.491Z</time>
      </trkpt>
      <trkpt lat="48.73401" lon="2.49505">
        <ele>93</ele>
        <time>2021-03-03T09:20:59.497Z</time>
      </trkpt>
      <trkpt lat="48.73399" lon="2.49511">
        <ele>93</ele>
        <time>2021-03-03T09:21:03.493Z</time>
      </trkpt>
      <trkpt lat="48.73399" lon="2.49521">
        <ele>94</ele>
        <time>2021-03-03T09:21:08.500Z</time>
      </trkpt>
      <trkpt lat="48.73398" lon="2.4953">
        <ele>94</ele>
        <time>2021-03-03T09:21:13.498Z</time>
      </trkpt>
      <trkpt lat="48.73396" lon="2.49543">
        <ele>93</ele>
        <time>2021-03-03T09:21:18.498Z</time>
      </trkpt>
      <trkpt lat="48.73395" lon="2.49552">
        <ele>93</ele>
        <time>2021-03-03T09:21:23.500Z</time>
      </trkpt>
      <trkpt lat="48.73393" lon="2.49563">
        <ele>93</ele>
        <time>2021-03-03T09:21:28.499Z</time>
      </trkpt>
      <trkpt lat="48.73391" lon="2.49573">
        <ele>92</ele>
        <time>2021-03-03T09:21:32.498Z</time>
      </trkpt>
      <trkpt lat="48.73389" lon="2.49584">
        <ele>92</ele>
        <time>2021-03-03T09:21:37.494Z</time>
      </trkpt>
      <trkpt lat="48.73387" lon="2.49593">
        <ele>92</ele>
        <time>2021-03-03T09:21:42.505Z</time>
      </trkpt>
      <trkpt lat="48.73386" lon="2.49603">
        <ele>92</ele>
        <time>2021-03-03T09:21:47.495Z</time>
      </trkpt>
      <trkpt lat="48.73385" lon="2.49609">
        <ele>92</ele>
        <time>2021-03-03T09:21:51.489Z</time>
      </trkpt>
      <trkpt lat="48.73386" lon="2.49619">
        <ele>92</ele>
        <time>2021-03-03T09:21:56.491Z</time>
      </trkpt>
      <trkpt lat="48.73387" lon="2.49631">
        <ele>93</ele>
        <time>2021-03-03T09:22:01.499Z</time>
      </trkpt>
      <trkpt lat="48.7339" lon="2.49641">
        <ele>93</ele>
        <time>2021-03-03T09:22:06.487Z</time>
      </trkpt>
      <trkpt lat="48.73389" lon="2.49649">
        <ele>93</ele>
        <time>2021-03-03T09:22:11.492Z</time>
      </trkpt>
      <trkpt lat="48.7339" lon="2.49659">
        <ele>94</ele>
        <time>2021-03-03T09:22:16.492Z</time>
      </trkpt>
      <trkpt lat="48.73391" lon="2.49666">
        <ele>94</ele>
        <time>2021-03-03T09:22:20.492Z</time>
      </trkpt>
      <trkpt lat="48.73397" lon="2.49669">
        <ele>94</ele>
        <time>2021-03-03T09:22:25.490Z</time>
      </trkpt>
      <trkpt lat="48.73402" lon="2.49669">
        <ele>94</ele>
        <time>2021-03-03T09:22:30.496Z</time>
      </trkpt>
      <trkpt lat="48.73407" lon="2.49673">
        <ele>90</ele>
        <time>2021-03-03T09:22:35.500Z</time>
      </trkpt>
      <trkpt lat="48.73409" lon="2.4968">
        <ele>90</ele>
        <time>2021-03-03T09:22:40.482Z</time>
      </trkpt>
      <trkpt lat="48.73409" lon="2.49687">
        <ele>90</ele>
        <time>2021-03-03T09:22:45.477Z</time>
      </trkpt>
      <trkpt lat="48.73408" lon="2.4969">
        <ele>90</ele>
        <time>2021-03-03T09:22:49.535Z</time>
      </trkpt>
      <trkpt lat="48.73406" lon="2.49694">
        <ele>90</ele>
        <time>2021-03-03T09:22:54.505Z</time>
      </trkpt>
      <trkpt lat="48.73408" lon="2.49705">
        <ele>90</ele>
        <time>2021-03-03T09:22:59.504Z</time>
      </trkpt>
      <trkpt lat="48.73408" lon="2.49714">
        <ele>89</ele>
        <time>2021-03-03T09:23:04.498Z</time>
      </trkpt>
      <trkpt lat="48.73408" lon="2.4972">
        <ele>89</ele>
        <time>2021-03-03T09:23:08.493Z</time>
      </trkpt>
      <trkpt lat="48.73406" lon="2.49726">
        <ele>89</ele>
        <time>2021-03-03T09:23:13.495Z</time>
      </trkpt>
      <trkpt lat="48.73404" lon="2.49734">
        <ele>89</ele>
        <time>2021-03-03T09:23:18.515Z</time>
      </trkpt>
      <trkpt lat="48.73403" lon="2.49741">
        <ele>89</ele>
        <time>2021-03-03T09:23:23.511Z</time>
      </trkpt>
      <trkpt lat="48.73402" lon="2.49748">
        <ele>92</ele>
        <time>2021-03-03T09:23:27.516Z</time>
      </trkpt>
      <trkpt lat="48.73399" lon="2.49757">
        <ele>92</ele>
        <time>2021-03-03T09:23:32.506Z</time>
      </trkpt>
      <trkpt lat="48.73397" lon="2.49765">
        <ele>91</ele>
        <time>2021-03-03T09:23:37.512Z</time>
      </trkpt>
      <trkpt lat="48.73395" lon="2.49771">
        <ele>91</ele>
        <time>2021-03-03T09:23:41.510Z</time>
      </trkpt>
      <trkpt lat="48.73395" lon="2.49779">
        <ele>91</ele>
        <time>2021-03-03T09:23:46.510Z</time>
      </trkpt>
      <trkpt lat="48.73395" lon="2.49789">
        <ele>91</ele>
        <time>2021-03-03T09:23:51.510Z</time>
      </trkpt>
      <trkpt lat="48.73395" lon="2.49797">
        <ele>92</ele>
        <time>2021-03-03T09:23:55.510Z</time>
      </trkpt>
      <trkpt lat="48.73393" lon="2.49805">
        <ele>92</ele>
        <time>2021-03-03T09:24:00.504Z</time>
      </trkpt>
      <trkpt lat="48.73392" lon="2.49812">
        <ele>92</ele>
        <time>2021-03-03T09:24:05.504Z</time>
      </trkpt>
      <trkpt lat="48.73391" lon="2.49819">
        <ele>92</ele>
        <time>2021-03-03T09:24:10.499Z</time>
      </trkpt>
      <trkpt lat="48.7339" lon="2.49826">
        <ele>92</ele>
        <time>2021-03-03T09:24:14.509Z</time>
      </trkpt>
      <trkpt lat="48.73388" lon="2.49835">
        <ele>92</ele>
        <time>2021-03-03T09:24:19.517Z</time>
      </trkpt>
      <trkpt lat="48.73386" lon="2.49844">
        <ele>92</ele>
        <time>2021-03-03T09:24:24.504Z</time>
      </trkpt>
      <trkpt lat="48.73387" lon="2.49852">
        <ele>91</ele>
        <time>2021-03-03T09:24:29.506Z</time>
      </trkpt>
      <trkpt lat="48.73387" lon="2.49862">
        <ele>91</ele>
        <time>2021-03-03T09:24:34.497Z</time>
      </trkpt>
      <trkpt lat="48.73388" lon="2.49871">
        <ele>91</ele>
        <time>2021-03-03T09:24:39.507Z</time>
      </trkpt>
      <trkpt lat="48.73388" lon="2.4988">
        <ele>90</ele>
        <time>2021-03-03T09:24:44.509Z</time>
      </trkpt>
      <trkpt lat="48.73387" lon="2.49889">
        <ele>90</ele>
        <time>2021-03-03T09:24:49.502Z</time>
      </trkpt>
      <trkpt lat="48.73386" lon="2.49896">
        <ele>90</ele>
        <time>2021-03-03T09:24:53.505Z</time>
      </trkpt>
      <trkpt lat="48.73384" lon="2.49906">
        <ele>90</ele>
        <time>2021-03-03T09:24:58.498Z</time>
      </trkpt>
      <trkpt lat="48.73381" lon="2.49914">
        <ele>90</ele>
        <time>2021-03-03T09:25:03.502Z</time>
      </trkpt>
      <trkpt lat="48.73381" lon="2.49924">
        <ele>90</ele>
        <time>2021-03-03T09:25:08.501Z</time>
      </trkpt>
      <trkpt lat="48.73381" lon="2.49935">
        <ele>90</ele>
        <time>2021-03-03T09:25:13.504Z</time>
      </trkpt>
      <trkpt lat="48.7338" lon="2.49942">
        <ele>90</ele>
        <time>2021-03-03T09:25:17.504Z</time>
      </trkpt>
      <trkpt lat="48.73379" lon="2.49952">
        <ele>90</ele>
        <time>2021-03-03T09:25:22.501Z</time>
      </trkpt>
      <trkpt lat="48.73379" lon="2.49961">
        <ele>90</ele>
        <time>2021-03-03T09:25:27.505Z</time>
      </trkpt>
      <trkpt lat="48.73379" lon="2.49969">
        <ele>90</ele>
        <time>2021-03-03T09:25:31.500Z</time>
      </trkpt>
      <trkpt lat="48.73379" lon="2.49976">
        <ele>90</ele>
        <time>2021-03-03T09:25:36.479Z</time>
      </trkpt>
      <trkpt lat="48.7338" lon="2.49986">
        <ele>89</ele>
        <time>2021-03-03T09:25:41.501Z</time>
      </trkpt>
      <trkpt lat="48.73381" lon="2.49993">
        <ele>89</ele>
        <time>2021-03-03T09:25:46.502Z</time>
      </trkpt>
      <trkpt lat="48.73384" lon="2.5">
        <ele>89</ele>
        <time>2021-03-03T09:25:51.511Z</time>
      </trkpt>
      <trkpt lat="48.73386" lon="2.50009">
        <ele>89</ele>
        <time>2021-03-03T09:25:56.493Z</time>
      </trkpt>
      <trkpt lat="48.73387" lon="2.50017">
        <ele>88</ele>
        <time>2021-03-03T09:26:00.499Z</time>
      </trkpt>
      <trkpt lat="48.73389" lon="2.50025">
        <ele>88</ele>
        <time>2021-03-03T09:26:05.509Z</time>
      </trkpt>
      <trkpt lat="48.7339" lon="2.50032">
        <ele>88</ele>
        <time>2021-03-03T09:26:09.502Z</time>
      </trkpt>
      <trkpt lat="48.73388" lon="2.50042">
        <ele>88</ele>
        <time>2021-03-03T09:26:14.501Z</time>
      </trkpt>
      <trkpt lat="48.73387" lon="2.50051">
        <ele>88</ele>
        <time>2021-03-03T09:26:19.486Z</time>
      </trkpt>
      <trkpt lat="48.73387" lon="2.50058">
        <ele>88</ele>
        <time>2021-03-03T09:26:23.502Z</time>
      </trkpt>
      <trkpt lat="48.73385" lon="2.50064">
        <ele>88</ele>
        <time>2021-03-03T09:26:28.504Z</time>
      </trkpt>
      <trkpt lat="48.73382" lon="2.50071">
        <ele>89</ele>
        <time>2021-03-03T09:26:33.504Z</time>
      </trkpt>
      <trkpt lat="48.7338" lon="2.50081">
        <ele>89</ele>
        <time>2021-03-03T09:26:38.505Z</time>
      </trkpt>
      <trkpt lat="48.7338" lon="2.50091">
        <ele>89</ele>
        <time>2021-03-03T09:26:43.514Z</time>
      </trkpt>
      <trkpt lat="48.73378" lon="2.50099">
        <ele>90</ele>
        <time>2021-03-03T09:26:48.513Z</time>
      </trkpt>
      <trkpt lat="48.73376" lon="2.50109">
        <ele>90</ele>
        <time>2021-03-03T09:26:53.504Z</time>
      </trkpt>
      <trkpt lat="48.73376" lon="2.50117">
        <ele>90</ele>
        <time>2021-03-03T09:26:58.498Z</time>
      </trkpt>
      <trkpt lat="48.73376" lon="2.50126">
        <ele>91</ele>
        <time>2021-03-03T09:27:03.509Z</time>
      </trkpt>
      <trkpt lat="48.73375" lon="2.50133">
        <ele>93</ele>
        <time>2021-03-03T09:27:07.508Z</time>
      </trkpt>
      <trkpt lat="48.73373" lon="2.50143">
        <ele>93</ele>
        <time>2021-03-03T09:27:12.506Z</time>
      </trkpt>
      <trkpt lat="48.73371" lon="2.50153">
        <ele>93</ele>
        <time>2021-03-03T09:27:17.501Z</time>
      </trkpt>
      <trkpt lat="48.7337" lon="2.50159">
        <ele>94</ele>
        <time>2021-03-03T09:27:22.507Z</time>
      </trkpt>
      <trkpt lat="48.73368" lon="2.50167">
        <ele>94</ele>
        <time>2021-03-03T09:27:27.514Z</time>
      </trkpt>
      <trkpt lat="48.73368" lon="2.50174">
        <ele>94</ele>
        <time>2021-03-03T09:27:31.508Z</time>
      </trkpt>
      <trkpt lat="48.73367" lon="2.50183">
        <ele>94</ele>
        <time>2021-03-03T09:27:36.505Z</time>
      </trkpt>
      <trkpt lat="48.73367" lon="2.50191">
        <ele>94</ele>
        <time>2021-03-03T09:27:41.503Z</time>
      </trkpt>
      <trkpt lat="48.73367" lon="2.50198">
        <ele>94</ele>
        <time>2021-03-03T09:27:45.509Z</time>
      </trkpt>
      <trkpt lat="48.73365" lon="2.50203">
        <ele>94</ele>
        <time>2021-03-03T09:27:50.503Z</time>
      </trkpt>
      <trkpt lat="48.73362" lon="2.50214">
        <ele>93</ele>
        <time>2021-03-03T09:27:55.495Z</time>
      </trkpt>
      <trkpt lat="48.73361" lon="2.50222">
        <ele>93</ele>
        <time>2021-03-03T09:27:59.503Z</time>
      </trkpt>
      <trkpt lat="48.73361" lon="2.5023">
        <ele>93</ele>
        <time>2021-03-03T09:28:04.504Z</time>
      </trkpt>
      <trkpt lat="48.73361" lon="2.50239">
        <ele>92</ele>
        <time>2021-03-03T09:28:09.499Z</time>
      </trkpt>
      <trkpt lat="48.73361" lon="2.50245">
        <ele>92</ele>
        <time>2021-03-03T09:28:13.509Z</time>
      </trkpt>
      <trkpt lat="48.73362" lon="2.50254">
        <ele>92</ele>
        <time>2021-03-03T09:28:18.509Z</time>
      </trkpt>
      <trkpt lat="48.73361" lon="2.5026">
        <ele>92</ele>
        <time>2021-03-03T09:28:22.505Z</time>
      </trkpt>
      <trkpt lat="48.7336" lon="2.50271">
        <ele>93</ele>
        <time>2021-03-03T09:28:27.502Z</time>
      </trkpt>
      <trkpt lat="48.73361" lon="2.50282">
        <ele>93</ele>
        <time>2021-03-03T09:28:32.510Z</time>
      </trkpt>
      <trkpt lat="48.7336" lon="2.50292">
        <ele>93</ele>
        <time>2021-03-03T09:28:37.508Z</time>
      </trkpt>
      <trkpt lat="48.73358" lon="2.50299">
        <ele>93</ele>
        <time>2021-03-03T09:28:42.508Z</time>
      </trkpt>
      <trkpt lat="48.73355" lon="2.50303">
        <ele>93</ele>
        <time>2021-03-03T09:28:46.510Z</time>
      </trkpt>
      <trkpt lat="48.73352" lon="2.50311">
        <ele>93</ele>
        <time>2021-03-03T09:28:51.503Z</time>
      </trkpt>
      <trkpt lat="48.73355" lon="2.50317">
        <ele>93</ele>
        <time>2021-03-03T09:28:56.510Z</time>
      </trkpt>
      <trkpt lat="48.73357" lon="2.50317">
        <ele>93</ele>
        <time>2021-03-03T09:29:01.512Z</time>
      </trkpt>
      <trkpt lat="48.73359" lon="2.50316">
        <ele>93</ele>
        <time>2021-03-03T09:29:06.503Z</time>
      </trkpt>
      <trkpt lat="48.73363" lon="2.50316">
        <ele>93</ele>
        <time>2021-03-03T09:29:11.508Z</time>
      </trkpt>
      <trkpt lat="48.73367" lon="2.50319">
        <ele>93</ele>
        <time>2021-03-03T09:29:16.502Z</time>
      </trkpt>
      <trkpt lat="48.7337" lon="2.5032">
        <ele>93</ele>
        <time>2021-03-03T09:29:21.504Z</time>
      </trkpt>
      <trkpt lat="48.73375" lon="2.50317">
        <ele>91</ele>
        <time>2021-03-03T09:29:26.505Z</time>
      </trkpt>
      <trkpt lat="48.73379" lon="2.50316">
        <ele>91</ele>
        <time>2021-03-03T09:29:30.521Z</time>
      </trkpt>
      <trkpt lat="48.73382" lon="2.50317">
        <ele>91</ele>
        <time>2021-03-03T09:29:35.499Z</time>
      </trkpt>
      <trkpt lat="48.73387" lon="2.50315">
        <ele>91</ele>
        <time>2021-03-03T09:29:40.480Z</time>
      </trkpt>
      <trkpt lat="48.73392" lon="2.50314">
        <ele>91</ele>
        <time>2021-03-03T09:29:44.496Z</time>
      </trkpt>
      <trkpt lat="48.73398" lon="2.50313">
        <ele>91</ele>
        <time>2021-03-03T09:29:49.495Z</time>
      </trkpt>
      <trkpt lat="48.73402" lon="2.50311">
        <ele>91</ele>
        <time>2021-03-03T09:29:54.498Z</time>
      </trkpt>
      <trkpt lat="48.73408" lon="2.5031">
        <ele>91</ele>
        <time>2021-03-03T09:29:59.505Z</time>
      </trkpt>
      <trkpt lat="48.73414" lon="2.5031">
        <ele>91</ele>
        <time>2021-03-03T09:30:04.496Z</time>
      </trkpt>
      <trkpt lat="48.73422" lon="2.50313">
        <ele>91</ele>
        <time>2021-03-03T09:30:09.498Z</time>
      </trkpt>
      <trkpt lat="48.73429" lon="2.50317">
        <ele>91</ele>
        <time>2021-03-03T09:30:13.505Z</time>
      </trkpt>
      <trkpt lat="48.73435" lon="2.50321">
        <ele>96</ele>
        <time>2021-03-03T09:30:18.502Z</time>
      </trkpt>
      <trkpt lat="48.7344" lon="2.50318">
        <ele>94</ele>
        <time>2021-03-03T09:30:23.498Z</time>
      </trkpt>
      <trkpt lat="48.73446" lon="2.50317">
        <ele>94</ele>
        <time>2021-03-03T09:30:27.495Z</time>
      </trkpt>
      <trkpt lat="48.73452" lon="2.50316">
        <ele>94</ele>
        <time>2021-03-03T09:30:32.502Z</time>
      </trkpt>
      <trkpt lat="48.73459" lon="2.50315">
        <ele>95</ele>
        <time>2021-03-03T09:30:37.503Z</time>
      </trkpt>
      <trkpt lat="48.73462" lon="2.50316">
        <ele>95</ele>
        <time>2021-03-03T09:30:42.477Z</time>
      </trkpt>
      <trkpt lat="48.73467" lon="2.50315">
        <ele>95</ele>
        <time>2021-03-03T09:30:46.498Z</time>
      </trkpt>
      <trkpt lat="48.73472" lon="2.50316">
        <ele>95</ele>
        <time>2021-03-03T09:30:50.495Z</time>
      </trkpt>
      <trkpt lat="48.73478" lon="2.50314">
        <ele>95</ele>
        <time>2021-03-03T09:30:55.501Z</time>
      </trkpt>
      <trkpt lat="48.73486" lon="2.50314">
        <ele>95</ele>
        <time>2021-03-03T09:31:00.509Z</time>
      </trkpt>
      <trkpt lat="48.73489" lon="2.50314">
        <ele>95</ele>
        <time>2021-03-03T09:31:05.503Z</time>
      </trkpt>
      <trkpt lat="48.73494" lon="2.50312">
        <ele>95</ele>
        <time>2021-03-03T09:31:10.501Z</time>
      </trkpt>
      <trkpt lat="48.73502" lon="2.50313">
        <ele>95</ele>
        <time>2021-03-03T09:31:15.506Z</time>
      </trkpt>
      <trkpt lat="48.73507" lon="2.50314">
        <ele>95</ele>
        <time>2021-03-03T09:31:19.496Z</time>
      </trkpt>
      <trkpt lat="48.7351" lon="2.50314">
        <ele>95</ele>
        <time>2021-03-03T09:31:24.504Z</time>
      </trkpt>
      <trkpt lat="48.73516" lon="2.50314">
        <ele>95</ele>
        <time>2021-03-03T09:31:29.509Z</time>
      </trkpt>
      <trkpt lat="48.73521" lon="2.50313">
        <ele>95</ele>
        <time>2021-03-03T09:31:34.503Z</time>
      </trkpt>
      <trkpt lat="48.73528" lon="2.50312">
        <ele>95</ele>
        <time>2021-03-03T09:31:39.497Z</time>
      </trkpt>
      <trkpt lat="48.73533" lon="2.50311">
        <ele>95</ele>
        <time>2021-03-03T09:31:44.498Z</time>
      </trkpt>
      <trkpt lat="48.73539" lon="2.50312">
        <ele>95</ele>
        <time>2021-03-03T09:31:49.475Z</time>
      </trkpt>
      <trkpt lat="48.73544" lon="2.50313">
        <ele>96</ele>
        <time>2021-03-03T09:31:53.494Z</time>
      </trkpt>
      <trkpt lat="48.7355" lon="2.50312">
        <ele>96</ele>
        <time>2021-03-03T09:31:58.498Z</time>
      </trkpt>
      <trkpt lat="48.73555" lon="2.50311">
        <ele>96</ele>
        <time>2021-03-03T09:32:02.491Z</time>
      </trkpt>
      <trkpt lat="48.73562" lon="2.5031">
        <ele>96</ele>
        <time>2021-03-03T09:32:07.497Z</time>
      </trkpt>
      <trkpt lat="48.73568" lon="2.50309">
        <ele>96</ele>
        <time>2021-03-03T09:32:12.494Z</time>
      </trkpt>
      <trkpt lat="48.73574" lon="2.50309">
        <ele>96</ele>
        <time>2021-03-03T09:32:17.500Z</time>
      </trkpt>
      <trkpt lat="48.73581" lon="2.50306">
        <ele>96</ele>
        <time>2021-03-03T09:32:22.508Z</time>
      </trkpt>
      <trkpt lat="48.73585" lon="2.50303">
        <ele>96</ele>
        <time>2021-03-03T09:32:26.510Z</time>
      </trkpt>
      <trkpt lat="48.73591" lon="2.503">
        <ele>96</ele>
        <time>2021-03-03T09:32:31.502Z</time>
      </trkpt>
      <trkpt lat="48.73597" lon="2.503">
        <ele>96</ele>
        <time>2021-03-03T09:32:36.502Z</time>
      </trkpt>
      <trkpt lat="48.73604" lon="2.50301">
        <ele>95</ele>
        <time>2021-03-03T09:32:41.516Z</time>
      </trkpt>
      <trkpt lat="48.73612" lon="2.50303">
        <ele>95</ele>
        <time>2021-03-03T09:32:46.502Z</time>
      </trkpt>
      <trkpt lat="48.73617" lon="2.50303">
        <ele>95</ele>
        <time>2021-03-03T09:32:51.476Z</time>
      </trkpt>
      <trkpt lat="48.73621" lon="2.50305">
        <ele>95</ele>
        <time>2021-03-03T09:32:55.499Z</time>
      </trkpt>
      <trkpt lat="48.73626" lon="2.50304">
        <ele>95</ele>
        <time>2021-03-03T09:32:59.495Z</time>
      </trkpt>
      <trkpt lat="48.73631" lon="2.50303">
        <ele>95</ele>
        <time>2021-03-03T09:33:04.492Z</time>
      </trkpt>
      <trkpt lat="48.73637" lon="2.50306">
        <ele>95</ele>
        <time>2021-03-03T09:33:09.500Z</time>
      </trkpt>
      <trkpt lat="48.73644" lon="2.50304">
        <ele>95</ele>
        <time>2021-03-03T09:33:14.501Z</time>
      </trkpt>
      <trkpt lat="48.7365" lon="2.50303">
        <ele>95</ele>
        <time>2021-03-03T09:33:19.505Z</time>
      </trkpt>
      <trkpt lat="48.73656" lon="2.50304">
        <ele>95</ele>
        <time>2021-03-03T09:33:24.491Z</time>
      </trkpt>
      <trkpt lat="48.73662" lon="2.50302">
        <ele>95</ele>
        <time>2021-03-03T09:33:29.503Z</time>
      </trkpt>
      <trkpt lat="48.73669" lon="2.50299">
        <ele>95</ele>
        <time>2021-03-03T09:33:34.493Z</time>
      </trkpt>
      <trkpt lat="48.73676" lon="2.50299">
        <ele>95</ele>
        <time>2021-03-03T09:33:39.479Z</time>
      </trkpt>
      <trkpt lat="48.73682" lon="2.503">
        <ele>95</ele>
        <time>2021-03-03T09:33:43.490Z</time>
      </trkpt>
      <trkpt lat="48.73688" lon="2.50301">
        <ele>95</ele>
        <time>2021-03-03T09:33:48.495Z</time>
      </trkpt>
      <trkpt lat="48.73695" lon="2.50299">
        <ele>95</ele>
        <time>2021-03-03T09:33:53.490Z</time>
      </trkpt>
      <trkpt lat="48.73701" lon="2.50298">
        <ele>95</ele>
        <time>2021-03-03T09:33:58.494Z</time>
      </trkpt>
      <trkpt lat="48.73707" lon="2.50295">
        <ele>95</ele>
        <time>2021-03-03T09:34:03.501Z</time>
      </trkpt>
      <trkpt lat="48.73712" lon="2.50294">
        <ele>95</ele>
        <time>2021-03-03T09:34:08.502Z</time>
      </trkpt>
      <trkpt lat="48.73718" lon="2.50294">
        <ele>95</ele>
        <time>2021-03-03T09:34:12.493Z</time>
      </trkpt>
      <trkpt lat="48.73725" lon="2.50297">
        <ele>95</ele>
        <time>2021-03-03T09:34:17.497Z</time>
      </trkpt>
      <trkpt lat="48.73732" lon="2.50298">
        <ele>95</ele>
        <time>2021-03-03T09:34:21.482Z</time>
      </trkpt>
      <trkpt lat="48.73735" lon="2.503">
        <ele>95</ele>
        <time>2021-03-03T09:34:26.485Z</time>
      </trkpt>
      <trkpt lat="48.73736" lon="2.50298">
        <ele>95</ele>
        <time>2021-03-03T09:34:30.494Z</time>
      </trkpt>
      <trkpt lat="48.73738" lon="2.50298">
        <ele>96</ele>
        <time>2021-03-03T09:34:35.496Z</time>
      </trkpt>
      <trkpt lat="48.73736" lon="2.50311">
        <ele>96</ele>
        <time>2021-03-03T09:34:39.498Z</time>
      </trkpt>
      <trkpt lat="48.73736" lon="2.50322">
        <ele>96</ele>
        <time>2021-03-03T09:34:44.495Z</time>
      </trkpt>
      <trkpt lat="48.73736" lon="2.5033">
        <ele>94</ele>
        <time>2021-03-03T09:34:49.493Z</time>
      </trkpt>
      <trkpt lat="48.73735" lon="2.50339">
        <ele>94</ele>
        <time>2021-03-03T09:34:54.496Z</time>
      </trkpt>
      <trkpt lat="48.73734" lon="2.50345">
        <ele>94</ele>
        <time>2021-03-03T09:34:58.486Z</time>
      </trkpt>
      <trkpt lat="48.73735" lon="2.50352">
        <ele>95</ele>
        <time>2021-03-03T09:35:03.501Z</time>
      </trkpt>
      <trkpt lat="48.73734" lon="2.50361">
        <ele>95</ele>
        <time>2021-03-03T09:35:08.492Z</time>
      </trkpt>
      <trkpt lat="48.73731" lon="2.50368">
        <ele>95</ele>
        <time>2021-03-03T09:35:12.498Z</time>
      </trkpt>
      <trkpt lat="48.73727" lon="2.50378">
        <ele>95</ele>
        <time>2021-03-03T09:35:17.480Z</time>
      </trkpt>
      <trkpt lat="48.73724" lon="2.50385">
        <ele>95</ele>
        <time>2021-03-03T09:35:21.498Z</time>
      </trkpt>
      <trkpt lat="48.73722" lon="2.50395">
        <ele>95</ele>
        <time>2021-03-03T09:35:26.492Z</time>
      </trkpt>
      <trkpt lat="48.73718" lon="2.50403">
        <ele>96</ele>
        <time>2021-03-03T09:35:31.495Z</time>
      </trkpt>
      <trkpt lat="48.73716" lon="2.50413">
        <ele>96</ele>
        <time>2021-03-03T09:35:36.486Z</time>
      </trkpt>
      <trkpt lat="48.73713" lon="2.50422">
        <ele>96</ele>
        <time>2021-03-03T09:35:41.487Z</time>
      </trkpt>
      <trkpt lat="48.73711" lon="2.50431">
        <ele>97</ele>
        <time>2021-03-03T09:35:46.493Z</time>
      </trkpt>
      <trkpt lat="48.73707" lon="2.50438">
        <ele>94</ele>
        <time>2021-03-03T09:35:51.494Z</time>
      </trkpt>
      <trkpt lat="48.73704" lon="2.50446">
        <ele>94</ele>
        <time>2021-03-03T09:35:56.497Z</time>
      </trkpt>
      <trkpt lat="48.73701" lon="2.50456">
        <ele>94</ele>
        <time>2021-03-03T09:36:01.485Z</time>
      </trkpt>
      <trkpt lat="48.73698" lon="2.50462">
        <ele>97</ele>
        <time>2021-03-03T09:36:05.497Z</time>
      </trkpt>
      <trkpt lat="48.73696" lon="2.5047">
        <ele>97</ele>
        <time>2021-03-03T09:36:10.499Z</time>
      </trkpt>
      <trkpt lat="48.73694" lon="2.50478">
        <ele>97</ele>
        <time>2021-03-03T09:36:15.503Z</time>
      </trkpt>
      <trkpt lat="48.73692" lon="2.50487">
        <ele>98</ele>
        <time>2021-03-03T09:36:20.494Z</time>
      </trkpt>
      <trkpt lat="48.73688" lon="2.50495">
        <ele>98</ele>
        <time>2021-03-03T09:36:25.494Z</time>
      </trkpt>
      <trkpt lat="48.73686" lon="2.50503">
        <ele>98</ele>
        <time>2021-03-03T09:36:29.497Z</time>
      </trkpt>
      <trkpt lat="48.73682" lon="2.5051">
        <ele>98</ele>
        <time>2021-03-03T09:36:34.492Z</time>
      </trkpt>
      <trkpt lat="48.73679" lon="2.50518">
        <ele>97</ele>
        <time>2021-03-03T09:36:39.500Z</time>
      </trkpt>
      <trkpt lat="48.73676" lon="2.50526">
        <ele>97</ele>
        <time>2021-03-03T09:36:44.493Z</time>
      </trkpt>
      <trkpt lat="48.73673" lon="2.50533">
        <ele>97</ele>
        <time>2021-03-03T09:36:49.496Z</time>
      </trkpt>
      <trkpt lat="48.73671" lon="2.50543">
        <ele>97</ele>
        <time>2021-03-03T09:36:53.490Z</time>
      </trkpt>
      <trkpt lat="48.73669" lon="2.50552">
        <ele>97</ele>
        <time>2021-03-03T09:36:58.493Z</time>
      </trkpt>
      <trkpt lat="48.7367" lon="2.50561">
        <ele>97</ele>
        <time>2021-03-03T09:37:02.499Z</time>
      </trkpt>
      <trkpt lat="48.7367" lon="2.50572">
        <ele>97</ele>
        <time>2021-03-03T09:37:07.498Z</time>
      </trkpt>
      <trkpt lat="48.73669" lon="2.5058">
        <ele>97</ele>
        <time>2021-03-03T09:37:11.500Z</time>
      </trkpt>
      <trkpt lat="48.73668" lon="2.50588">
        <ele>97</ele>
        <time>2021-03-03T09:37:16.496Z</time>
      </trkpt>
      <trkpt lat="48.73666" lon="2.50596">
        <ele>97</ele>
        <time>2021-03-03T09:37:20.500Z</time>
      </trkpt>
      <trkpt lat="48.73663" lon="2.50604">
        <ele>97</ele>
        <time>2021-03-03T09:37:25.496Z</time>
      </trkpt>
      <trkpt lat="48.7366" lon="2.50612">
        <ele>97</ele>
        <time>2021-03-03T09:37:30.499Z</time>
      </trkpt>
      <trkpt lat="48.73658" lon="2.50622">
        <ele>97</ele>
        <time>2021-03-03T09:37:35.497Z</time>
      </trkpt>
      <trkpt lat="48.73656" lon="2.5063">
        <ele>97</ele>
        <time>2021-03-03T09:37:40.491Z</time>
      </trkpt>
      <trkpt lat="48.73654" lon="2.50637">
        <ele>97</ele>
        <time>2021-03-03T09:37:45.496Z</time>
      </trkpt>
      <trkpt lat="48.73652" lon="2.50644">
        <ele>96</ele>
        <time>2021-03-03T09:37:50.500Z</time>
      </trkpt>
      <trkpt lat="48.7365" lon="2.50653">
        <ele>96</ele>
        <time>2021-03-03T09:37:55.483Z</time>
      </trkpt>
      <trkpt lat="48.73646" lon="2.50661">
        <ele>96</ele>
        <time>2021-03-03T09:38:00.505Z</time>
      </trkpt>
      <trkpt lat="48.73644" lon="2.5067">
        <ele>96</ele>
        <time>2021-03-03T09:38:04.515Z</time>
      </trkpt>
      <trkpt lat="48.7364" lon="2.50677">
        <ele>96</ele>
        <time>2021-03-03T09:38:09.473Z</time>
      </trkpt>
      <trkpt lat="48.73637" lon="2.50682">
        <ele>96</ele>
        <time>2021-03-03T09:38:13.469Z</time>
      </trkpt>
      <trkpt lat="48.73636" lon="2.50687">
        <ele>96</ele>
        <time>2021-03-03T09:38:17.503Z</time>
      </trkpt>
      <trkpt lat="48.73632" lon="2.50694">
        <ele>96</ele>
        <time>2021-03-03T09:38:22.495Z</time>
      </trkpt>
      <trkpt lat="48.73629" lon="2.50702">
        <ele>96</ele>
        <time>2021-03-03T09:38:27.496Z</time>
      </trkpt>
      <trkpt lat="48.73625" lon="2.50711">
        <ele>97</ele>
        <time>2021-03-03T09:38:32.478Z</time>
      </trkpt>
      <trkpt lat="48.73622" lon="2.50715">
        <ele>96</ele>
        <time>2021-03-03T09:38:36.499Z</time>
      </trkpt>
      <trkpt lat="48.73618" lon="2.50722">
        <ele>96</ele>
        <time>2021-03-03T09:38:41.489Z</time>
      </trkpt>
      <trkpt lat="48.73614" lon="2.50729">
        <ele>96</ele>
        <time>2021-03-03T09:38:46.489Z</time>
      </trkpt>
      <trkpt lat="48.73611" lon="2.50735">
        <ele>96</ele>
        <time>2021-03-03T09:38:51.516Z</time>
      </trkpt>
      <trkpt lat="48.73609" lon="2.50743">
        <ele>97</ele>
        <time>2021-03-03T09:38:56.500Z</time>
      </trkpt>
      <trkpt lat="48.73606" lon="2.50752">
        <ele>97</ele>
        <time>2021-03-03T09:39:01.494Z</time>
      </trkpt>
      <trkpt lat="48.73603" lon="2.50756">
        <ele>97</ele>
        <time>2021-03-03T09:39:06.505Z</time>
      </trkpt>
      <trkpt lat="48.73598" lon="2.50763">
        <ele>97</ele>
        <time>2021-03-03T09:39:11.492Z</time>
      </trkpt>
      <trkpt lat="48.73595" lon="2.50769">
        <ele>98</ele>
        <time>2021-03-03T09:39:15.494Z</time>
      </trkpt>
      <trkpt lat="48.73591" lon="2.50777">
        <ele>98</ele>
        <time>2021-03-03T09:39:20.471Z</time>
      </trkpt>
      <trkpt lat="48.73587" lon="2.50783">
        <ele>98</ele>
        <time>2021-03-03T09:39:24.488Z</time>
      </trkpt>
      <trkpt lat="48.73582" lon="2.50789">
        <ele>98</ele>
        <time>2021-03-03T09:39:28.473Z</time>
      </trkpt>
      <trkpt lat="48.73576" lon="2.50795">
        <ele>99</ele>
        <time>2021-03-03T09:39:33.493Z</time>
      </trkpt>
      <trkpt lat="48.73569" lon="2.50802">
        <ele>98</ele>
        <time>2021-03-03T09:39:38.505Z</time>
      </trkpt>
      <trkpt lat="48.73563" lon="2.50808">
        <ele>98</ele>
        <time>2021-03-03T09:39:43.497Z</time>
      </trkpt>
      <trkpt lat="48.73559" lon="2.50812">
        <ele>98</ele>
        <time>2021-03-03T09:39:47.496Z</time>
      </trkpt>
      <trkpt lat="48.73554" lon="2.50817">
        <ele>98</ele>
        <time>2021-03-03T09:39:52.489Z</time>
      </trkpt>
      <trkpt lat="48.73548" lon="2.50823">
        <ele>99</ele>
        <time>2021-03-03T09:39:57.494Z</time>
      </trkpt>
      <trkpt lat="48.73542" lon="2.50828">
        <ele>99</ele>
        <time>2021-03-03T09:40:02.493Z</time>
      </trkpt>
      <trkpt lat="48.73539" lon="2.50833">
        <ele>98</ele>
        <time>2021-03-03T09:40:06.497Z</time>
      </trkpt>
      <trkpt lat="48.73534" lon="2.5084">
        <ele>98</ele>
        <time>2021-03-03T09:40:11.489Z</time>
      </trkpt>
      <trkpt lat="48.73532" lon="2.50847">
        <ele>98</ele>
        <time>2021-03-03T09:40:15.495Z</time>
      </trkpt>
      <trkpt lat="48.73528" lon="2.50854">
        <ele>98</ele>
        <time>2021-03-03T09:40:20.492Z</time>
      </trkpt>
      <trkpt lat="48.73524" lon="2.50862">
        <ele>98</ele>
        <time>2021-03-03T09:40:25.496Z</time>
      </trkpt>
      <trkpt lat="48.73521" lon="2.50868">
        <ele>98</ele>
        <time>2021-03-03T09:40:29.501Z</time>
      </trkpt>
      <trkpt lat="48.73518" lon="2.50876">
        <ele>98</ele>
        <time>2021-03-03T09:40:34.501Z</time>
      </trkpt>
      <trkpt lat="48.73515" lon="2.50885">
        <ele>98</ele>
        <time>2021-03-03T09:40:39.497Z</time>
      </trkpt>
      <trkpt lat="48.73511" lon="2.50891">
        <ele>97</ele>
        <time>2021-03-03T09:40:43.500Z</time>
      </trkpt>
      <trkpt lat="48.73508" lon="2.509">
        <ele>97</ele>
        <time>2021-03-03T09:40:48.489Z</time>
      </trkpt>
      <trkpt lat="48.73506" lon="2.50907">
        <ele>97</ele>
        <time>2021-03-03T09:40:53.494Z</time>
      </trkpt>
      <trkpt lat="48.73501" lon="2.50916">
        <ele>97</ele>
        <time>2021-03-03T09:40:58.518Z</time>
      </trkpt>
      <trkpt lat="48.73498" lon="2.50925">
        <ele>97</ele>
        <time>2021-03-03T09:41:03.489Z</time>
      </trkpt>
      <trkpt lat="48.73495" lon="2.50931">
        <ele>98</ele>
        <time>2021-03-03T09:41:08.491Z</time>
      </trkpt>
      <trkpt lat="48.73493" lon="2.50937">
        <ele>98</ele>
        <time>2021-03-03T09:41:12.490Z</time>
      </trkpt>
      <trkpt lat="48.7349" lon="2.50945">
        <ele>98</ele>
        <time>2021-03-03T09:41:16.493Z</time>
      </trkpt>
      <trkpt lat="48.73487" lon="2.50954">
        <ele>98</ele>
        <time>2021-03-03T09:41:21.494Z</time>
      </trkpt>
      <trkpt lat="48.73482" lon="2.5096">
        <ele>99</ele>
        <time>2021-03-03T09:41:25.498Z</time>
      </trkpt>
      <trkpt lat="48.73476" lon="2.50963">
        <ele>99</ele>
        <time>2021-03-03T09:41:30.500Z</time>
      </trkpt>
      <trkpt lat="48.7347" lon="2.50961">
        <ele>99</ele>
        <time>2021-03-03T09:41:35.499Z</time>
      </trkpt>
      <trkpt lat="48.73465" lon="2.5096">
        <ele>99</ele>
        <time>2021-03-03T09:41:40.488Z</time>
      </trkpt>
      <trkpt lat="48.7346" lon="2.50958">
        <ele>99</ele>
        <time>2021-03-03T09:41:44.487Z</time>
      </trkpt>
      <trkpt lat="48.73458" lon="2.50956">
        <ele>99</ele>
        <time>2021-03-03T09:41:49.486Z</time>
      </trkpt>
      <trkpt lat="48.7345" lon="2.50953">
        <ele>99</ele>
        <time>2021-03-03T09:41:54.483Z</time>
      </trkpt>
      <trkpt lat="48.73446" lon="2.50952">
        <ele>99</ele>
        <time>2021-03-03T09:41:58.500Z</time>
      </trkpt>
      <trkpt lat="48.7344" lon="2.50949">
        <ele>99</ele>
        <time>2021-03-03T09:42:03.493Z</time>
      </trkpt>
      <trkpt lat="48.73435" lon="2.50948">
        <ele>99</ele>
        <time>2021-03-03T09:42:08.495Z</time>
      </trkpt>
      <trkpt lat="48.73432" lon="2.50946">
        <ele>99</ele>
        <time>2021-03-03T09:42:12.486Z</time>
      </trkpt>
      <trkpt lat="48.73426" lon="2.50946">
        <ele>98</ele>
        <time>2021-03-03T09:42:17.500Z</time>
      </trkpt>
      <trkpt lat="48.7342" lon="2.50943">
        <ele>98</ele>
        <time>2021-03-03T09:42:22.523Z</time>
      </trkpt>
      <trkpt lat="48.73414" lon="2.50942">
        <ele>98</ele>
        <time>2021-03-03T09:42:27.496Z</time>
      </trkpt>
      <trkpt lat="48.73408" lon="2.50939">
        <ele>98</ele>
        <time>2021-03-03T09:42:31.497Z</time>
      </trkpt>
      <trkpt lat="48.73404" lon="2.50938">
        <ele>98</ele>
        <time>2021-03-03T09:42:36.493Z</time>
      </trkpt>
      <trkpt lat="48.73397" lon="2.50937">
        <ele>97</ele>
        <time>2021-03-03T09:42:41.490Z</time>
      </trkpt>
      <trkpt lat="48.73391" lon="2.50934">
        <ele>97</ele>
        <time>2021-03-03T09:42:46.485Z</time>
      </trkpt>
      <trkpt lat="48.73387" lon="2.50931">
        <ele>97</ele>
        <time>2021-03-03T09:42:50.480Z</time>
      </trkpt>
      <trkpt lat="48.73381" lon="2.50928">
        <ele>97</ele>
        <time>2021-03-03T09:42:55.483Z</time>
      </trkpt>
      <trkpt lat="48.73376" lon="2.50924">
        <ele>97</ele>
        <time>2021-03-03T09:42:59.495Z</time>
      </trkpt>
      <trkpt lat="48.73369" lon="2.5092">
        <ele>97</ele>
        <time>2021-03-03T09:43:04.496Z</time>
      </trkpt>
      <trkpt lat="48.73362" lon="2.5092">
        <ele>97</ele>
        <time>2021-03-03T09:43:09.491Z</time>
      </trkpt>
      <trkpt lat="48.73357" lon="2.50923">
        <ele>97</ele>
        <time>2021-03-03T09:43:14.487Z</time>
      </trkpt>
      <trkpt lat="48.73355" lon="2.50927">
        <ele>97</ele>
        <time>2021-03-03T09:43:19.492Z</time>
      </trkpt>
      <trkpt lat="48.73353" lon="2.50936">
        <ele>97</ele>
        <time>2021-03-03T09:43:24.486Z</time>
      </trkpt>
      <trkpt lat="48.73351" lon="2.50944">
        <ele>97</ele>
        <time>2021-03-03T09:43:29.502Z</time>
      </trkpt>
      <trkpt lat="48.73347" lon="2.50952">
        <ele>97</ele>
        <time>2021-03-03T09:43:34.493Z</time>
      </trkpt>
      <trkpt lat="48.73344" lon="2.50959">
        <ele>98</ele>
        <time>2021-03-03T09:43:39.508Z</time>
      </trkpt>
      <trkpt lat="48.73342" lon="2.50967">
        <ele>98</ele>
        <time>2021-03-03T09:43:44.492Z</time>
      </trkpt>
      <trkpt lat="48.73339" lon="2.50975">
        <ele>98</ele>
        <time>2021-03-03T09:43:49.494Z</time>
      </trkpt>
      <trkpt lat="48.73337" lon="2.50983">
        <ele>98</ele>
        <time>2021-03-03T09:43:54.500Z</time>
      </trkpt>
      <trkpt lat="48.73335" lon="2.50992">
        <ele>98</ele>
        <time>2021-03-03T09:43:59.495Z</time>
      </trkpt>
      <trkpt lat="48.73334" lon="2.51">
        <ele>98</ele>
        <time>2021-03-03T09:44:04.486Z</time>
      </trkpt>
      <trkpt lat="48.73331" lon="2.51008">
        <ele>98</ele>
        <time>2021-03-03T09:44:09.498Z</time>
      </trkpt>
      <trkpt lat="48.7333" lon="2.51016">
        <ele>98</ele>
        <time>2021-03-03T09:44:14.493Z</time>
      </trkpt>
      <trkpt lat="48.73327" lon="2.51025">
        <ele>98</ele>
        <time>2021-03-03T09:44:19.512Z</time>
      </trkpt>
      <trkpt lat="48.73327" lon="2.51034">
        <ele>98</ele>
        <time>2021-03-03T09:44:24.501Z</time>
      </trkpt>
      <trkpt lat="48.73325" lon="2.51043">
        <ele>97</ele>
        <time>2021-03-03T09:44:28.496Z</time>
      </trkpt>
      <trkpt lat="48.73325" lon="2.51051">
        <ele>97</ele>
        <time>2021-03-03T09:44:33.474Z</time>
      </trkpt>
      <trkpt lat="48.73328" lon="2.51058">
        <ele>97</ele>
        <time>2021-03-03T09:45:14.497Z</time>
      </trkpt>
      <trkpt lat="48.73328" lon="2.51061">
        <ele>97</ele>
        <time>2021-03-03T09:45:19.498Z</time>
      </trkpt>
      <trkpt lat="48.73328" lon="2.51065">
        <ele>97</ele>
        <time>2021-03-03T09:45:24.496Z</time>
      </trkpt>
      <trkpt lat="48.73327" lon="2.5107">
        <ele>96</ele>
        <time>2021-03-03T09:45:28.488Z</time>
      </trkpt>
      <trkpt lat="48.73325" lon="2.51079">
        <ele>96</ele>
        <time>2021-03-03T09:45:33.481Z</time>
      </trkpt>
      <trkpt lat="48.73326" lon="2.51076">
        <ele>96</ele>
        <time>2021-03-03T09:46:26.486Z</time>
      </trkpt>
      <trkpt lat="48.73324" lon="2.51085">
        <ele>96</ele>
        <time>2021-03-03T09:46:31.494Z</time>
      </trkpt>
      <trkpt lat="48.73321" lon="2.51093">
        <ele>96</ele>
        <time>2021-03-03T09:46:36.490Z</time>
      </trkpt>
      <trkpt lat="48.7332" lon="2.51104">
        <ele>95</ele>
        <time>2021-03-03T09:46:41.491Z</time>
      </trkpt>
      <trkpt lat="48.73319" lon="2.51114">
        <ele>95</ele>
        <time>2021-03-03T09:46:46.495Z</time>
      </trkpt>
      <trkpt lat="48.73316" lon="2.51124">
        <ele>95</ele>
        <time>2021-03-03T09:46:51.555Z</time>
      </trkpt>
      <trkpt lat="48.73314" lon="2.51134">
        <ele>95</ele>
        <time>2021-03-03T09:46:56.499Z</time>
      </trkpt>
      <trkpt lat="48.73312" lon="2.51146">
        <ele>95</ele>
        <time>2021-03-03T09:47:01.467Z</time>
      </trkpt>
      <trkpt lat="48.7331" lon="2.51155">
        <ele>95</ele>
        <time>2021-03-03T09:47:05.482Z</time>
      </trkpt>
      <trkpt lat="48.7331" lon="2.51166">
        <ele>95</ele>
        <time>2021-03-03T09:47:10.480Z</time>
      </trkpt>
      <trkpt lat="48.73308" lon="2.51178">
        <ele>95</ele>
        <time>2021-03-03T09:47:15.496Z</time>
      </trkpt>
      <trkpt lat="48.73304" lon="2.51184">
        <ele>96</ele>
        <time>2021-03-03T09:47:19.495Z</time>
      </trkpt>
      <trkpt lat="48.73302" lon="2.51195">
        <ele>96</ele>
        <time>2021-03-03T09:47:24.491Z</time>
      </trkpt>
      <trkpt lat="48.73299" lon="2.51206">
        <ele>96</ele>
        <time>2021-03-03T09:47:29.480Z</time>
      </trkpt>
      <trkpt lat="48.733" lon="2.51214">
        <ele>96</ele>
        <time>2021-03-03T09:47:33.483Z</time>
      </trkpt>
      <trkpt lat="48.73298" lon="2.51228">
        <ele>96</ele>
        <time>2021-03-03T09:47:38.481Z</time>
      </trkpt>
      <trkpt lat="48.73298" lon="2.51236">
        <ele>96</ele>
        <time>2021-03-03T09:47:42.484Z</time>
      </trkpt>
      <trkpt lat="48.73295" lon="2.51249">
        <ele>96</ele>
        <time>2021-03-03T09:47:47.479Z</time>
      </trkpt>
      <trkpt lat="48.73293" lon="2.51259">
        <ele>96</ele>
        <time>2021-03-03T09:47:52.482Z</time>
      </trkpt>
      <trkpt lat="48.73291" lon="2.51267">
        <ele>92</ele>
        <time>2021-03-03T09:47:57.484Z</time>
      </trkpt>
      <trkpt lat="48.73289" lon="2.51278">
        <ele>92</ele>
        <time>2021-03-03T09:48:02.504Z</time>
      </trkpt>
      <trkpt lat="48.73286" lon="2.5129">
        <ele>92</ele>
        <time>2021-03-03T09:48:07.478Z</time>
      </trkpt>
      <trkpt lat="48.73286" lon="2.51299">
        <ele>94</ele>
        <time>2021-03-03T09:48:11.475Z</time>
      </trkpt>
      <trkpt lat="48.73286" lon="2.51311">
        <ele>94</ele>
        <time>2021-03-03T09:48:16.488Z</time>
      </trkpt>
      <trkpt lat="48.73282" lon="2.51318">
        <ele>94</ele>
        <time>2021-03-03T09:48:21.491Z</time>
      </trkpt>
      <trkpt lat="48.73277" lon="2.51323">
        <ele>95</ele>
        <time>2021-03-03T09:50:09.486Z</time>
      </trkpt>
      <trkpt lat="48.73277" lon="2.51326">
        <ele>95</ele>
        <time>2021-03-03T09:50:18.475Z</time>
      </trkpt>
      <trkpt lat="48.73275" lon="2.51332">
        <ele>95</ele>
        <time>2021-03-03T09:50:23.489Z</time>
      </trkpt>
      <trkpt lat="48.73274" lon="2.51337">
        <ele>95</ele>
        <time>2021-03-03T09:50:28.490Z</time>
      </trkpt>
      <trkpt lat="48.73271" lon="2.51344">
        <ele>95</ele>
        <time>2021-03-03T09:50:33.482Z</time>
      </trkpt>
      <trkpt lat="48.73269" lon="2.51348">
        <ele>95</ele>
        <time>2021-03-03T09:50:37.485Z</time>
      </trkpt>
      <trkpt lat="48.73268" lon="2.51354">
        <ele>95</ele>
        <time>2021-03-03T09:50:42.467Z</time>
      </trkpt>
      <trkpt lat="48.73266" lon="2.5136">
        <ele>95</ele>
        <time>2021-03-03T09:50:46.498Z</time>
      </trkpt>
      <trkpt lat="48.73263" lon="2.51368">
        <ele>92</ele>
        <time>2021-03-03T09:50:51.494Z</time>
      </trkpt>
      <trkpt lat="48.7326" lon="2.51376">
        <ele>92</ele>
        <time>2021-03-03T09:50:56.489Z</time>
      </trkpt>
      <trkpt lat="48.73258" lon="2.51383">
        <ele>92</ele>
        <time>2021-03-03T09:51:00.494Z</time>
      </trkpt>
      <trkpt lat="48.73256" lon="2.51391">
        <ele>92</ele>
        <time>2021-03-03T09:51:05.492Z</time>
      </trkpt>
      <trkpt lat="48.73254" lon="2.51399">
        <ele>92</ele>
        <time>2021-03-03T09:51:10.493Z</time>
      </trkpt>
      <trkpt lat="48.73251" lon="2.51407">
        <ele>91</ele>
        <time>2021-03-03T09:51:15.498Z</time>
      </trkpt>
      <trkpt lat="48.73248" lon="2.51415">
        <ele>91</ele>
        <time>2021-03-03T09:51:20.497Z</time>
      </trkpt>
      <trkpt lat="48.73246" lon="2.51424">
        <ele>91</ele>
        <time>2021-03-03T09:51:25.494Z</time>
      </trkpt>
      <trkpt lat="48.73244" lon="2.51433">
        <ele>91</ele>
        <time>2021-03-03T09:51:30.495Z</time>
      </trkpt>
      <trkpt lat="48.73242" lon="2.51443">
        <ele>91</ele>
        <time>2021-03-03T09:51:35.481Z</time>
      </trkpt>
      <trkpt lat="48.73238" lon="2.51453">
        <ele>91</ele>
        <time>2021-03-03T09:51:41.479Z</time>
      </trkpt>
      <trkpt lat="48.73237" lon="2.51459">
        <ele>91</ele>
        <time>2021-03-03T09:51:45.492Z</time>
      </trkpt>
      <trkpt lat="48.73235" lon="2.51466">
        <ele>92</ele>
        <time>2021-03-03T09:51:50.488Z</time>
      </trkpt>
      <trkpt lat="48.73232" lon="2.51474">
        <ele>92</ele>
        <time>2021-03-03T09:51:55.487Z</time>
      </trkpt>
      <trkpt lat="48.73229" lon="2.51484">
        <ele>92</ele>
        <time>2021-03-03T09:52:00.500Z</time>
      </trkpt>
      <trkpt lat="48.73227" lon="2.51491">
        <ele>92</ele>
        <time>2021-03-03T09:52:04.502Z</time>
      </trkpt>
      <trkpt lat="48.73225" lon="2.51498">
        <ele>92</ele>
        <time>2021-03-03T09:52:09.491Z</time>
      </trkpt>
      <trkpt lat="48.73223" lon="2.51504">
        <ele>92</ele>
        <time>2021-03-03T09:52:13.492Z</time>
      </trkpt>
      <trkpt lat="48.7322" lon="2.51513">
        <ele>92</ele>
        <time>2021-03-03T09:52:18.488Z</time>
      </trkpt>
      <trkpt lat="48.73218" lon="2.5152">
        <ele>92</ele>
        <time>2021-03-03T09:52:22.486Z</time>
      </trkpt>
      <trkpt lat="48.73215" lon="2.51528">
        <ele>92</ele>
        <time>2021-03-03T09:52:27.498Z</time>
      </trkpt>
      <trkpt lat="48.73211" lon="2.51536">
        <ele>92</ele>
        <time>2021-03-03T09:52:32.490Z</time>
      </trkpt>
      <trkpt lat="48.73208" lon="2.51546">
        <ele>93</ele>
        <time>2021-03-03T09:52:37.493Z</time>
      </trkpt>
      <trkpt lat="48.73206" lon="2.51552">
        <ele>93</ele>
        <time>2021-03-03T09:52:42.490Z</time>
      </trkpt>
      <trkpt lat="48.73204" lon="2.5156">
        <ele>93</ele>
        <time>2021-03-03T09:52:47.492Z</time>
      </trkpt>
      <trkpt lat="48.73201" lon="2.51567">
        <ele>93</ele>
        <time>2021-03-03T09:52:52.481Z</time>
      </trkpt>
      <trkpt lat="48.73197" lon="2.51575">
        <ele>93</ele>
        <time>2021-03-03T09:52:57.492Z</time>
      </trkpt>
      <trkpt lat="48.73192" lon="2.51583">
        <ele>93</ele>
        <time>2021-03-03T09:53:02.491Z</time>
      </trkpt>
      <trkpt lat="48.73188" lon="2.5159">
        <ele>93</ele>
        <time>2021-03-03T09:53:07.484Z</time>
      </trkpt>
      <trkpt lat="48.73185" lon="2.51596">
        <ele>93</ele>
        <time>2021-03-03T09:53:11.492Z</time>
      </trkpt>
      <trkpt lat="48.73185" lon="2.51605">
        <ele>93</ele>
        <time>2021-03-03T09:53:16.485Z</time>
      </trkpt>
      <trkpt lat="48.73183" lon="2.51612">
        <ele>93</ele>
        <time>2021-03-03T09:53:20.485Z</time>
      </trkpt>
      <trkpt lat="48.73181" lon="2.51621">
        <ele>93</ele>
        <time>2021-03-03T09:53:25.491Z</time>
      </trkpt>
      <trkpt lat="48.73177" lon="2.5163">
        <ele>93</ele>
        <time>2021-03-03T09:53:30.481Z</time>
      </trkpt>
      <trkpt lat="48.73172" lon="2.51639">
        <ele>93</ele>
        <time>2021-03-03T09:53:35.488Z</time>
      </trkpt>
      <trkpt lat="48.73169" lon="2.51648">
        <ele>93</ele>
        <time>2021-03-03T09:53:40.487Z</time>
      </trkpt>
      <trkpt lat="48.73166" lon="2.51657">
        <ele>92</ele>
        <time>2021-03-03T09:53:45.485Z</time>
      </trkpt>
      <trkpt lat="48.73163" lon="2.51665">
        <ele>92</ele>
        <time>2021-03-03T09:53:50.485Z</time>
      </trkpt>
      <trkpt lat="48.7316" lon="2.51672">
        <ele>92</ele>
        <time>2021-03-03T09:53:54.479Z</time>
      </trkpt>
      <trkpt lat="48.73157" lon="2.51681">
        <ele>91</ele>
        <time>2021-03-03T09:53:59.472Z</time>
      </trkpt>
      <trkpt lat="48.73155" lon="2.51686">
        <ele>91</ele>
        <time>2021-03-03T09:54:03.474Z</time>
      </trkpt>
      <trkpt lat="48.73152" lon="2.51693">
        <ele>91</ele>
        <time>2021-03-03T09:54:08.488Z</time>
      </trkpt>
      <trkpt lat="48.73149" lon="2.517">
        <ele>91</ele>
        <time>2021-03-03T09:54:13.487Z</time>
      </trkpt>
      <trkpt lat="48.73147" lon="2.51707">
        <ele>91</ele>
        <time>2021-03-03T09:54:18.487Z</time>
      </trkpt>
      <trkpt lat="48.73144" lon="2.51717">
        <ele>91</ele>
        <time>2021-03-03T09:54:23.495Z</time>
      </trkpt>
      <trkpt lat="48.73141" lon="2.51724">
        <ele>91</ele>
        <time>2021-03-03T09:54:28.493Z</time>
      </trkpt>
      <trkpt lat="48.73137" lon="2.51732">
        <ele>91</ele>
        <time>2021-03-03T09:54:33.489Z</time>
      </trkpt>
      <trkpt lat="48.73133" lon="2.51739">
        <ele>91</ele>
        <time>2021-03-03T09:54:38.486Z</time>
      </trkpt>
      <trkpt lat="48.73128" lon="2.51747">
        <ele>91</ele>
        <time>2021-03-03T09:54:43.490Z</time>
      </trkpt>
      <trkpt lat="48.73126" lon="2.51754">
        <ele>91</ele>
        <time>2021-03-03T09:54:47.482Z</time>
      </trkpt>
      <trkpt lat="48.73122" lon="2.51763">
        <ele>92</ele>
        <time>2021-03-03T09:54:52.496Z</time>
      </trkpt>
      <trkpt lat="48.73119" lon="2.5177">
        <ele>93</ele>
        <time>2021-03-03T09:54:57.490Z</time>
      </trkpt>
      <trkpt lat="48.73116" lon="2.51779">
        <ele>93</ele>
        <time>2021-03-03T09:55:02.489Z</time>
      </trkpt>
      <trkpt lat="48.73113" lon="2.51787">
        <ele>93</ele>
        <time>2021-03-03T09:55:07.493Z</time>
      </trkpt>
      <trkpt lat="48.73112" lon="2.51795">
        <ele>93</ele>
        <time>2021-03-03T09:55:12.485Z</time>
      </trkpt>
      <trkpt lat="48.73108" lon="2.51801">
        <ele>93</ele>
        <time>2021-03-03T09:55:16.480Z</time>
      </trkpt>
      <trkpt lat="48.73104" lon="2.51806">
        <ele>93</ele>
        <time>2021-03-03T09:55:20.492Z</time>
      </trkpt>
      <trkpt lat="48.73101" lon="2.51815">
        <ele>93</ele>
        <time>2021-03-03T09:55:25.486Z</time>
      </trkpt>
      <trkpt lat="48.73099" lon="2.5182">
        <ele>94</ele>
        <time>2021-03-03T09:55:29.487Z</time>
      </trkpt>
      <trkpt lat="48.73096" lon="2.51829">
        <ele>96</ele>
        <time>2021-03-03T09:55:34.487Z</time>
      </trkpt>
      <trkpt lat="48.73093" lon="2.51837">
        <ele>96</ele>
        <time>2021-03-03T09:55:39.487Z</time>
      </trkpt>
      <trkpt lat="48.73089" lon="2.51845">
        <ele>96</ele>
        <time>2021-03-03T09:55:43.491Z</time>
      </trkpt>
      <trkpt lat="48.73086" lon="2.51852">
        <ele>96</ele>
        <time>2021-03-03T09:55:48.491Z</time>
      </trkpt>
      <trkpt lat="48.73083" lon="2.51861">
        <ele>96</ele>
        <time>2021-03-03T09:55:53.480Z</time>
      </trkpt>
      <trkpt lat="48.73081" lon="2.51872">
        <ele>96</ele>
        <time>2021-03-03T09:55:58.496Z</time>
      </trkpt>
      <trkpt lat="48.73078" lon="2.5188">
        <ele>96</ele>
        <time>2021-03-03T09:56:03.483Z</time>
      </trkpt>
      <trkpt lat="48.73077" lon="2.51885">
        <ele>96</ele>
        <time>2021-03-03T09:56:07.496Z</time>
      </trkpt>
      <trkpt lat="48.73073" lon="2.51892">
        <ele>96</ele>
        <time>2021-03-03T09:56:12.484Z</time>
      </trkpt>
      <trkpt lat="48.73068" lon="2.519">
        <ele>99</ele>
        <time>2021-03-03T09:56:17.488Z</time>
      </trkpt>
      <trkpt lat="48.73064" lon="2.51909">
        <ele>99</ele>
        <time>2021-03-03T09:56:22.489Z</time>
      </trkpt>
      <trkpt lat="48.7306" lon="2.51916">
        <ele>99</ele>
        <time>2021-03-03T09:56:26.491Z</time>
      </trkpt>
      <trkpt lat="48.73057" lon="2.51923">
        <ele>99</ele>
        <time>2021-03-03T09:56:31.474Z</time>
      </trkpt>
      <trkpt lat="48.73053" lon="2.5193">
        <ele>99</ele>
        <time>2021-03-03T09:56:35.492Z</time>
      </trkpt>
      <trkpt lat="48.7305" lon="2.51936">
        <ele>98</ele>
        <time>2021-03-03T09:56:40.487Z</time>
      </trkpt>
      <trkpt lat="48.73047" lon="2.51944">
        <ele>98</ele>
        <time>2021-03-03T09:56:45.485Z</time>
      </trkpt>
      <trkpt lat="48.73042" lon="2.51953">
        <ele>98</ele>
        <time>2021-03-03T09:56:50.492Z</time>
      </trkpt>
      <trkpt lat="48.7304" lon="2.5196">
        <ele>98</ele>
        <time>2021-03-03T09:56:55.488Z</time>
      </trkpt>
      <trkpt lat="48.73035" lon="2.51969">
        <ele>98</ele>
        <time>2021-03-03T09:57:00.489Z</time>
      </trkpt>
      <trkpt lat="48.73032" lon="2.51977">
        <ele>98</ele>
        <time>2021-03-03T09:57:05.495Z</time>
      </trkpt>
      <trkpt lat="48.73028" lon="2.51984">
        <ele>98</ele>
        <time>2021-03-03T09:57:10.487Z</time>
      </trkpt>
      <trkpt lat="48.73023" lon="2.51993">
        <ele>96</ele>
        <time>2021-03-03T09:57:15.490Z</time>
      </trkpt>
      <trkpt lat="48.73021" lon="2.52">
        <ele>96</ele>
        <time>2021-03-03T09:57:20.486Z</time>
      </trkpt>
      <trkpt lat="48.73017" lon="2.52008">
        <ele>96</ele>
        <time>2021-03-03T09:57:25.484Z</time>
      </trkpt>
      <trkpt lat="48.73014" lon="2.52016">
        <ele>94</ele>
        <time>2021-03-03T09:57:30.489Z</time>
      </trkpt>
      <trkpt lat="48.73011" lon="2.52025">
        <ele>94</ele>
        <time>2021-03-03T09:57:35.488Z</time>
      </trkpt>
      <trkpt lat="48.73008" lon="2.52033">
        <ele>94</ele>
        <time>2021-03-03T09:57:40.482Z</time>
      </trkpt>
      <trkpt lat="48.73005" lon="2.5204">
        <ele>94</ele>
        <time>2021-03-03T09:57:45.489Z</time>
      </trkpt>
      <trkpt lat="48.73003" lon="2.52042">
        <ele>93</ele>
        <time>2021-03-03T09:57:49.489Z</time>
      </trkpt>
      <trkpt lat="48.72999" lon="2.52043">
        <ele>93</ele>
        <time>2021-03-03T09:57:54.488Z</time>
      </trkpt>
      <trkpt lat="48.72996" lon="2.52049">
        <ele>93</ele>
        <time>2021-03-03T09:57:59.488Z</time>
      </trkpt>
      <trkpt lat="48.72993" lon="2.52056">
        <ele>93</ele>
        <time>2021-03-03T09:58:04.485Z</time>
      </trkpt>
      <trkpt lat="48.72992" lon="2.5206">
        <ele>93</ele>
        <time>2021-03-03T09:58:08.490Z</time>
      </trkpt>
      <trkpt lat="48.7299" lon="2.52065">
        <ele>93</ele>
        <time>2021-03-03T09:58:13.485Z</time>
      </trkpt>
      <trkpt lat="48.72989" lon="2.52067">
        <ele>93</ele>
        <time>2021-03-03T09:58:18.483Z</time>
      </trkpt>
      <trkpt lat="48.72985" lon="2.52064">
        <ele>95</ele>
        <time>2021-03-03T09:58:23.488Z</time>
      </trkpt>
      <trkpt lat="48.72983" lon="2.52063">
        <ele>95</ele>
        <time>2021-03-03T09:58:28.495Z</time>
      </trkpt>
      <trkpt lat="48.72978" lon="2.52057">
        <ele>95</ele>
        <time>2021-03-03T09:58:33.487Z</time>
      </trkpt>
      <trkpt lat="48.72966" lon="2.52043">
        <ele>95</ele>
        <time>2021-03-03T10:03:53.481Z</time>
      </trkpt>
      <trkpt lat="48.72963" lon="2.52041">
        <ele>95</ele>
        <time>2021-03-03T10:04:26.481Z</time>
      </trkpt>
      <trkpt lat="48.72957" lon="2.52039">
        <ele>97</ele>
        <time>2021-03-03T10:04:31.478Z</time>
      </trkpt>
      <trkpt lat="48.72953" lon="2.52038">
        <ele>97</ele>
        <time>2021-03-03T10:04:35.480Z</time>
      </trkpt>
      <trkpt lat="48.72949" lon="2.52038">
        <ele>97</ele>
        <time>2021-03-03T10:04:40.480Z</time>
      </trkpt>
      <trkpt lat="48.72949" lon="2.52038">
        <ele>97</ele>
        <time>2021-03-03T10:05:07.486Z</time>
      </trkpt>
      <trkpt lat="48.72948" lon="2.52041">
        <ele>97</ele>
        <time>2021-03-03T10:05:12.487Z</time>
      </trkpt>
      <trkpt lat="48.72949" lon="2.52043">
        <ele>97</ele>
        <time>2021-03-03T10:05:16.469Z</time>
      </trkpt>
      <trkpt lat="48.72952" lon="2.52047">
        <ele>97</ele>
        <time>2021-03-03T10:05:20.485Z</time>
      </trkpt>
      <trkpt lat="48.72956" lon="2.52054">
        <ele>97</ele>
        <time>2021-03-03T10:05:25.462Z</time>
      </trkpt>
      <trkpt lat="48.7296" lon="2.52049">
        <ele>95</ele>
        <time>2021-03-03T10:05:43.459Z</time>
      </trkpt>
      <trkpt lat="48.72961" lon="2.52048">
        <ele>95</ele>
        <time>2021-03-03T10:05:48.455Z</time>
      </trkpt>
      <trkpt lat="48.72963" lon="2.52048">
        <ele>95</ele>
        <time>2021-03-03T10:05:58.458Z</time>
      </trkpt>
      <trkpt lat="48.72964" lon="2.52049">
        <ele>95</ele>
        <time>2021-03-03T10:06:03.463Z</time>
      </trkpt>
      <trkpt lat="48.72964" lon="2.52047">
        <ele>95</ele>
        <time>2021-03-03T10:06:08.472Z</time>
      </trkpt>
      <trkpt lat="48.72971" lon="2.52037">
        <ele>95</ele>
        <time>2021-03-03T10:06:43.473Z</time>
      </trkpt>
      <trkpt lat="48.72971" lon="2.52036">
        <ele>95</ele>
        <time>2021-03-03T10:06:47.482Z</time>
      </trkpt>
      <trkpt lat="48.72971" lon="2.52037">
        <ele>95</ele>
        <time>2021-03-03T10:06:52.478Z</time>
      </trkpt>
      <trkpt lat="48.72971" lon="2.52037">
        <ele>95</ele>
        <time>2021-03-03T10:06:57.491Z</time>
      </trkpt>
      <trkpt lat="48.72972" lon="2.52036">
        <ele>95</ele>
        <time>2021-03-03T10:07:06.479Z</time>
      </trkpt>
      <trkpt lat="48.72971" lon="2.52037">
        <ele>95</ele>
        <time>2021-03-03T10:09:30.481Z</time>
      </trkpt>
      <trkpt lat="48.72967" lon="2.52035">
        <ele>95</ele>
        <time>2021-03-03T10:09:35.481Z</time>
      </trkpt>
      <trkpt lat="48.72964" lon="2.52032">
        <ele>95</ele>
        <time>2021-03-03T10:09:40.471Z</time>
      </trkpt>
      <trkpt lat="48.72959" lon="2.52029">
        <ele>95</ele>
        <time>2021-03-03T10:09:45.472Z</time>
      </trkpt>
      <trkpt lat="48.72955" lon="2.52027">
        <ele>97</ele>
        <time>2021-03-03T10:09:49.487Z</time>
      </trkpt>
      <trkpt lat="48.7295" lon="2.52022">
        <ele>97</ele>
        <time>2021-03-03T10:09:54.456Z</time>
      </trkpt>
      <trkpt lat="48.72946" lon="2.52016">
        <ele>97</ele>
        <time>2021-03-03T10:09:58.460Z</time>
      </trkpt>
      <trkpt lat="48.72941" lon="2.52011">
        <ele>97</ele>
        <time>2021-03-03T10:10:03.462Z</time>
      </trkpt>
      <trkpt lat="48.72938" lon="2.52006">
        <ele>97</ele>
        <time>2021-03-03T10:10:08.467Z</time>
      </trkpt>
      <trkpt lat="48.72934" lon="2.52002">
        <ele>97</ele>
        <time>2021-03-03T10:10:13.474Z</time>
      </trkpt>
      <trkpt lat="48.7293" lon="2.51998">
        <ele>97</ele>
        <time>2021-03-03T10:10:18.481Z</time>
      </trkpt>
      <trkpt lat="48.72926" lon="2.51991">
        <ele>97</ele>
        <time>2021-03-03T10:10:23.460Z</time>
      </trkpt>
      <trkpt lat="48.72922" lon="2.51986">
        <ele>97</ele>
        <time>2021-03-03T10:10:28.474Z</time>
      </trkpt>
      <trkpt lat="48.72921" lon="2.51984">
        <ele>97</ele>
        <time>2021-03-03T10:10:33.477Z</time>
      </trkpt>
      <trkpt lat="48.72918" lon="2.5198">
        <ele>97</ele>
        <time>2021-03-03T10:10:38.465Z</time>
      </trkpt>
      <trkpt lat="48.72915" lon="2.51977">
        <ele>97</ele>
        <time>2021-03-03T10:10:42.475Z</time>
      </trkpt>
      <trkpt lat="48.72912" lon="2.51973">
        <ele>97</ele>
        <time>2021-03-03T10:10:46.482Z</time>
      </trkpt>
      <trkpt lat="48.72909" lon="2.5197">
        <ele>97</ele>
        <time>2021-03-03T10:10:51.476Z</time>
      </trkpt>
      <trkpt lat="48.72905" lon="2.51964">
        <ele>97</ele>
        <time>2021-03-03T10:10:56.482Z</time>
      </trkpt>
      <trkpt lat="48.72902" lon="2.5196">
        <ele>99</ele>
        <time>2021-03-03T10:11:01.473Z</time>
      </trkpt>
      <trkpt lat="48.72899" lon="2.51957">
        <ele>99</ele>
        <time>2021-03-03T10:11:05.472Z</time>
      </trkpt>
      <trkpt lat="48.72894" lon="2.51951">
        <ele>99</ele>
        <time>2021-03-03T10:11:10.471Z</time>
      </trkpt>
      <trkpt lat="48.72891" lon="2.51948">
        <ele>99</ele>
        <time>2021-03-03T10:11:14.481Z</time>
      </trkpt>
      <trkpt lat="48.72887" lon="2.51941">
        <ele>99</ele>
        <time>2021-03-03T10:11:19.483Z</time>
      </trkpt>
      <trkpt lat="48.72884" lon="2.51935">
        <ele>99</ele>
        <time>2021-03-03T10:11:24.479Z</time>
      </trkpt>
      <trkpt lat="48.7288" lon="2.5193">
        <ele>99</ele>
        <time>2021-03-03T10:11:29.465Z</time>
      </trkpt>
      <trkpt lat="48.72877" lon="2.51924">
        <ele>99</ele>
        <time>2021-03-03T10:11:34.475Z</time>
      </trkpt>
      <trkpt lat="48.72874" lon="2.51921">
        <ele>101</ele>
        <time>2021-03-03T10:11:39.476Z</time>
      </trkpt>
      <trkpt lat="48.72872" lon="2.51915">
        <ele>101</ele>
        <time>2021-03-03T10:11:44.470Z</time>
      </trkpt>
      <trkpt lat="48.72869" lon="2.51912">
        <ele>101</ele>
        <time>2021-03-03T10:11:48.474Z</time>
      </trkpt>
      <trkpt lat="48.72864" lon="2.51908">
        <ele>101</ele>
        <time>2021-03-03T10:11:53.475Z</time>
      </trkpt>
      <trkpt lat="48.7286" lon="2.51905">
        <ele>101</ele>
        <time>2021-03-03T10:11:58.475Z</time>
      </trkpt>
      <trkpt lat="48.72856" lon="2.519">
        <ele>101</ele>
        <time>2021-03-03T10:12:02.471Z</time>
      </trkpt>
      <trkpt lat="48.72851" lon="2.51895">
        <ele>101</ele>
        <time>2021-03-03T10:12:06.481Z</time>
      </trkpt>
      <trkpt lat="48.72845" lon="2.51888">
        <ele>103</ele>
        <time>2021-03-03T10:12:11.479Z</time>
      </trkpt>
      <trkpt lat="48.7284" lon="2.51881">
        <ele>103</ele>
        <time>2021-03-03T10:12:16.476Z</time>
      </trkpt>
      <trkpt lat="48.72835" lon="2.51874">
        <ele>103</ele>
        <time>2021-03-03T10:12:21.475Z</time>
      </trkpt>
      <trkpt lat="48.72831" lon="2.5187">
        <ele>103</ele>
        <time>2021-03-03T10:12:26.481Z</time>
      </trkpt>
      <trkpt lat="48.72828" lon="2.51864">
        <ele>103</ele>
        <time>2021-03-03T10:12:31.483Z</time>
      </trkpt>
      <trkpt lat="48.72827" lon="2.51862">
        <ele>103</ele>
        <time>2021-03-03T10:12:35.472Z</time>
      </trkpt>
      <trkpt lat="48.72821" lon="2.51853">
        <ele>103</ele>
        <time>2021-03-03T10:12:40.470Z</time>
      </trkpt>
      <trkpt lat="48.72817" lon="2.51849">
        <ele>104</ele>
        <time>2021-03-03T10:12:44.473Z</time>
      </trkpt>
      <trkpt lat="48.72813" lon="2.51843">
        <ele>105</ele>
        <time>2021-03-03T10:12:49.479Z</time>
      </trkpt>
      <trkpt lat="48.72806" lon="2.51839">
        <ele>105</ele>
        <time>2021-03-03T10:12:54.479Z</time>
      </trkpt>
      <trkpt lat="48.72801" lon="2.51833">
        <ele>105</ele>
        <time>2021-03-03T10:12:59.473Z</time>
      </trkpt>
      <trkpt lat="48.72797" lon="2.51827">
        <ele>105</ele>
        <time>2021-03-03T10:13:04.487Z</time>
      </trkpt>
      <trkpt lat="48.72793" lon="2.51821">
        <ele>105</ele>
        <time>2021-03-03T10:13:09.471Z</time>
      </trkpt>
      <trkpt lat="48.72788" lon="2.51815">
        <ele>108</ele>
        <time>2021-03-03T10:13:14.471Z</time>
      </trkpt>
      <trkpt lat="48.72784" lon="2.51808">
        <ele>108</ele>
        <time>2021-03-03T10:13:19.471Z</time>
      </trkpt>
      <trkpt lat="48.72779" lon="2.51802">
        <ele>108</ele>
        <time>2021-03-03T10:13:24.469Z</time>
      </trkpt>
      <trkpt lat="48.72775" lon="2.51799">
        <ele>108</ele>
        <time>2021-03-03T10:13:28.477Z</time>
      </trkpt>
      <trkpt lat="48.72771" lon="2.51793">
        <ele>108</ele>
        <time>2021-03-03T10:13:33.480Z</time>
      </trkpt>
      <trkpt lat="48.72766" lon="2.51788">
        <ele>108</ele>
        <time>2021-03-03T10:13:38.469Z</time>
      </trkpt>
      <trkpt lat="48.72763" lon="2.51783">
        <ele>110</ele>
        <time>2021-03-03T10:13:42.490Z</time>
      </trkpt>
      <trkpt lat="48.72759" lon="2.51778">
        <ele>110</ele>
        <time>2021-03-03T10:13:47.471Z</time>
      </trkpt>
      <trkpt lat="48.72757" lon="2.51775">
        <ele>110</ele>
        <time>2021-03-03T10:13:52.477Z</time>
      </trkpt>
      <trkpt lat="48.72752" lon="2.5177">
        <ele>110</ele>
        <time>2021-03-03T10:13:57.473Z</time>
      </trkpt>
      <trkpt lat="48.72748" lon="2.51766">
        <ele>110</ele>
        <time>2021-03-03T10:14:01.478Z</time>
      </trkpt>
      <trkpt lat="48.72744" lon="2.51759">
        <ele>111</ele>
        <time>2021-03-03T10:14:06.465Z</time>
      </trkpt>
      <trkpt lat="48.72739" lon="2.51754">
        <ele>111</ele>
        <time>2021-03-03T10:14:11.470Z</time>
      </trkpt>
      <trkpt lat="48.72734" lon="2.51749">
        <ele>111</ele>
        <time>2021-03-03T10:14:16.475Z</time>
      </trkpt>
      <trkpt lat="48.7273" lon="2.51746">
        <ele>111</ele>
        <time>2021-03-03T10:14:20.472Z</time>
      </trkpt>
      <trkpt lat="48.72725" lon="2.5174">
        <ele>111</ele>
        <time>2021-03-03T10:14:25.473Z</time>
      </trkpt>
      <trkpt lat="48.72721" lon="2.51734">
        <ele>110</ele>
        <time>2021-03-03T10:14:29.489Z</time>
      </trkpt>
      <trkpt lat="48.72716" lon="2.51725">
        <ele>110</ele>
        <time>2021-03-03T10:14:34.474Z</time>
      </trkpt>
      <trkpt lat="48.72712" lon="2.51721">
        <ele>110</ele>
        <time>2021-03-03T10:14:38.482Z</time>
      </trkpt>
      <trkpt lat="48.72706" lon="2.51713">
        <ele>110</ele>
        <time>2021-03-03T10:14:43.472Z</time>
      </trkpt>
      <trkpt lat="48.72705" lon="2.5171">
        <ele>110</ele>
        <time>2021-03-03T10:14:48.481Z</time>
      </trkpt>
      <trkpt lat="48.72699" lon="2.51703">
        <ele>110</ele>
        <time>2021-03-03T10:14:53.476Z</time>
      </trkpt>
      <trkpt lat="48.72696" lon="2.51697">
        <ele>110</ele>
        <time>2021-03-03T10:14:57.475Z</time>
      </trkpt>
      <trkpt lat="48.72691" lon="2.51691">
        <ele>110</ele>
        <time>2021-03-03T10:15:02.472Z</time>
      </trkpt>
      <trkpt lat="48.72688" lon="2.51685">
        <ele>110</ele>
        <time>2021-03-03T10:15:07.481Z</time>
      </trkpt>
      <trkpt lat="48.72683" lon="2.51681">
        <ele>110</ele>
        <time>2021-03-03T10:15:12.471Z</time>
      </trkpt>
      <trkpt lat="48.72679" lon="2.51681">
        <ele>111</ele>
        <time>2021-03-03T10:15:17.469Z</time>
      </trkpt>
      <trkpt lat="48.72673" lon="2.51682">
        <ele>111</ele>
        <time>2021-03-03T10:15:22.497Z</time>
      </trkpt>
      <trkpt lat="48.72669" lon="2.51683">
        <ele>111</ele>
        <time>2021-03-03T10:15:27.471Z</time>
      </trkpt>
      <trkpt lat="48.72663" lon="2.51683">
        <ele>111</ele>
        <time>2021-03-03T10:15:32.474Z</time>
      </trkpt>
      <trkpt lat="48.72658" lon="2.51685">
        <ele>111</ele>
        <time>2021-03-03T10:15:37.481Z</time>
      </trkpt>
      <trkpt lat="48.72652" lon="2.51685">
        <ele>111</ele>
        <time>2021-03-03T10:15:41.474Z</time>
      </trkpt>
      <trkpt lat="48.72646" lon="2.51685">
        <ele>111</ele>
        <time>2021-03-03T10:15:46.471Z</time>
      </trkpt>
      <trkpt lat="48.7264" lon="2.51685">
        <ele>111</ele>
        <time>2021-03-03T10:15:51.474Z</time>
      </trkpt>
      <trkpt lat="48.72636" lon="2.51684">
        <ele>111</ele>
        <time>2021-03-03T10:15:55.472Z</time>
      </trkpt>
      <trkpt lat="48.7263" lon="2.51681">
        <ele>111</ele>
        <time>2021-03-03T10:16:00.481Z</time>
      </trkpt>
      <trkpt lat="48.72625" lon="2.51675">
        <ele>112</ele>
        <time>2021-03-03T10:16:05.473Z</time>
      </trkpt>
      <trkpt lat="48.72622" lon="2.51671">
        <ele>112</ele>
        <time>2021-03-03T10:16:09.469Z</time>
      </trkpt>
      <trkpt lat="48.72616" lon="2.51668">
        <ele>112</ele>
        <time>2021-03-03T10:16:14.472Z</time>
      </trkpt>
      <trkpt lat="48.72612" lon="2.51662">
        <ele>112</ele>
        <time>2021-03-03T10:16:19.468Z</time>
      </trkpt>
      <trkpt lat="48.72608" lon="2.51655">
        <ele>112</ele>
        <time>2021-03-03T10:16:24.462Z</time>
      </trkpt>
      <trkpt lat="48.72607" lon="2.51653">
        <ele>112</ele>
        <time>2021-03-03T10:16:28.478Z</time>
      </trkpt>
      <trkpt lat="48.72604" lon="2.51644">
        <ele>113</ele>
        <time>2021-03-03T10:16:33.472Z</time>
      </trkpt>
      <trkpt lat="48.72603" lon="2.51637">
        <ele>113</ele>
        <time>2021-03-03T10:16:37.475Z</time>
      </trkpt>
      <trkpt lat="48.726" lon="2.51628">
        <ele>113</ele>
        <time>2021-03-03T10:16:42.486Z</time>
      </trkpt>
      <trkpt lat="48.72597" lon="2.51615">
        <ele>115</ele>
        <time>2021-03-03T10:16:47.474Z</time>
      </trkpt>
      <trkpt lat="48.72596" lon="2.51606">
        <ele>115</ele>
        <time>2021-03-03T10:16:51.478Z</time>
      </trkpt>
      <trkpt lat="48.72594" lon="2.51596">
        <ele>116</ele>
        <time>2021-03-03T10:16:56.455Z</time>
      </trkpt>
      <trkpt lat="48.72595" lon="2.51586">
        <ele>116</ele>
        <time>2021-03-03T10:17:01.477Z</time>
      </trkpt>
      <trkpt lat="48.72595" lon="2.51579">
        <ele>116</ele>
        <time>2021-03-03T10:17:05.475Z</time>
      </trkpt>
      <trkpt lat="48.72594" lon="2.5157">
        <ele>116</ele>
        <time>2021-03-03T10:17:10.468Z</time>
      </trkpt>
      <trkpt lat="48.72592" lon="2.51566">
        <ele>115</ele>
        <time>2021-03-03T10:17:14.474Z</time>
      </trkpt>
      <trkpt lat="48.72593" lon="2.51555">
        <ele>115</ele>
        <time>2021-03-03T10:17:19.471Z</time>
      </trkpt>
      <trkpt lat="48.72593" lon="2.51547">
        <ele>115</ele>
        <time>2021-03-03T10:17:23.467Z</time>
      </trkpt>
      <trkpt lat="48.72589" lon="2.51542">
        <ele>115</ele>
        <time>2021-03-03T10:17:28.470Z</time>
      </trkpt>
      <trkpt lat="48.72585" lon="2.51536">
        <ele>115</ele>
        <time>2021-03-03T10:17:33.445Z</time>
      </trkpt>
      <trkpt lat="48.72582" lon="2.51532">
        <ele>115</ele>
        <time>2021-03-03T10:17:37.465Z</time>
      </trkpt>
      <trkpt lat="48.72576" lon="2.51525">
        <ele>115</ele>
        <time>2021-03-03T10:17:42.450Z</time>
      </trkpt>
      <trkpt lat="48.72571" lon="2.51519">
        <ele>115</ele>
        <time>2021-03-03T10:17:46.452Z</time>
      </trkpt>
      <trkpt lat="48.72566" lon="2.51514">
        <ele>116</ele>
        <time>2021-03-03T10:17:51.472Z</time>
      </trkpt>
      <trkpt lat="48.72561" lon="2.5151">
        <ele>116</ele>
        <time>2021-03-03T10:17:56.481Z</time>
      </trkpt>
      <trkpt lat="48.72557" lon="2.51503">
        <ele>116</ele>
        <time>2021-03-03T10:18:01.476Z</time>
      </trkpt>
      <trkpt lat="48.72552" lon="2.51498">
        <ele>116</ele>
        <time>2021-03-03T10:18:06.462Z</time>
      </trkpt>
      <trkpt lat="48.72546" lon="2.51492">
        <ele>116</ele>
        <time>2021-03-03T10:18:11.463Z</time>
      </trkpt>
      <trkpt lat="48.72542" lon="2.51487">
        <ele>116</ele>
        <time>2021-03-03T10:18:15.456Z</time>
      </trkpt>
      <trkpt lat="48.72537" lon="2.51479">
        <ele>117</ele>
        <time>2021-03-03T10:18:20.472Z</time>
      </trkpt>
      <trkpt lat="48.72533" lon="2.51473">
        <ele>117</ele>
        <time>2021-03-03T10:18:25.471Z</time>
      </trkpt>
      <trkpt lat="48.72529" lon="2.51467">
        <ele>117</ele>
        <time>2021-03-03T10:18:30.455Z</time>
      </trkpt>
      <trkpt lat="48.72527" lon="2.51464">
        <ele>117</ele>
        <time>2021-03-03T10:18:34.468Z</time>
      </trkpt>
      <trkpt lat="48.72527" lon="2.51458">
        <ele>116</ele>
        <time>2021-03-03T10:18:39.472Z</time>
      </trkpt>
      <trkpt lat="48.72527" lon="2.5145">
        <ele>116</ele>
        <time>2021-03-03T10:18:44.477Z</time>
      </trkpt>
      <trkpt lat="48.72525" lon="2.51442">
        <ele>116</ele>
        <time>2021-03-03T10:18:48.477Z</time>
      </trkpt>
      <trkpt lat="48.72522" lon="2.51436">
        <ele>116</ele>
        <time>2021-03-03T10:18:53.450Z</time>
      </trkpt>
      <trkpt lat="48.72519" lon="2.51428">
        <ele>116</ele>
        <time>2021-03-03T10:18:58.474Z</time>
      </trkpt>
      <trkpt lat="48.72512" lon="2.51423">
        <ele>116</ele>
        <time>2021-03-03T10:19:03.500Z</time>
      </trkpt>
      <trkpt lat="48.72507" lon="2.51417">
        <ele>116</ele>
        <time>2021-03-03T10:19:08.481Z</time>
      </trkpt>
      <trkpt lat="48.72501" lon="2.5141">
        <ele>116</ele>
        <time>2021-03-03T10:19:13.462Z</time>
      </trkpt>
      <trkpt lat="48.72497" lon="2.51403">
        <ele>116</ele>
        <time>2021-03-03T10:19:18.449Z</time>
      </trkpt>
      <trkpt lat="48.72493" lon="2.51397">
        <ele>116</ele>
        <time>2021-03-03T10:19:23.466Z</time>
      </trkpt>
      <trkpt lat="48.7249" lon="2.51392">
        <ele>116</ele>
        <time>2021-03-03T10:19:27.477Z</time>
      </trkpt>
      <trkpt lat="48.72484" lon="2.51387">
        <ele>115</ele>
        <time>2021-03-03T10:19:32.490Z</time>
      </trkpt>
      <trkpt lat="48.7248" lon="2.51381">
        <ele>115</ele>
        <time>2021-03-03T10:19:37.450Z</time>
      </trkpt>
      <trkpt lat="48.72475" lon="2.51376">
        <ele>115</ele>
        <time>2021-03-03T10:19:41.478Z</time>
      </trkpt>
      <trkpt lat="48.72472" lon="2.51369">
        <ele>116</ele>
        <time>2021-03-03T10:19:46.467Z</time>
      </trkpt>
      <trkpt lat="48.72468" lon="2.51363">
        <ele>116</ele>
        <time>2021-03-03T10:19:50.462Z</time>
      </trkpt>
      <trkpt lat="48.72464" lon="2.51358">
        <ele>116</ele>
        <time>2021-03-03T10:19:55.475Z</time>
      </trkpt>
      <trkpt lat="48.7246" lon="2.51352">
        <ele>116</ele>
        <time>2021-03-03T10:20:00.465Z</time>
      </trkpt>
      <trkpt lat="48.72454" lon="2.51345">
        <ele>117</ele>
        <time>2021-03-03T10:20:05.473Z</time>
      </trkpt>
      <trkpt lat="48.72449" lon="2.5134">
        <ele>117</ele>
        <time>2021-03-03T10:20:10.476Z</time>
      </trkpt>
      <trkpt lat="48.72446" lon="2.51336">
        <ele>117</ele>
        <time>2021-03-03T10:20:15.472Z</time>
      </trkpt>
      <trkpt lat="48.72444" lon="2.51332">
        <ele>117</ele>
        <time>2021-03-03T10:20:20.471Z</time>
      </trkpt>
      <trkpt lat="48.72441" lon="2.51327">
        <ele>117</ele>
        <time>2021-03-03T10:20:25.458Z</time>
      </trkpt>
      <trkpt lat="48.72437" lon="2.51322">
        <ele>117</ele>
        <time>2021-03-03T10:20:29.467Z</time>
      </trkpt>
      <trkpt lat="48.72436" lon="2.51315">
        <ele>118</ele>
        <time>2021-03-03T10:20:34.472Z</time>
      </trkpt>
      <trkpt lat="48.72438" lon="2.51308">
        <ele>118</ele>
        <time>2021-03-03T10:20:39.476Z</time>
      </trkpt>
      <trkpt lat="48.7244" lon="2.51301">
        <ele>118</ele>
        <time>2021-03-03T10:20:44.469Z</time>
      </trkpt>
      <trkpt lat="48.72444" lon="2.51294">
        <ele>118</ele>
        <time>2021-03-03T10:20:49.465Z</time>
      </trkpt>
      <trkpt lat="48.72446" lon="2.51288">
        <ele>119</ele>
        <time>2021-03-03T10:20:53.477Z</time>
      </trkpt>
      <trkpt lat="48.72449" lon="2.51282">
        <ele>119</ele>
        <time>2021-03-03T10:20:58.475Z</time>
      </trkpt>
      <trkpt lat="48.72453" lon="2.51275">
        <ele>119</ele>
        <time>2021-03-03T10:21:03.476Z</time>
      </trkpt>
      <trkpt lat="48.72456" lon="2.5127">
        <ele>119</ele>
        <time>2021-03-03T10:21:07.468Z</time>
      </trkpt>
      <trkpt lat="48.7246" lon="2.51264">
        <ele>119</ele>
        <time>2021-03-03T10:21:12.472Z</time>
      </trkpt>
      <trkpt lat="48.72463" lon="2.51257">
        <ele>120</ele>
        <time>2021-03-03T10:21:17.470Z</time>
      </trkpt>
      <trkpt lat="48.72467" lon="2.51251">
        <ele>120</ele>
        <time>2021-03-03T10:21:21.472Z</time>
      </trkpt>
      <trkpt lat="48.72471" lon="2.51243">
        <ele>120</ele>
        <time>2021-03-03T10:21:26.479Z</time>
      </trkpt>
      <trkpt lat="48.72474" lon="2.51237">
        <ele>120</ele>
        <time>2021-03-03T10:21:31.466Z</time>
      </trkpt>
      <trkpt lat="48.72479" lon="2.51228">
        <ele>120</ele>
        <time>2021-03-03T10:21:36.459Z</time>
      </trkpt>
      <trkpt lat="48.72482" lon="2.51224">
        <ele>120</ele>
        <time>2021-03-03T10:21:40.500Z</time>
      </trkpt>
      <trkpt lat="48.72485" lon="2.51218">
        <ele>120</ele>
        <time>2021-03-03T10:21:45.468Z</time>
      </trkpt>
      <trkpt lat="48.7249" lon="2.51214">
        <ele>119</ele>
        <time>2021-03-03T10:21:50.464Z</time>
      </trkpt>
      <trkpt lat="48.72494" lon="2.51208">
        <ele>119</ele>
        <time>2021-03-03T10:21:55.483Z</time>
      </trkpt>
      <trkpt lat="48.72499" lon="2.51202">
        <ele>119</ele>
        <time>2021-03-03T10:22:00.475Z</time>
      </trkpt>
      <trkpt lat="48.72503" lon="2.51192">
        <ele>119</ele>
        <time>2021-03-03T10:22:05.471Z</time>
      </trkpt>
      <trkpt lat="48.72508" lon="2.51187">
        <ele>119</ele>
        <time>2021-03-03T10:22:10.472Z</time>
      </trkpt>
      <trkpt lat="48.7251" lon="2.51185">
        <ele>119</ele>
        <time>2021-03-03T10:22:14.480Z</time>
      </trkpt>
      <trkpt lat="48.72514" lon="2.51178">
        <ele>119</ele>
        <time>2021-03-03T10:22:19.473Z</time>
      </trkpt>
      <trkpt lat="48.72517" lon="2.5117">
        <ele>118</ele>
        <time>2021-03-03T10:22:24.461Z</time>
      </trkpt>
      <trkpt lat="48.7252" lon="2.51164">
        <ele>118</ele>
        <time>2021-03-03T10:22:29.478Z</time>
      </trkpt>
      <trkpt lat="48.72523" lon="2.51159">
        <ele>118</ele>
        <time>2021-03-03T10:22:33.475Z</time>
      </trkpt>
      <trkpt lat="48.72527" lon="2.51152">
        <ele>119</ele>
        <time>2021-03-03T10:22:38.475Z</time>
      </trkpt>
      <trkpt lat="48.72531" lon="2.51145">
        <ele>119</ele>
        <time>2021-03-03T10:22:43.475Z</time>
      </trkpt>
      <trkpt lat="48.72536" lon="2.5114">
        <ele>119</ele>
        <time>2021-03-03T10:22:48.477Z</time>
      </trkpt>
      <trkpt lat="48.72538" lon="2.51134">
        <ele>119</ele>
        <time>2021-03-03T10:22:52.473Z</time>
      </trkpt>
      <trkpt lat="48.72543" lon="2.51128">
        <ele>118</ele>
        <time>2021-03-03T10:22:57.459Z</time>
      </trkpt>
      <trkpt lat="48.72545" lon="2.51123">
        <ele>119</ele>
        <time>2021-03-03T10:23:02.477Z</time>
      </trkpt>
      <trkpt lat="48.72549" lon="2.51118">
        <ele>119</ele>
        <time>2021-03-03T10:23:07.470Z</time>
      </trkpt>
      <trkpt lat="48.72551" lon="2.51113">
        <ele>119</ele>
        <time>2021-03-03T10:23:11.465Z</time>
      </trkpt>
      <trkpt lat="48.72554" lon="2.51107">
        <ele>119</ele>
        <time>2021-03-03T10:23:16.470Z</time>
      </trkpt>
      <trkpt lat="48.72556" lon="2.51103">
        <ele>119</ele>
        <time>2021-03-03T10:23:21.466Z</time>
      </trkpt>
      <trkpt lat="48.72559" lon="2.51104">
        <ele>119</ele>
        <time>2021-03-03T10:23:26.475Z</time>
      </trkpt>
      <trkpt lat="48.72562" lon="2.51101">
        <ele>119</ele>
        <time>2021-03-03T10:23:31.469Z</time>
      </trkpt>
      <trkpt lat="48.72564" lon="2.51095">
        <ele>119</ele>
        <time>2021-03-03T10:23:36.464Z</time>
      </trkpt>
      <trkpt lat="48.72566" lon="2.51091">
        <ele>119</ele>
        <time>2021-03-03T10:23:41.475Z</time>
      </trkpt>
      <trkpt lat="48.72567" lon="2.51081">
        <ele>119</ele>
        <time>2021-03-03T10:23:45.461Z</time>
      </trkpt>
      <trkpt lat="48.72571" lon="2.51074">
        <ele>117</ele>
        <time>2021-03-03T10:23:50.468Z</time>
      </trkpt>
      <trkpt lat="48.72574" lon="2.51068">
        <ele>117</ele>
        <time>2021-03-03T10:23:55.454Z</time>
      </trkpt>
      <trkpt lat="48.72578" lon="2.5106">
        <ele>117</ele>
        <time>2021-03-03T10:24:00.473Z</time>
      </trkpt>
      <trkpt lat="48.72581" lon="2.51053">
        <ele>117</ele>
        <time>2021-03-03T10:24:05.475Z</time>
      </trkpt>
      <trkpt lat="48.72586" lon="2.51047">
        <ele>117</ele>
        <time>2021-03-03T10:24:10.462Z</time>
      </trkpt>
      <trkpt lat="48.72589" lon="2.51043">
        <ele>117</ele>
        <time>2021-03-03T10:24:14.470Z</time>
      </trkpt>
      <trkpt lat="48.72594" lon="2.51036">
        <ele>118</ele>
        <time>2021-03-03T10:24:19.465Z</time>
      </trkpt>
      <trkpt lat="48.72599" lon="2.51031">
        <ele>117</ele>
        <time>2021-03-03T10:24:24.472Z</time>
      </trkpt>
      <trkpt lat="48.72601" lon="2.51029">
        <ele>117</ele>
        <time>2021-03-03T10:24:29.466Z</time>
      </trkpt>
      <trkpt lat="48.72603" lon="2.51023">
        <ele>117</ele>
        <time>2021-03-03T10:24:34.471Z</time>
      </trkpt>
      <trkpt lat="48.72605" lon="2.5102">
        <ele>117</ele>
        <time>2021-03-03T10:24:38.478Z</time>
      </trkpt>
      <trkpt lat="48.72611" lon="2.51016">
        <ele>117</ele>
        <time>2021-03-03T10:24:43.472Z</time>
      </trkpt>
      <trkpt lat="48.72614" lon="2.51011">
        <ele>117</ele>
        <time>2021-03-03T10:24:47.466Z</time>
      </trkpt>
      <trkpt lat="48.72616" lon="2.51005">
        <ele>117</ele>
        <time>2021-03-03T10:24:52.484Z</time>
      </trkpt>
      <trkpt lat="48.72615" lon="2.50994">
        <ele>117</ele>
        <time>2021-03-03T10:24:57.456Z</time>
      </trkpt>
      <trkpt lat="48.72616" lon="2.50991">
        <ele>117</ele>
        <time>2021-03-03T10:25:01.478Z</time>
      </trkpt>
      <trkpt lat="48.72617" lon="2.50991">
        <ele>117</ele>
        <time>2021-03-03T10:25:19.476Z</time>
      </trkpt>
      <trkpt lat="48.72617" lon="2.50988">
        <ele>117</ele>
        <time>2021-03-03T10:25:32.477Z</time>
      </trkpt>
      <trkpt lat="48.72617" lon="2.50982">
        <ele>117</ele>
        <time>2021-03-03T10:25:37.455Z</time>
      </trkpt>
      <trkpt lat="48.72616" lon="2.50973">
        <ele>117</ele>
        <time>2021-03-03T10:25:42.460Z</time>
      </trkpt>
      <trkpt lat="48.72617" lon="2.50966">
        <ele>117</ele>
        <time>2021-03-03T10:25:46.468Z</time>
      </trkpt>
      <trkpt lat="48.72618" lon="2.5096">
        <ele>117</ele>
        <time>2021-03-03T10:25:51.448Z</time>
      </trkpt>
      <trkpt lat="48.72619" lon="2.50955">
        <ele>117</ele>
        <time>2021-03-03T10:25:55.473Z</time>
      </trkpt>
      <trkpt lat="48.72619" lon="2.50947">
        <ele>117</ele>
        <time>2021-03-03T10:26:00.452Z</time>
      </trkpt>
      <trkpt lat="48.7262" lon="2.50939">
        <ele>117</ele>
        <time>2021-03-03T10:26:05.465Z</time>
      </trkpt>
      <trkpt lat="48.72622" lon="2.50931">
        <ele>117</ele>
        <time>2021-03-03T10:26:10.468Z</time>
      </trkpt>
      <trkpt lat="48.7262" lon="2.50926">
        <ele>117</ele>
        <time>2021-03-03T10:26:15.468Z</time>
      </trkpt>
      <trkpt lat="48.7262" lon="2.5092">
        <ele>117</ele>
        <time>2021-03-03T10:26:19.461Z</time>
      </trkpt>
      <trkpt lat="48.72621" lon="2.50913">
        <ele>117</ele>
        <time>2021-03-03T10:26:23.461Z</time>
      </trkpt>
      <trkpt lat="48.7262" lon="2.50905">
        <ele>117</ele>
        <time>2021-03-03T10:26:28.469Z</time>
      </trkpt>
      <trkpt lat="48.72618" lon="2.50896">
        <ele>117</ele>
        <time>2021-03-03T10:26:33.477Z</time>
      </trkpt>
      <trkpt lat="48.72617" lon="2.50889">
        <ele>117</ele>
        <time>2021-03-03T10:26:37.464Z</time>
      </trkpt>
      <trkpt lat="48.72617" lon="2.50882">
        <ele>117</ele>
        <time>2021-03-03T10:26:42.459Z</time>
      </trkpt>
      <trkpt lat="48.72619" lon="2.50879">
        <ele>117</ele>
        <time>2021-03-03T10:26:47.475Z</time>
      </trkpt>
      <trkpt lat="48.72621" lon="2.50875">
        <ele>117</ele>
        <time>2021-03-03T10:26:52.462Z</time>
      </trkpt>
      <trkpt lat="48.72627" lon="2.50874">
        <ele>118</ele>
        <time>2021-03-03T10:26:57.450Z</time>
      </trkpt>
      <trkpt lat="48.72632" lon="2.50871">
        <ele>118</ele>
        <time>2021-03-03T10:27:02.459Z</time>
      </trkpt>
      <trkpt lat="48.72635" lon="2.50871">
        <ele>118</ele>
        <time>2021-03-03T10:27:07.446Z</time>
      </trkpt>
      <trkpt lat="48.72637" lon="2.5087">
        <ele>118</ele>
        <time>2021-03-03T10:27:11.455Z</time>
      </trkpt>
      <trkpt lat="48.72641" lon="2.50868">
        <ele>118</ele>
        <time>2021-03-03T10:27:15.475Z</time>
      </trkpt>
      <trkpt lat="48.72645" lon="2.50866">
        <ele>118</ele>
        <time>2021-03-03T10:27:20.451Z</time>
      </trkpt>
      <trkpt lat="48.72648" lon="2.50864">
        <ele>118</ele>
        <time>2021-03-03T10:27:24.481Z</time>
      </trkpt>
      <trkpt lat="48.72654" lon="2.50863">
        <ele>118</ele>
        <time>2021-03-03T10:27:29.468Z</time>
      </trkpt>
      <trkpt lat="48.72658" lon="2.50863">
        <ele>118</ele>
        <time>2021-03-03T10:27:33.466Z</time>
      </trkpt>
      <trkpt lat="48.72661" lon="2.50863">
        <ele>118</ele>
        <time>2021-03-03T10:27:38.464Z</time>
      </trkpt>
      <trkpt lat="48.72667" lon="2.50861">
        <ele>118</ele>
        <time>2021-03-03T10:27:43.460Z</time>
      </trkpt>
      <trkpt lat="48.72672" lon="2.50859">
        <ele>118</ele>
        <time>2021-03-03T10:27:47.474Z</time>
      </trkpt>
      <trkpt lat="48.72678" lon="2.50856">
        <ele>118</ele>
        <time>2021-03-03T10:27:52.459Z</time>
      </trkpt>
      <trkpt lat="48.72683" lon="2.50854">
        <ele>119</ele>
        <time>2021-03-03T10:27:57.460Z</time>
      </trkpt>
      <trkpt lat="48.72688" lon="2.50852">
        <ele>119</ele>
        <time>2021-03-03T10:28:01.468Z</time>
      </trkpt>
      <trkpt lat="48.72694" lon="2.50851">
        <ele>119</ele>
        <time>2021-03-03T10:28:06.483Z</time>
      </trkpt>
      <trkpt lat="48.72699" lon="2.5085">
        <ele>119</ele>
        <time>2021-03-03T10:28:11.478Z</time>
      </trkpt>
      <trkpt lat="48.72705" lon="2.5085">
        <ele>119</ele>
        <time>2021-03-03T10:28:16.476Z</time>
      </trkpt>
      <trkpt lat="48.72711" lon="2.50846">
        <ele>119</ele>
        <time>2021-03-03T10:28:21.466Z</time>
      </trkpt>
      <trkpt lat="48.72717" lon="2.50845">
        <ele>119</ele>
        <time>2021-03-03T10:28:26.468Z</time>
      </trkpt>
      <trkpt lat="48.72722" lon="2.50845">
        <ele>119</ele>
        <time>2021-03-03T10:28:30.471Z</time>
      </trkpt>
      <trkpt lat="48.72725" lon="2.50843">
        <ele>119</ele>
        <time>2021-03-03T10:28:35.469Z</time>
      </trkpt>
      <trkpt lat="48.72733" lon="2.5084">
        <ele>119</ele>
        <time>2021-03-03T10:28:40.450Z</time>
      </trkpt>
      <trkpt lat="48.72738" lon="2.50837">
        <ele>118</ele>
        <time>2021-03-03T10:28:45.478Z</time>
      </trkpt>
      <trkpt lat="48.72744" lon="2.50838">
        <ele>118</ele>
        <time>2021-03-03T10:28:50.468Z</time>
      </trkpt>
      <trkpt lat="48.7275" lon="2.50834">
        <ele>118</ele>
        <time>2021-03-03T10:28:55.453Z</time>
      </trkpt>
      <trkpt lat="48.72755" lon="2.50833">
        <ele>118</ele>
        <time>2021-03-03T10:28:59.464Z</time>
      </trkpt>
      <trkpt lat="48.7276" lon="2.50831">
        <ele>118</ele>
        <time>2021-03-03T10:29:03.477Z</time>
      </trkpt>
      <trkpt lat="48.72765" lon="2.5083">
        <ele>116</ele>
        <time>2021-03-03T10:29:08.454Z</time>
      </trkpt>
      <trkpt lat="48.72769" lon="2.50828">
        <ele>116</ele>
        <time>2021-03-03T10:29:13.470Z</time>
      </trkpt>
      <trkpt lat="48.72773" lon="2.50825">
        <ele>116</ele>
        <time>2021-03-03T10:29:17.456Z</time>
      </trkpt>
      <trkpt lat="48.72779" lon="2.50823">
        <ele>116</ele>
        <time>2021-03-03T10:29:22.454Z</time>
      </trkpt>
      <trkpt lat="48.72784" lon="2.5082">
        <ele>116</ele>
        <time>2021-03-03T10:29:27.458Z</time>
      </trkpt>
      <trkpt lat="48.72791" lon="2.50817">
        <ele>115</ele>
        <time>2021-03-03T10:29:32.475Z</time>
      </trkpt>
      <trkpt lat="48.72796" lon="2.50814">
        <ele>112</ele>
        <time>2021-03-03T10:29:37.481Z</time>
      </trkpt>
      <trkpt lat="48.72802" lon="2.5081">
        <ele>112</ele>
        <time>2021-03-03T10:29:42.472Z</time>
      </trkpt>
      <trkpt lat="48.72806" lon="2.5081">
        <ele>112</ele>
        <time>2021-03-03T10:29:47.475Z</time>
      </trkpt>
      <trkpt lat="48.72807" lon="2.50806">
        <ele>112</ele>
        <time>2021-03-03T10:29:52.454Z</time>
      </trkpt>
      <trkpt lat="48.7281" lon="2.508">
        <ele>112</ele>
        <time>2021-03-03T10:29:56.459Z</time>
      </trkpt>
      <trkpt lat="48.72812" lon="2.50795">
        <ele>112</ele>
        <time>2021-03-03T10:30:00.474Z</time>
      </trkpt>
      <trkpt lat="48.72815" lon="2.50789">
        <ele>110</ele>
        <time>2021-03-03T10:30:05.454Z</time>
      </trkpt>
      <trkpt lat="48.72818" lon="2.50784">
        <ele>110</ele>
        <time>2021-03-03T10:30:10.475Z</time>
      </trkpt>
      <trkpt lat="48.72819" lon="2.5078">
        <ele>110</ele>
        <time>2021-03-03T10:30:15.453Z</time>
      </trkpt>
      <trkpt lat="48.72824" lon="2.50773">
        <ele>109</ele>
        <time>2021-03-03T10:30:20.459Z</time>
      </trkpt>
      <trkpt lat="48.72828" lon="2.50764">
        <ele>109</ele>
        <time>2021-03-03T10:30:25.462Z</time>
      </trkpt>
      <trkpt lat="48.72832" lon="2.50755">
        <ele>109</ele>
        <time>2021-03-03T10:30:30.458Z</time>
      </trkpt>
      <trkpt lat="48.72835" lon="2.50745">
        <ele>109</ele>
        <time>2021-03-03T10:30:35.464Z</time>
      </trkpt>
      <trkpt lat="48.72836" lon="2.50738">
        <ele>109</ele>
        <time>2021-03-03T10:30:39.466Z</time>
      </trkpt>
      <trkpt lat="48.7284" lon="2.5073">
        <ele>109</ele>
        <time>2021-03-03T10:30:44.471Z</time>
      </trkpt>
      <trkpt lat="48.72841" lon="2.50724">
        <ele>109</ele>
        <time>2021-03-03T10:30:48.453Z</time>
      </trkpt>
      <trkpt lat="48.72843" lon="2.50716">
        <ele>109</ele>
        <time>2021-03-03T10:30:53.459Z</time>
      </trkpt>
      <trkpt lat="48.72844" lon="2.5071">
        <ele>109</ele>
        <time>2021-03-03T10:30:58.453Z</time>
      </trkpt>
      <trkpt lat="48.72841" lon="2.50706">
        <ele>108</ele>
        <time>2021-03-03T10:31:03.470Z</time>
      </trkpt>
      <trkpt lat="48.72837" lon="2.50699">
        <ele>108</ele>
        <time>2021-03-03T10:31:08.461Z</time>
      </trkpt>
      <trkpt lat="48.72835" lon="2.50693">
        <ele>108</ele>
        <time>2021-03-03T10:31:12.469Z</time>
      </trkpt>
      <trkpt lat="48.7283" lon="2.50687">
        <ele>108</ele>
        <time>2021-03-03T10:31:17.463Z</time>
      </trkpt>
      <trkpt lat="48.72825" lon="2.50678">
        <ele>107</ele>
        <time>2021-03-03T10:31:22.468Z</time>
      </trkpt>
      <trkpt lat="48.72821" lon="2.50673">
        <ele>107</ele>
        <time>2021-03-03T10:31:27.463Z</time>
      </trkpt>
      <trkpt lat="48.72818" lon="2.50669">
        <ele>108</ele>
        <time>2021-03-03T10:31:32.466Z</time>
      </trkpt>
      <trkpt lat="48.72815" lon="2.50665">
        <ele>108</ele>
        <time>2021-03-03T10:31:36.464Z</time>
      </trkpt>
      <trkpt lat="48.72811" lon="2.50659">
        <ele>108</ele>
        <time>2021-03-03T10:31:41.470Z</time>
      </trkpt>
      <trkpt lat="48.72808" lon="2.50653">
        <ele>108</ele>
        <time>2021-03-03T10:31:46.464Z</time>
      </trkpt>
      <trkpt lat="48.72803" lon="2.50646">
        <ele>108</ele>
        <time>2021-03-03T10:31:51.464Z</time>
      </trkpt>
      <trkpt lat="48.72801" lon="2.50643">
        <ele>108</ele>
        <time>2021-03-03T10:31:55.466Z</time>
      </trkpt>
      <trkpt lat="48.72798" lon="2.50639">
        <ele>108</ele>
        <time>2021-03-03T10:32:00.456Z</time>
      </trkpt>
      <trkpt lat="48.72794" lon="2.50633">
        <ele>108</ele>
        <time>2021-03-03T10:32:04.465Z</time>
      </trkpt>
      <trkpt lat="48.7279" lon="2.50626">
        <ele>109</ele>
        <time>2021-03-03T10:32:09.464Z</time>
      </trkpt>
      <trkpt lat="48.72786" lon="2.50618">
        <ele>108</ele>
        <time>2021-03-03T10:32:14.470Z</time>
      </trkpt>
      <trkpt lat="48.72783" lon="2.50613">
        <ele>108</ele>
        <time>2021-03-03T10:32:18.466Z</time>
      </trkpt>
      <trkpt lat="48.72777" lon="2.50607">
        <ele>108</ele>
        <time>2021-03-03T10:32:23.465Z</time>
      </trkpt>
      <trkpt lat="48.72773" lon="2.50601">
        <ele>108</ele>
        <time>2021-03-03T10:32:28.471Z</time>
      </trkpt>
      <trkpt lat="48.7277" lon="2.50593">
        <ele>106</ele>
        <time>2021-03-03T10:32:33.459Z</time>
      </trkpt>
      <trkpt lat="48.72763" lon="2.50587">
        <ele>106</ele>
        <time>2021-03-03T10:32:38.459Z</time>
      </trkpt>
      <trkpt lat="48.72759" lon="2.50583">
        <ele>106</ele>
        <time>2021-03-03T10:32:43.469Z</time>
      </trkpt>
      <trkpt lat="48.72755" lon="2.50578">
        <ele>106</ele>
        <time>2021-03-03T10:32:48.459Z</time>
      </trkpt>
      <trkpt lat="48.72753" lon="2.50575">
        <ele>106</ele>
        <time>2021-03-03T10:32:53.470Z</time>
      </trkpt>
      <trkpt lat="48.7275" lon="2.50567">
        <ele>105</ele>
        <time>2021-03-03T10:32:58.462Z</time>
      </trkpt>
      <trkpt lat="48.72746" lon="2.5056">
        <ele>105</ele>
        <time>2021-03-03T10:33:03.470Z</time>
      </trkpt>
      <trkpt lat="48.72741" lon="2.50553">
        <ele>105</ele>
        <time>2021-03-03T10:33:08.452Z</time>
      </trkpt>
      <trkpt lat="48.72737" lon="2.50547">
        <ele>105</ele>
        <time>2021-03-03T10:33:12.471Z</time>
      </trkpt>
      <trkpt lat="48.72733" lon="2.50541">
        <ele>108</ele>
        <time>2021-03-03T10:33:17.460Z</time>
      </trkpt>
      <trkpt lat="48.72729" lon="2.50536">
        <ele>108</ele>
        <time>2021-03-03T10:33:21.457Z</time>
      </trkpt>
      <trkpt lat="48.72723" lon="2.50532">
        <ele>108</ele>
        <time>2021-03-03T10:33:25.469Z</time>
      </trkpt>
      <trkpt lat="48.72717" lon="2.50528">
        <ele>108</ele>
        <time>2021-03-03T10:33:30.472Z</time>
      </trkpt>
      <trkpt lat="48.72712" lon="2.5052">
        <ele>108</ele>
        <time>2021-03-03T10:33:35.472Z</time>
      </trkpt>
      <trkpt lat="48.72708" lon="2.50515">
        <ele>110</ele>
        <time>2021-03-03T10:33:40.466Z</time>
      </trkpt>
      <trkpt lat="48.72704" lon="2.5051">
        <ele>111</ele>
        <time>2021-03-03T10:33:45.465Z</time>
      </trkpt>
      <trkpt lat="48.727" lon="2.50504">
        <ele>111</ele>
        <time>2021-03-03T10:33:50.467Z</time>
      </trkpt>
      <trkpt lat="48.72696" lon="2.505">
        <ele>111</ele>
        <time>2021-03-03T10:33:55.467Z</time>
      </trkpt>
      <trkpt lat="48.72692" lon="2.50494">
        <ele>111</ele>
        <time>2021-03-03T10:33:59.461Z</time>
      </trkpt>
      <trkpt lat="48.72687" lon="2.50491">
        <ele>111</ele>
        <time>2021-03-03T10:34:04.468Z</time>
      </trkpt>
      <trkpt lat="48.72681" lon="2.50488">
        <ele>111</ele>
        <time>2021-03-03T10:34:09.448Z</time>
      </trkpt>
      <trkpt lat="48.72678" lon="2.50484">
        <ele>111</ele>
        <time>2021-03-03T10:34:13.472Z</time>
      </trkpt>
      <trkpt lat="48.72672" lon="2.50481">
        <ele>111</ele>
        <time>2021-03-03T10:34:18.462Z</time>
      </trkpt>
      <trkpt lat="48.72666" lon="2.50476">
        <ele>111</ele>
        <time>2021-03-03T10:34:23.464Z</time>
      </trkpt>
      <trkpt lat="48.72663" lon="2.50473">
        <ele>111</ele>
        <time>2021-03-03T10:34:27.468Z</time>
      </trkpt>
      <trkpt lat="48.72658" lon="2.5047">
        <ele>111</ele>
        <time>2021-03-03T10:34:32.464Z</time>
      </trkpt>
      <trkpt lat="48.72652" lon="2.50465">
        <ele>112</ele>
        <time>2021-03-03T10:34:37.470Z</time>
      </trkpt>
      <trkpt lat="48.72646" lon="2.5046">
        <ele>112</ele>
        <time>2021-03-03T10:34:42.462Z</time>
      </trkpt>
      <trkpt lat="48.72639" lon="2.50455">
        <ele>112</ele>
        <time>2021-03-03T10:34:47.466Z</time>
      </trkpt>
      <trkpt lat="48.72635" lon="2.5045">
        <ele>112</ele>
        <time>2021-03-03T10:34:51.461Z</time>
      </trkpt>
      <trkpt lat="48.72629" lon="2.50445">
        <ele>112</ele>
        <time>2021-03-03T10:34:56.443Z</time>
      </trkpt>
      <trkpt lat="48.72626" lon="2.50439">
        <ele>112</ele>
        <time>2021-03-03T10:35:00.466Z</time>
      </trkpt>
      <trkpt lat="48.72622" lon="2.50437">
        <ele>111</ele>
        <time>2021-03-03T10:35:04.467Z</time>
      </trkpt>
      <trkpt lat="48.72619" lon="2.50434">
        <ele>111</ele>
        <time>2021-03-03T10:35:09.462Z</time>
      </trkpt>
      <trkpt lat="48.72614" lon="2.5042">
        <ele>110</ele>
        <time>2021-03-03T10:35:47.460Z</time>
      </trkpt>
      <trkpt lat="48.72615" lon="2.50416">
        <ele>110</ele>
        <time>2021-03-03T10:35:52.466Z</time>
      </trkpt>
      <trkpt lat="48.72615" lon="2.50416">
        <ele>110</ele>
        <time>2021-03-03T10:36:02.459Z</time>
      </trkpt>
      <trkpt lat="48.72615" lon="2.50416">
        <ele>110</ele>
        <time>2021-03-03T10:36:06.454Z</time>
      </trkpt>
      <trkpt lat="48.72615" lon="2.50414">
        <ele>110</ele>
        <time>2021-03-03T10:36:16.462Z</time>
      </trkpt>
      <trkpt lat="48.72614" lon="2.50414">
        <ele>110</ele>
        <time>2021-03-03T10:39:50.460Z</time>
      </trkpt>
      <trkpt lat="48.72611" lon="2.50409">
        <ele>110</ele>
        <time>2021-03-03T10:39:55.457Z</time>
      </trkpt>
      <trkpt lat="48.72609" lon="2.50406">
        <ele>110</ele>
        <time>2021-03-03T10:39:59.445Z</time>
      </trkpt>
      <trkpt lat="48.72607" lon="2.50401">
        <ele>110</ele>
        <time>2021-03-03T10:40:03.468Z</time>
      </trkpt>
      <trkpt lat="48.72604" lon="2.50395">
        <ele>110</ele>
        <time>2021-03-03T10:40:08.459Z</time>
      </trkpt>
      <trkpt lat="48.72602" lon="2.5039">
        <ele>110</ele>
        <time>2021-03-03T10:40:13.466Z</time>
      </trkpt>
      <trkpt lat="48.72599" lon="2.50385">
        <ele>110</ele>
        <time>2021-03-03T10:40:17.536Z</time>
      </trkpt>
      <trkpt lat="48.72597" lon="2.5038">
        <ele>110</ele>
        <time>2021-03-03T10:40:22.463Z</time>
      </trkpt>
      <trkpt lat="48.72596" lon="2.50373">
        <ele>107</ele>
        <time>2021-03-03T10:40:27.463Z</time>
      </trkpt>
      <trkpt lat="48.72593" lon="2.50366">
        <ele>107</ele>
        <time>2021-03-03T10:40:32.469Z</time>
      </trkpt>
      <trkpt lat="48.72591" lon="2.50361">
        <ele>107</ele>
        <time>2021-03-03T10:40:37.460Z</time>
      </trkpt>
      <trkpt lat="48.72588" lon="2.50352">
        <ele>107</ele>
        <time>2021-03-03T10:40:42.467Z</time>
      </trkpt>
      <trkpt lat="48.72585" lon="2.50347">
        <ele>106</ele>
        <time>2021-03-03T10:40:46.473Z</time>
      </trkpt>
      <trkpt lat="48.72583" lon="2.5034">
        <ele>106</ele>
        <time>2021-03-03T10:40:51.467Z</time>
      </trkpt>
      <trkpt lat="48.72581" lon="2.50333">
        <ele>106</ele>
        <time>2021-03-03T10:40:56.468Z</time>
      </trkpt>
      <trkpt lat="48.7258" lon="2.50328">
        <ele>106</ele>
        <time>2021-03-03T10:41:01.466Z</time>
      </trkpt>
      <trkpt lat="48.72578" lon="2.50324">
        <ele>106</ele>
        <time>2021-03-03T10:41:06.461Z</time>
      </trkpt>
      <trkpt lat="48.72577" lon="2.50317">
        <ele>106</ele>
        <time>2021-03-03T10:41:11.461Z</time>
      </trkpt>
      <trkpt lat="48.72575" lon="2.50313">
        <ele>106</ele>
        <time>2021-03-03T10:41:15.464Z</time>
      </trkpt>
      <trkpt lat="48.72572" lon="2.50306">
        <ele>106</ele>
        <time>2021-03-03T10:41:20.445Z</time>
      </trkpt>
      <trkpt lat="48.72568" lon="2.503">
        <ele>106</ele>
        <time>2021-03-03T10:41:25.466Z</time>
      </trkpt>
      <trkpt lat="48.72564" lon="2.50292">
        <ele>106</ele>
        <time>2021-03-03T10:41:30.456Z</time>
      </trkpt>
      <trkpt lat="48.72562" lon="2.50284">
        <ele>105</ele>
        <time>2021-03-03T10:41:35.463Z</time>
      </trkpt>
      <trkpt lat="48.72559" lon="2.50275">
        <ele>105</ele>
        <time>2021-03-03T10:41:40.448Z</time>
      </trkpt>
      <trkpt lat="48.72555" lon="2.50269">
        <ele>105</ele>
        <time>2021-03-03T10:41:44.466Z</time>
      </trkpt>
      <trkpt lat="48.72551" lon="2.50262">
        <ele>105</ele>
        <time>2021-03-03T10:41:49.466Z</time>
      </trkpt>
      <trkpt lat="48.72548" lon="2.50256">
        <ele>105</ele>
        <time>2021-03-03T10:41:53.474Z</time>
      </trkpt>
      <trkpt lat="48.72546" lon="2.50249">
        <ele>105</ele>
        <time>2021-03-03T10:41:58.469Z</time>
      </trkpt>
      <trkpt lat="48.72543" lon="2.50242">
        <ele>105</ele>
        <time>2021-03-03T10:42:03.462Z</time>
      </trkpt>
      <trkpt lat="48.7254" lon="2.50235">
        <ele>106</ele>
        <time>2021-03-03T10:42:07.460Z</time>
      </trkpt>
      <trkpt lat="48.72539" lon="2.50227">
        <ele>106</ele>
        <time>2021-03-03T10:42:12.461Z</time>
      </trkpt>
      <trkpt lat="48.72537" lon="2.50219">
        <ele>106</ele>
        <time>2021-03-03T10:42:16.468Z</time>
      </trkpt>
      <trkpt lat="48.72533" lon="2.5021">
        <ele>106</ele>
        <time>2021-03-03T10:42:21.462Z</time>
      </trkpt>
      <trkpt lat="48.7253" lon="2.50203">
        <ele>106</ele>
        <time>2021-03-03T10:42:25.461Z</time>
      </trkpt>
      <trkpt lat="48.72527" lon="2.50195">
        <ele>106</ele>
        <time>2021-03-03T10:42:30.463Z</time>
      </trkpt>
      <trkpt lat="48.72523" lon="2.50188">
        <ele>106</ele>
        <time>2021-03-03T10:42:35.451Z</time>
      </trkpt>
      <trkpt lat="48.72519" lon="2.50179">
        <ele>107</ele>
        <time>2021-03-03T10:42:40.441Z</time>
      </trkpt>
      <trkpt lat="48.72517" lon="2.50172">
        <ele>107</ele>
        <time>2021-03-03T10:42:44.469Z</time>
      </trkpt>
      <trkpt lat="48.72512" lon="2.50165">
        <ele>107</ele>
        <time>2021-03-03T10:42:49.460Z</time>
      </trkpt>
      <trkpt lat="48.72508" lon="2.50157">
        <ele>107</ele>
        <time>2021-03-03T10:42:54.463Z</time>
      </trkpt>
      <trkpt lat="48.72504" lon="2.5015">
        <ele>107</ele>
        <time>2021-03-03T10:42:59.466Z</time>
      </trkpt>
      <trkpt lat="48.725" lon="2.50142">
        <ele>107</ele>
        <time>2021-03-03T10:43:04.460Z</time>
      </trkpt>
      <trkpt lat="48.72497" lon="2.50135">
        <ele>107</ele>
        <time>2021-03-03T10:43:09.437Z</time>
      </trkpt>
      <trkpt lat="48.72495" lon="2.50128">
        <ele>107</ele>
        <time>2021-03-03T10:43:13.464Z</time>
      </trkpt>
      <trkpt lat="48.72493" lon="2.50123">
        <ele>105</ele>
        <time>2021-03-03T10:43:17.457Z</time>
      </trkpt>
      <trkpt lat="48.7249" lon="2.50115">
        <ele>105</ele>
        <time>2021-03-03T10:43:22.465Z</time>
      </trkpt>
      <trkpt lat="48.72488" lon="2.50107">
        <ele>105</ele>
        <time>2021-03-03T10:43:27.458Z</time>
      </trkpt>
      <trkpt lat="48.72485" lon="2.50098">
        <ele>104</ele>
        <time>2021-03-03T10:43:32.456Z</time>
      </trkpt>
      <trkpt lat="48.72481" lon="2.50091">
        <ele>102</ele>
        <time>2021-03-03T10:43:37.463Z</time>
      </trkpt>
      <trkpt lat="48.72478" lon="2.50082">
        <ele>102</ele>
        <time>2021-03-03T10:43:42.463Z</time>
      </trkpt>
      <trkpt lat="48.72475" lon="2.50073">
        <ele>102</ele>
        <time>2021-03-03T10:43:47.463Z</time>
      </trkpt>
      <trkpt lat="48.72472" lon="2.50065">
        <ele>100</ele>
        <time>2021-03-03T10:43:52.465Z</time>
      </trkpt>
      <trkpt lat="48.7247" lon="2.50057">
        <ele>100</ele>
        <time>2021-03-03T10:43:57.460Z</time>
      </trkpt>
      <trkpt lat="48.72467" lon="2.5005">
        <ele>100</ele>
        <time>2021-03-03T10:44:01.456Z</time>
      </trkpt>
      <trkpt lat="48.72464" lon="2.50042">
        <ele>100</ele>
        <time>2021-03-03T10:44:05.462Z</time>
      </trkpt>
      <trkpt lat="48.7246" lon="2.50034">
        <ele>98</ele>
        <time>2021-03-03T10:44:10.470Z</time>
      </trkpt>
      <trkpt lat="48.72457" lon="2.50025">
        <ele>97</ele>
        <time>2021-03-03T10:44:15.468Z</time>
      </trkpt>
      <trkpt lat="48.72453" lon="2.50018">
        <ele>97</ele>
        <time>2021-03-03T10:44:20.460Z</time>
      </trkpt>
      <trkpt lat="48.72449" lon="2.50013">
        <ele>96</ele>
        <time>2021-03-03T10:44:25.459Z</time>
      </trkpt>
      <trkpt lat="48.72447" lon="2.50006">
        <ele>96</ele>
        <time>2021-03-03T10:44:30.460Z</time>
      </trkpt>
      <trkpt lat="48.72444" lon="2.49998">
        <ele>96</ele>
        <time>2021-03-03T10:44:35.466Z</time>
      </trkpt>
      <trkpt lat="48.7244" lon="2.49991">
        <ele>96</ele>
        <time>2021-03-03T10:44:40.468Z</time>
      </trkpt>
      <trkpt lat="48.72435" lon="2.49987">
        <ele>96</ele>
        <time>2021-03-03T10:44:45.461Z</time>
      </trkpt>
      <trkpt lat="48.72429" lon="2.49986">
        <ele>93</ele>
        <time>2021-03-03T10:44:50.472Z</time>
      </trkpt>
      <trkpt lat="48.72423" lon="2.49985">
        <ele>93</ele>
        <time>2021-03-03T10:44:55.453Z</time>
      </trkpt>
      <trkpt lat="48.72418" lon="2.49984">
        <ele>93</ele>
        <time>2021-03-03T10:44:59.471Z</time>
      </trkpt>
      <trkpt lat="48.72411" lon="2.49981">
        <ele>93</ele>
        <time>2021-03-03T10:45:04.443Z</time>
      </trkpt>
      <trkpt lat="48.72406" lon="2.49978">
        <ele>93</ele>
        <time>2021-03-03T10:45:08.461Z</time>
      </trkpt>
      <trkpt lat="48.724" lon="2.49977">
        <ele>93</ele>
        <time>2021-03-03T10:45:13.457Z</time>
      </trkpt>
      <trkpt lat="48.72394" lon="2.49978">
        <ele>93</ele>
        <time>2021-03-03T10:45:18.460Z</time>
      </trkpt>
      <trkpt lat="48.72388" lon="2.49979">
        <ele>93</ele>
        <time>2021-03-03T10:45:23.458Z</time>
      </trkpt>
      <trkpt lat="48.72382" lon="2.49981">
        <ele>93</ele>
        <time>2021-03-03T10:45:28.455Z</time>
      </trkpt>
      <trkpt lat="48.72376" lon="2.49981">
        <ele>93</ele>
        <time>2021-03-03T10:45:33.455Z</time>
      </trkpt>
      <trkpt lat="48.72371" lon="2.49981">
        <ele>94</ele>
        <time>2021-03-03T10:45:37.474Z</time>
      </trkpt>
      <trkpt lat="48.72365" lon="2.49983">
        <ele>94</ele>
        <time>2021-03-03T10:45:42.459Z</time>
      </trkpt>
      <trkpt lat="48.72359" lon="2.49983">
        <ele>94</ele>
        <time>2021-03-03T10:45:47.449Z</time>
      </trkpt>
      <trkpt lat="48.72355" lon="2.49983">
        <ele>94</ele>
        <time>2021-03-03T10:45:51.465Z</time>
      </trkpt>
      <trkpt lat="48.72349" lon="2.49983">
        <ele>94</ele>
        <time>2021-03-03T10:45:56.461Z</time>
      </trkpt>
      <trkpt lat="48.72347" lon="2.49977">
        <ele>94</ele>
        <time>2021-03-03T10:46:00.476Z</time>
      </trkpt>
      <trkpt lat="48.72346" lon="2.49969">
        <ele>94</ele>
        <time>2021-03-03T10:46:05.462Z</time>
      </trkpt>
      <trkpt lat="48.72344" lon="2.49959">
        <ele>94</ele>
        <time>2021-03-03T10:46:10.454Z</time>
      </trkpt>
      <trkpt lat="48.72345" lon="2.49952">
        <ele>93</ele>
        <time>2021-03-03T10:46:14.463Z</time>
      </trkpt>
      <trkpt lat="48.72344" lon="2.49943">
        <ele>93</ele>
        <time>2021-03-03T10:46:19.464Z</time>
      </trkpt>
      <trkpt lat="48.72342" lon="2.49937">
        <ele>93</ele>
        <time>2021-03-03T10:46:23.476Z</time>
      </trkpt>
      <trkpt lat="48.72339" lon="2.49927">
        <ele>93</ele>
        <time>2021-03-03T10:46:28.458Z</time>
      </trkpt>
      <trkpt lat="48.72336" lon="2.49917">
        <ele>93</ele>
        <time>2021-03-03T10:46:33.473Z</time>
      </trkpt>
      <trkpt lat="48.72331" lon="2.4991">
        <ele>93</ele>
        <time>2021-03-03T10:46:38.453Z</time>
      </trkpt>
      <trkpt lat="48.72327" lon="2.49905">
        <ele>93</ele>
        <time>2021-03-03T10:46:43.453Z</time>
      </trkpt>
      <trkpt lat="48.72322" lon="2.49903">
        <ele>93</ele>
        <time>2021-03-03T10:46:48.455Z</time>
      </trkpt>
      <trkpt lat="48.72316" lon="2.49901">
        <ele>92</ele>
        <time>2021-03-03T10:46:53.463Z</time>
      </trkpt>
      <trkpt lat="48.72308" lon="2.49901">
        <ele>92</ele>
        <time>2021-03-03T10:46:58.457Z</time>
      </trkpt>
      <trkpt lat="48.72303" lon="2.49902">
        <ele>92</ele>
        <time>2021-03-03T10:47:03.464Z</time>
      </trkpt>
      <trkpt lat="48.72298" lon="2.49902">
        <ele>92</ele>
        <time>2021-03-03T10:47:08.459Z</time>
      </trkpt>
      <trkpt lat="48.72294" lon="2.49901">
        <ele>92</ele>
        <time>2021-03-03T10:47:12.455Z</time>
      </trkpt>
      <trkpt lat="48.7229" lon="2.49895">
        <ele>91</ele>
        <time>2021-03-03T10:47:17.454Z</time>
      </trkpt>
      <trkpt lat="48.72286" lon="2.49889">
        <ele>91</ele>
        <time>2021-03-03T10:47:22.452Z</time>
      </trkpt>
      <trkpt lat="48.72281" lon="2.49884">
        <ele>91</ele>
        <time>2021-03-03T10:47:26.457Z</time>
      </trkpt>
      <trkpt lat="48.72278" lon="2.49877">
        <ele>91</ele>
        <time>2021-03-03T10:47:31.460Z</time>
      </trkpt>
      <trkpt lat="48.72276" lon="2.49869">
        <ele>91</ele>
        <time>2021-03-03T10:47:36.462Z</time>
      </trkpt>
      <trkpt lat="48.72273" lon="2.49864">
        <ele>91</ele>
        <time>2021-03-03T10:47:40.459Z</time>
      </trkpt>
      <trkpt lat="48.7227" lon="2.49857">
        <ele>91</ele>
        <time>2021-03-03T10:47:45.458Z</time>
      </trkpt>
      <trkpt lat="48.72268" lon="2.49853">
        <ele>91</ele>
        <time>2021-03-03T10:47:49.468Z</time>
      </trkpt>
      <trkpt lat="48.72263" lon="2.49847">
        <ele>90</ele>
        <time>2021-03-03T10:47:54.445Z</time>
      </trkpt>
      <trkpt lat="48.72259" lon="2.49842">
        <ele>90</ele>
        <time>2021-03-03T10:47:58.459Z</time>
      </trkpt>
      <trkpt lat="48.72257" lon="2.49837">
        <ele>90</ele>
        <time>2021-03-03T10:48:03.459Z</time>
      </trkpt>
      <trkpt lat="48.72254" lon="2.49834">
        <ele>90</ele>
        <time>2021-03-03T10:48:08.457Z</time>
      </trkpt>
      <trkpt lat="48.72249" lon="2.49833">
        <ele>90</ele>
        <time>2021-03-03T10:48:13.463Z</time>
      </trkpt>
      <trkpt lat="48.72243" lon="2.49832">
        <ele>90</ele>
        <time>2021-03-03T10:48:18.442Z</time>
      </trkpt>
      <trkpt lat="48.72238" lon="2.4983">
        <ele>90</ele>
        <time>2021-03-03T10:48:22.440Z</time>
      </trkpt>
      <trkpt lat="48.72233" lon="2.49826">
        <ele>89</ele>
        <time>2021-03-03T10:48:27.455Z</time>
      </trkpt>
      <trkpt lat="48.72227" lon="2.49822">
        <ele>89</ele>
        <time>2021-03-03T10:48:32.451Z</time>
      </trkpt>
      <trkpt lat="48.72221" lon="2.49818">
        <ele>90</ele>
        <time>2021-03-03T10:48:37.467Z</time>
      </trkpt>
      <trkpt lat="48.72216" lon="2.49815">
        <ele>90</ele>
        <time>2021-03-03T10:48:42.457Z</time>
      </trkpt>
      <trkpt lat="48.72211" lon="2.49811">
        <ele>90</ele>
        <time>2021-03-03T10:48:47.462Z</time>
      </trkpt>
      <trkpt lat="48.72211" lon="2.49804">
        <ele>90</ele>
        <time>2021-03-03T10:48:52.464Z</time>
      </trkpt>
      <trkpt lat="48.72212" lon="2.498">
        <ele>90</ele>
        <time>2021-03-03T10:48:56.439Z</time>
      </trkpt>
      <trkpt lat="48.72212" lon="2.49792">
        <ele>90</ele>
        <time>2021-03-03T10:49:01.437Z</time>
      </trkpt>
      <trkpt lat="48.72211" lon="2.49783">
        <ele>90</ele>
        <time>2021-03-03T10:49:06.435Z</time>
      </trkpt>
      <trkpt lat="48.72212" lon="2.49774">
        <ele>90</ele>
        <time>2021-03-03T10:49:11.434Z</time>
      </trkpt>
      <trkpt lat="48.72213" lon="2.49764">
        <ele>90</ele>
        <time>2021-03-03T10:49:16.459Z</time>
      </trkpt>
      <trkpt lat="48.72213" lon="2.49755">
        <ele>90</ele>
        <time>2021-03-03T10:49:21.457Z</time>
      </trkpt>
      <trkpt lat="48.72212" lon="2.49748">
        <ele>90</ele>
        <time>2021-03-03T10:49:25.436Z</time>
      </trkpt>
      <trkpt lat="48.72211" lon="2.49741">
        <ele>90</ele>
        <time>2021-03-03T10:49:29.462Z</time>
      </trkpt>
      <trkpt lat="48.72211" lon="2.49732">
        <ele>89</ele>
        <time>2021-03-03T10:49:34.450Z</time>
      </trkpt>
      <trkpt lat="48.72211" lon="2.49724">
        <ele>89</ele>
        <time>2021-03-03T10:49:38.472Z</time>
      </trkpt>
      <trkpt lat="48.72211" lon="2.49715">
        <ele>89</ele>
        <time>2021-03-03T10:49:43.469Z</time>
      </trkpt>
      <trkpt lat="48.72212" lon="2.49707">
        <ele>88</ele>
        <time>2021-03-03T10:49:48.468Z</time>
      </trkpt>
      <trkpt lat="48.72212" lon="2.49699">
        <ele>88</ele>
        <time>2021-03-03T10:49:53.471Z</time>
      </trkpt>
      <trkpt lat="48.72213" lon="2.4969">
        <ele>88</ele>
        <time>2021-03-03T10:49:58.452Z</time>
      </trkpt>
      <trkpt lat="48.72214" lon="2.4968">
        <ele>88</ele>
        <time>2021-03-03T10:50:03.434Z</time>
      </trkpt>
      <trkpt lat="48.72214" lon="2.49672">
        <ele>88</ele>
        <time>2021-03-03T10:50:07.455Z</time>
      </trkpt>
      <trkpt lat="48.72214" lon="2.49664">
        <ele>88</ele>
        <time>2021-03-03T10:50:12.458Z</time>
      </trkpt>
      <trkpt lat="48.72213" lon="2.49655">
        <ele>88</ele>
        <time>2021-03-03T10:50:17.449Z</time>
      </trkpt>
      <trkpt lat="48.72213" lon="2.49645">
        <ele>88</ele>
        <time>2021-03-03T10:50:22.456Z</time>
      </trkpt>
      <trkpt lat="48.72213" lon="2.49635">
        <ele>88</ele>
        <time>2021-03-03T10:50:27.467Z</time>
      </trkpt>
      <trkpt lat="48.72212" lon="2.49626">
        <ele>88</ele>
        <time>2021-03-03T10:50:32.462Z</time>
      </trkpt>
      <trkpt lat="48.72213" lon="2.49616">
        <ele>89</ele>
        <time>2021-03-03T10:50:37.464Z</time>
      </trkpt>
      <trkpt lat="48.72212" lon="2.49604">
        <ele>89</ele>
        <time>2021-03-03T10:50:42.445Z</time>
      </trkpt>
      <trkpt lat="48.7221" lon="2.49596">
        <ele>89</ele>
        <time>2021-03-03T10:50:46.460Z</time>
      </trkpt>
      <trkpt lat="48.72209" lon="2.49587">
        <ele>89</ele>
        <time>2021-03-03T10:50:51.459Z</time>
      </trkpt>
      <trkpt lat="48.72207" lon="2.49586">
        <ele>90</ele>
        <time>2021-03-03T10:50:56.458Z</time>
      </trkpt>
      <trkpt lat="48.72201" lon="2.49584">
        <ele>90</ele>
        <time>2021-03-03T10:51:01.454Z</time>
      </trkpt>
      <trkpt lat="48.72195" lon="2.4958">
        <ele>90</ele>
        <time>2021-03-03T10:51:06.450Z</time>
      </trkpt>
      <trkpt lat="48.72191" lon="2.49577">
        <ele>90</ele>
        <time>2021-03-03T10:51:10.465Z</time>
      </trkpt>
      <trkpt lat="48.72187" lon="2.49573">
        <ele>90</ele>
        <time>2021-03-03T10:51:15.453Z</time>
      </trkpt>
      <trkpt lat="48.72182" lon="2.49567">
        <ele>92</ele>
        <time>2021-03-03T10:51:20.456Z</time>
      </trkpt>
      <trkpt lat="48.72176" lon="2.49563">
        <ele>91</ele>
        <time>2021-03-03T10:51:25.459Z</time>
      </trkpt>
      <trkpt lat="48.7217" lon="2.49559">
        <ele>91</ele>
        <time>2021-03-03T10:51:30.455Z</time>
      </trkpt>
      <trkpt lat="48.72166" lon="2.49554">
        <ele>91</ele>
        <time>2021-03-03T10:51:35.456Z</time>
      </trkpt>
      <trkpt lat="48.72162" lon="2.49548">
        <ele>91</ele>
        <time>2021-03-03T10:51:40.459Z</time>
      </trkpt>
      <trkpt lat="48.72158" lon="2.49541">
        <ele>93</ele>
        <time>2021-03-03T10:51:45.465Z</time>
      </trkpt>
      <trkpt lat="48.72154" lon="2.49535">
        <ele>93</ele>
        <time>2021-03-03T10:51:49.468Z</time>
      </trkpt>
      <trkpt lat="48.72149" lon="2.49532">
        <ele>92</ele>
        <time>2021-03-03T10:51:54.457Z</time>
      </trkpt>
      <trkpt lat="48.72144" lon="2.4953">
        <ele>92</ele>
        <time>2021-03-03T10:51:58.463Z</time>
      </trkpt>
      <trkpt lat="48.7214" lon="2.49528">
        <ele>92</ele>
        <time>2021-03-03T10:52:03.457Z</time>
      </trkpt>
      <trkpt lat="48.72136" lon="2.49526">
        <ele>92</ele>
        <time>2021-03-03T10:52:08.450Z</time>
      </trkpt>
      <trkpt lat="48.72132" lon="2.49523">
        <ele>92</ele>
        <time>2021-03-03T10:52:12.462Z</time>
      </trkpt>
      <trkpt lat="48.72127" lon="2.49519">
        <ele>92</ele>
        <time>2021-03-03T10:52:17.456Z</time>
      </trkpt>
      <trkpt lat="48.72124" lon="2.4952">
        <ele>91</ele>
        <time>2021-03-03T10:52:22.453Z</time>
      </trkpt>
      <trkpt lat="48.72118" lon="2.49517">
        <ele>91</ele>
        <time>2021-03-03T10:52:27.455Z</time>
      </trkpt>
      <trkpt lat="48.72114" lon="2.49515">
        <ele>91</ele>
        <time>2021-03-03T10:52:31.449Z</time>
      </trkpt>
      <trkpt lat="48.72109" lon="2.49513">
        <ele>92</ele>
        <time>2021-03-03T10:52:35.461Z</time>
      </trkpt>
      <trkpt lat="48.72104" lon="2.49509">
        <ele>92</ele>
        <time>2021-03-03T10:52:40.463Z</time>
      </trkpt>
      <trkpt lat="48.721" lon="2.49502">
        <ele>92</ele>
        <time>2021-03-03T10:52:44.445Z</time>
      </trkpt>
      <trkpt lat="48.72099" lon="2.49496">
        <ele>92</ele>
        <time>2021-03-03T10:52:49.454Z</time>
      </trkpt>
      <trkpt lat="48.721" lon="2.49489">
        <ele>92</ele>
        <time>2021-03-03T10:52:54.462Z</time>
      </trkpt>
      <trkpt lat="48.72101" lon="2.49483">
        <ele>93</ele>
        <time>2021-03-03T10:52:59.454Z</time>
      </trkpt>
      <trkpt lat="48.72102" lon="2.49478">
        <ele>93</ele>
        <time>2021-03-03T10:53:03.451Z</time>
      </trkpt>
      <trkpt lat="48.72103" lon="2.4947">
        <ele>93</ele>
        <time>2021-03-03T10:53:08.460Z</time>
      </trkpt>
      <trkpt lat="48.72104" lon="2.49461">
        <ele>93</ele>
        <time>2021-03-03T10:53:13.458Z</time>
      </trkpt>
      <trkpt lat="48.72105" lon="2.49454">
        <ele>93</ele>
        <time>2021-03-03T10:53:18.459Z</time>
      </trkpt>
      <trkpt lat="48.72106" lon="2.49446">
        <ele>93</ele>
        <time>2021-03-03T10:53:23.450Z</time>
      </trkpt>
      <trkpt lat="48.72106" lon="2.49439">
        <ele>93</ele>
        <time>2021-03-03T10:53:28.450Z</time>
      </trkpt>
      <trkpt lat="48.72108" lon="2.49435">
        <ele>93</ele>
        <time>2021-03-03T10:53:32.447Z</time>
      </trkpt>
      <trkpt lat="48.72109" lon="2.49428">
        <ele>93</ele>
        <time>2021-03-03T10:53:37.464Z</time>
      </trkpt>
      <trkpt lat="48.72112" lon="2.49419">
        <ele>93</ele>
        <time>2021-03-03T10:53:42.454Z</time>
      </trkpt>
      <trkpt lat="48.72114" lon="2.49414">
        <ele>93</ele>
        <time>2021-03-03T10:53:46.452Z</time>
      </trkpt>
      <trkpt lat="48.72116" lon="2.4941">
        <ele>93</ele>
        <time>2021-03-03T10:53:51.456Z</time>
      </trkpt>
      <trkpt lat="48.72118" lon="2.49401">
        <ele>92</ele>
        <time>2021-03-03T10:53:56.461Z</time>
      </trkpt>
      <trkpt lat="48.72121" lon="2.49392">
        <ele>92</ele>
        <time>2021-03-03T10:54:01.453Z</time>
      </trkpt>
      <trkpt lat="48.72122" lon="2.49389">
        <ele>92</ele>
        <time>2021-03-03T10:54:05.446Z</time>
      </trkpt>
      <trkpt lat="48.72125" lon="2.49378">
        <ele>95</ele>
        <time>2021-03-03T10:54:10.445Z</time>
      </trkpt>
      <trkpt lat="48.72127" lon="2.49369">
        <ele>95</ele>
        <time>2021-03-03T10:54:15.458Z</time>
      </trkpt>
      <trkpt lat="48.72129" lon="2.4936">
        <ele>95</ele>
        <time>2021-03-03T10:54:20.462Z</time>
      </trkpt>
      <trkpt lat="48.72131" lon="2.49354">
        <ele>95</ele>
        <time>2021-03-03T10:54:24.448Z</time>
      </trkpt>
      <trkpt lat="48.7213" lon="2.49346">
        <ele>94</ele>
        <time>2021-03-03T10:54:29.459Z</time>
      </trkpt>
      <trkpt lat="48.72129" lon="2.49337">
        <ele>94</ele>
        <time>2021-03-03T10:54:34.472Z</time>
      </trkpt>
      <trkpt lat="48.72133" lon="2.49329">
        <ele>94</ele>
        <time>2021-03-03T10:54:39.454Z</time>
      </trkpt>
      <trkpt lat="48.72134" lon="2.49322">
        <ele>94</ele>
        <time>2021-03-03T10:54:44.463Z</time>
      </trkpt>
      <trkpt lat="48.72133" lon="2.49313">
        <ele>94</ele>
        <time>2021-03-03T10:54:49.445Z</time>
      </trkpt>
      <trkpt lat="48.72129" lon="2.49307">
        <ele>94</ele>
        <time>2021-03-03T10:54:54.453Z</time>
      </trkpt>
      <trkpt lat="48.72126" lon="2.49302">
        <ele>94</ele>
        <time>2021-03-03T10:54:58.450Z</time>
      </trkpt>
      <trkpt lat="48.72123" lon="2.493">
        <ele>92</ele>
        <time>2021-03-03T10:55:02.453Z</time>
      </trkpt>
      <trkpt lat="48.7212" lon="2.49294">
        <ele>92</ele>
        <time>2021-03-03T10:55:07.445Z</time>
      </trkpt>
      <trkpt lat="48.72115" lon="2.49284">
        <ele>93</ele>
        <time>2021-03-03T10:55:12.457Z</time>
      </trkpt>
      <trkpt lat="48.72112" lon="2.49274">
        <ele>93</ele>
        <time>2021-03-03T10:55:17.454Z</time>
      </trkpt>
      <trkpt lat="48.72113" lon="2.49261">
        <ele>94</ele>
        <time>2021-03-03T10:55:22.448Z</time>
      </trkpt>
      <trkpt lat="48.72114" lon="2.49251">
        <ele>94</ele>
        <time>2021-03-03T10:55:27.450Z</time>
      </trkpt>
      <trkpt lat="48.72115" lon="2.49245">
        <ele>94</ele>
        <time>2021-03-03T10:55:32.453Z</time>
      </trkpt>
      <trkpt lat="48.72118" lon="2.49238">
        <ele>94</ele>
        <time>2021-03-03T10:55:36.463Z</time>
      </trkpt>
      <trkpt lat="48.72121" lon="2.49228">
        <ele>96</ele>
        <time>2021-03-03T10:55:41.457Z</time>
      </trkpt>
      <trkpt lat="48.7212" lon="2.49219">
        <ele>96</ele>
        <time>2021-03-03T10:55:46.456Z</time>
      </trkpt>
      <trkpt lat="48.72123" lon="2.49212">
        <ele>96</ele>
        <time>2021-03-03T10:55:51.456Z</time>
      </trkpt>
      <trkpt lat="48.72122" lon="2.49204">
        <ele>96</ele>
        <time>2021-03-03T10:55:56.458Z</time>
      </trkpt>
      <trkpt lat="48.72123" lon="2.49196">
        <ele>96</ele>
        <time>2021-03-03T10:56:01.452Z</time>
      </trkpt>
      <trkpt lat="48.72123" lon="2.49192">
        <ele>96</ele>
        <time>2021-03-03T10:56:05.453Z</time>
      </trkpt>
      <trkpt lat="48.72125" lon="2.49184">
        <ele>97</ele>
        <time>2021-03-03T10:56:10.451Z</time>
      </trkpt>
      <trkpt lat="48.72128" lon="2.49173">
        <ele>97</ele>
        <time>2021-03-03T10:56:15.456Z</time>
      </trkpt>
      <trkpt lat="48.7213" lon="2.49165">
        <ele>97</ele>
        <time>2021-03-03T10:56:20.452Z</time>
      </trkpt>
      <trkpt lat="48.72132" lon="2.49158">
        <ele>97</ele>
        <time>2021-03-03T10:56:25.453Z</time>
      </trkpt>
      <trkpt lat="48.72133" lon="2.4915">
        <ele>96</ele>
        <time>2021-03-03T10:56:29.460Z</time>
      </trkpt>
      <trkpt lat="48.72137" lon="2.49144">
        <ele>96</ele>
        <time>2021-03-03T10:56:34.460Z</time>
      </trkpt>
      <trkpt lat="48.72139" lon="2.49141">
        <ele>96</ele>
        <time>2021-03-03T10:56:39.452Z</time>
      </trkpt>
      <trkpt lat="48.72142" lon="2.49131">
        <ele>96</ele>
        <time>2021-03-03T10:56:44.463Z</time>
      </trkpt>
      <trkpt lat="48.72145" lon="2.49123">
        <ele>95</ele>
        <time>2021-03-03T10:56:49.451Z</time>
      </trkpt>
      <trkpt lat="48.72148" lon="2.49118">
        <ele>95</ele>
        <time>2021-03-03T10:56:53.449Z</time>
      </trkpt>
      <trkpt lat="48.7215" lon="2.49113">
        <ele>95</ele>
        <time>2021-03-03T10:56:57.454Z</time>
      </trkpt>
      <trkpt lat="48.72153" lon="2.49105">
        <ele>95</ele>
        <time>2021-03-03T10:57:02.447Z</time>
      </trkpt>
      <trkpt lat="48.72156" lon="2.49096">
        <ele>95</ele>
        <time>2021-03-03T10:57:07.445Z</time>
      </trkpt>
      <trkpt lat="48.72161" lon="2.49087">
        <ele>95</ele>
        <time>2021-03-03T10:57:12.465Z</time>
      </trkpt>
      <trkpt lat="48.72164" lon="2.49079">
        <ele>95</ele>
        <time>2021-03-03T10:57:16.450Z</time>
      </trkpt>
      <trkpt lat="48.72166" lon="2.4907">
        <ele>95</ele>
        <time>2021-03-03T10:57:21.451Z</time>
      </trkpt>
      <trkpt lat="48.72169" lon="2.49061">
        <ele>95</ele>
        <time>2021-03-03T10:57:26.444Z</time>
      </trkpt>
      <trkpt lat="48.72171" lon="2.49055">
        <ele>95</ele>
        <time>2021-03-03T10:57:30.449Z</time>
      </trkpt>
      <trkpt lat="48.72172" lon="2.49048">
        <ele>95</ele>
        <time>2021-03-03T10:57:35.460Z</time>
      </trkpt>
      <trkpt lat="48.72174" lon="2.49042">
        <ele>95</ele>
        <time>2021-03-03T10:57:40.456Z</time>
      </trkpt>
      <trkpt lat="48.72175" lon="2.49033">
        <ele>95</ele>
        <time>2021-03-03T10:57:45.459Z</time>
      </trkpt>
      <trkpt lat="48.72175" lon="2.49025">
        <ele>95</ele>
        <time>2021-03-03T10:57:50.441Z</time>
      </trkpt>
      <trkpt lat="48.72173" lon="2.49019">
        <ele>95</ele>
        <time>2021-03-03T10:57:54.452Z</time>
      </trkpt>
      <trkpt lat="48.72172" lon="2.4901">
        <ele>96</ele>
        <time>2021-03-03T10:57:59.448Z</time>
      </trkpt>
      <trkpt lat="48.7217" lon="2.49003">
        <ele>96</ele>
        <time>2021-03-03T10:58:04.451Z</time>
      </trkpt>
      <trkpt lat="48.72169" lon="2.48995">
        <ele>96</ele>
        <time>2021-03-03T10:58:09.447Z</time>
      </trkpt>
      <trkpt lat="48.7217" lon="2.48989">
        <ele>96</ele>
        <time>2021-03-03T10:58:14.449Z</time>
      </trkpt>
      <trkpt lat="48.72171" lon="2.4898">
        <ele>96</ele>
        <time>2021-03-03T10:58:19.468Z</time>
      </trkpt>
      <trkpt lat="48.72173" lon="2.48972">
        <ele>96</ele>
        <time>2021-03-03T10:58:24.449Z</time>
      </trkpt>
      <trkpt lat="48.72171" lon="2.48967">
        <ele>96</ele>
        <time>2021-03-03T10:58:29.452Z</time>
      </trkpt>
      <trkpt lat="48.72169" lon="2.4896">
        <ele>96</ele>
        <time>2021-03-03T10:58:34.452Z</time>
      </trkpt>
      <trkpt lat="48.72167" lon="2.48953">
        <ele>96</ele>
        <time>2021-03-03T10:58:38.445Z</time>
      </trkpt>
      <trkpt lat="48.72167" lon="2.48943">
        <ele>96</ele>
        <time>2021-03-03T10:58:43.460Z</time>
      </trkpt>
      <trkpt lat="48.72166" lon="2.48938">
        <ele>96</ele>
        <time>2021-03-03T10:58:48.431Z</time>
      </trkpt>
      <trkpt lat="48.72163" lon="2.48932">
        <ele>96</ele>
        <time>2021-03-03T10:58:52.456Z</time>
      </trkpt>
      <trkpt lat="48.72161" lon="2.48929">
        <ele>97</ele>
        <time>2021-03-03T10:58:57.457Z</time>
      </trkpt>
      <trkpt lat="48.72157" lon="2.48921">
        <ele>97</ele>
        <time>2021-03-03T10:59:02.450Z</time>
      </trkpt>
      <trkpt lat="48.72157" lon="2.48919">
        <ele>97</ele>
        <time>2021-03-03T10:59:07.446Z</time>
      </trkpt>
      <trkpt lat="48.72153" lon="2.48915">
        <ele>97</ele>
        <time>2021-03-03T10:59:12.434Z</time>
      </trkpt>
      <trkpt lat="48.72149" lon="2.48911">
        <ele>96</ele>
        <time>2021-03-03T10:59:16.431Z</time>
      </trkpt>
      <trkpt lat="48.72145" lon="2.48907">
        <ele>96</ele>
        <time>2021-03-03T10:59:21.464Z</time>
      </trkpt>
      <trkpt lat="48.72143" lon="2.48901">
        <ele>98</ele>
        <time>2021-03-03T10:59:26.441Z</time>
      </trkpt>
      <trkpt lat="48.72143" lon="2.48897">
        <ele>98</ele>
        <time>2021-03-03T10:59:30.459Z</time>
      </trkpt>
      <trkpt lat="48.72139" lon="2.48883">
        <ele>98</ele>
        <time>2021-03-03T10:59:35.454Z</time>
      </trkpt>
      <trkpt lat="48.72134" lon="2.48882">
        <ele>98</ele>
        <time>2021-03-03T10:59:40.455Z</time>
      </trkpt>
      <trkpt lat="48.72129" lon="2.4888">
        <ele>98</ele>
        <time>2021-03-03T10:59:44.442Z</time>
      </trkpt>
      <trkpt lat="48.72124" lon="2.48878">
        <ele>97</ele>
        <time>2021-03-03T10:59:49.427Z</time>
      </trkpt>
      <trkpt lat="48.72123" lon="2.48878">
        <ele>97</ele>
        <time>2021-03-03T10:59:53.435Z</time>
      </trkpt>
      <trkpt lat="48.72119" lon="2.48877">
        <ele>97</ele>
        <time>2021-03-03T10:59:58.457Z</time>
      </trkpt>
      <trkpt lat="48.72115" lon="2.48876">
        <ele>97</ele>
        <time>2021-03-03T11:00:03.445Z</time>
      </trkpt>
      <trkpt lat="48.72108" lon="2.48878">
        <ele>97</ele>
        <time>2021-03-03T11:00:07.425Z</time>
      </trkpt>
      <trkpt lat="48.72098" lon="2.48878">
        <ele>97</ele>
        <time>2021-03-03T11:00:12.458Z</time>
      </trkpt>
      <trkpt lat="48.72092" lon="2.48876">
        <ele>94</ele>
        <time>2021-03-03T11:00:16.457Z</time>
      </trkpt>
      <trkpt lat="48.72086" lon="2.48874">
        <ele>95</ele>
        <time>2021-03-03T11:00:21.456Z</time>
      </trkpt>
      <trkpt lat="48.72079" lon="2.48875">
        <ele>95</ele>
        <time>2021-03-03T11:00:26.431Z</time>
      </trkpt>
      <trkpt lat="48.72072" lon="2.48874">
        <ele>95</ele>
        <time>2021-03-03T11:00:31.434Z</time>
      </trkpt>
      <trkpt lat="48.72067" lon="2.48874">
        <ele>92</ele>
        <time>2021-03-03T11:00:36.432Z</time>
      </trkpt>
      <trkpt lat="48.72061" lon="2.48874">
        <ele>92</ele>
        <time>2021-03-03T11:00:41.427Z</time>
      </trkpt>
      <trkpt lat="48.72057" lon="2.48875">
        <ele>92</ele>
        <time>2021-03-03T11:00:45.470Z</time>
      </trkpt>
      <trkpt lat="48.7205" lon="2.48877">
        <ele>92</ele>
        <time>2021-03-03T11:00:50.457Z</time>
      </trkpt>
      <trkpt lat="48.72043" lon="2.48878">
        <ele>92</ele>
        <time>2021-03-03T11:00:55.442Z</time>
      </trkpt>
      <trkpt lat="48.72038" lon="2.48876">
        <ele>90</ele>
        <time>2021-03-03T11:00:59.424Z</time>
      </trkpt>
      <trkpt lat="48.72033" lon="2.48875">
        <ele>90</ele>
        <time>2021-03-03T11:01:04.436Z</time>
      </trkpt>
      <trkpt lat="48.72029" lon="2.48873">
        <ele>91</ele>
        <time>2021-03-03T11:01:09.457Z</time>
      </trkpt>
      <trkpt lat="48.72024" lon="2.48872">
        <ele>91</ele>
        <time>2021-03-03T11:01:14.461Z</time>
      </trkpt>
      <trkpt lat="48.72019" lon="2.48871">
        <ele>91</ele>
        <time>2021-03-03T11:01:19.468Z</time>
      </trkpt>
      <trkpt lat="48.72013" lon="2.48868">
        <ele>88</ele>
        <time>2021-03-03T11:01:24.445Z</time>
      </trkpt>
      <trkpt lat="48.72007" lon="2.48869">
        <ele>88</ele>
        <time>2021-03-03T11:01:29.437Z</time>
      </trkpt>
      <trkpt lat="48.72001" lon="2.48867">
        <ele>88</ele>
        <time>2021-03-03T11:01:34.453Z</time>
      </trkpt>
      <trkpt lat="48.71995" lon="2.48866">
        <ele>88</ele>
        <time>2021-03-03T11:01:39.429Z</time>
      </trkpt>
      <trkpt lat="48.71989" lon="2.48863">
        <ele>88</ele>
        <time>2021-03-03T11:01:44.432Z</time>
      </trkpt>
      <trkpt lat="48.71985" lon="2.48861">
        <ele>85</ele>
        <time>2021-03-03T11:01:48.463Z</time>
      </trkpt>
      <trkpt lat="48.71981" lon="2.48861">
        <ele>85</ele>
        <time>2021-03-03T11:01:53.434Z</time>
      </trkpt>
      <trkpt lat="48.71976" lon="2.4886">
        <ele>85</ele>
        <time>2021-03-03T11:01:57.468Z</time>
      </trkpt>
      <trkpt lat="48.71972" lon="2.48859">
        <ele>85</ele>
        <time>2021-03-03T11:02:02.474Z</time>
      </trkpt>
      <trkpt lat="48.71966" lon="2.48858">
        <ele>85</ele>
        <time>2021-03-03T11:02:07.458Z</time>
      </trkpt>
      <trkpt lat="48.7196" lon="2.48857">
        <ele>85</ele>
        <time>2021-03-03T11:02:12.430Z</time>
      </trkpt>
      <trkpt lat="48.71956" lon="2.48856">
        <ele>81</ele>
        <time>2021-03-03T11:02:16.446Z</time>
      </trkpt>
      <trkpt lat="48.71951" lon="2.48856">
        <ele>81</ele>
        <time>2021-03-03T11:02:21.438Z</time>
      </trkpt>
      <trkpt lat="48.71948" lon="2.48855">
        <ele>81</ele>
        <time>2021-03-03T11:02:25.451Z</time>
      </trkpt>
      <trkpt lat="48.71942" lon="2.48854">
        <ele>81</ele>
        <time>2021-03-03T11:02:30.455Z</time>
      </trkpt>
      <trkpt lat="48.71937" lon="2.48853">
        <ele>81</ele>
        <time>2021-03-03T11:02:34.446Z</time>
      </trkpt>
      <trkpt lat="48.71932" lon="2.48853">
        <ele>81</ele>
        <time>2021-03-03T11:02:39.456Z</time>
      </trkpt>
      <trkpt lat="48.71926" lon="2.48851">
        <ele>76</ele>
        <time>2021-03-03T11:02:44.451Z</time>
      </trkpt>
      <trkpt lat="48.71919" lon="2.48851">
        <ele>76</ele>
        <time>2021-03-03T11:02:49.459Z</time>
      </trkpt>
      <trkpt lat="48.71913" lon="2.48851">
        <ele>76</ele>
        <time>2021-03-03T11:02:54.449Z</time>
      </trkpt>
      <trkpt lat="48.71907" lon="2.48852">
        <ele>76</ele>
        <time>2021-03-03T11:02:58.458Z</time>
      </trkpt>
      <trkpt lat="48.71901" lon="2.48852">
        <ele>73</ele>
        <time>2021-03-03T11:03:03.443Z</time>
      </trkpt>
      <trkpt lat="48.71896" lon="2.48852">
        <ele>73</ele>
        <time>2021-03-03T11:03:07.451Z</time>
      </trkpt>
      <trkpt lat="48.71892" lon="2.4885">
        <ele>73</ele>
        <time>2021-03-03T11:03:12.446Z</time>
      </trkpt>
      <trkpt lat="48.71889" lon="2.4885">
        <ele>73</ele>
        <time>2021-03-03T11:03:16.455Z</time>
      </trkpt>
      <trkpt lat="48.71883" lon="2.48851">
        <ele>73</ele>
        <time>2021-03-03T11:03:21.448Z</time>
      </trkpt>
      <trkpt lat="48.71879" lon="2.48851">
        <ele>73</ele>
        <time>2021-03-03T11:03:26.456Z</time>
      </trkpt>
      <trkpt lat="48.71873" lon="2.48854">
        <ele>71</ele>
        <time>2021-03-03T11:03:31.446Z</time>
      </trkpt>
      <trkpt lat="48.71867" lon="2.48853">
        <ele>71</ele>
        <time>2021-03-03T11:03:36.444Z</time>
      </trkpt>
      <trkpt lat="48.71863" lon="2.48852">
        <ele>71</ele>
        <time>2021-03-03T11:03:41.444Z</time>
      </trkpt>
      <trkpt lat="48.7186" lon="2.48848">
        <ele>71</ele>
        <time>2021-03-03T11:03:45.438Z</time>
      </trkpt>
      <trkpt lat="48.71857" lon="2.48843">
        <ele>70</ele>
        <time>2021-03-03T11:03:50.442Z</time>
      </trkpt>
      <trkpt lat="48.71855" lon="2.4884">
        <ele>70</ele>
        <time>2021-03-03T11:03:54.448Z</time>
      </trkpt>
      <trkpt lat="48.71854" lon="2.48837">
        <ele>70</ele>
        <time>2021-03-03T11:03:59.444Z</time>
      </trkpt>
      <trkpt lat="48.71855" lon="2.48837">
        <ele>70</ele>
        <time>2021-03-03T11:04:04.438Z</time>
      </trkpt>
      <trkpt lat="48.71852" lon="2.48835">
        <ele>70</ele>
        <time>2021-03-03T11:04:08.444Z</time>
      </trkpt>
      <trkpt lat="48.71847" lon="2.48839">
        <ele>68</ele>
        <time>2021-03-03T11:04:13.443Z</time>
      </trkpt>
      <trkpt lat="48.71844" lon="2.48846">
        <ele>68</ele>
        <time>2021-03-03T11:04:18.422Z</time>
      </trkpt>
      <trkpt lat="48.71842" lon="2.48847">
        <ele>68</ele>
        <time>2021-03-03T11:04:22.450Z</time>
      </trkpt>
      <trkpt lat="48.71839" lon="2.48849">
        <ele>70</ele>
        <time>2021-03-03T11:04:27.450Z</time>
      </trkpt>
      <trkpt lat="48.71833" lon="2.48849">
        <ele>70</ele>
        <time>2021-03-03T11:04:32.448Z</time>
      </trkpt>
      <trkpt lat="48.71828" lon="2.48849">
        <ele>70</ele>
        <time>2021-03-03T11:04:37.435Z</time>
      </trkpt>
      <trkpt lat="48.71822" lon="2.48847">
        <ele>70</ele>
        <time>2021-03-03T11:04:42.446Z</time>
      </trkpt>
      <trkpt lat="48.71816" lon="2.48847">
        <ele>65</ele>
        <time>2021-03-03T11:04:46.440Z</time>
      </trkpt>
      <trkpt lat="48.7181" lon="2.48849">
        <ele>65</ele>
        <time>2021-03-03T11:04:51.435Z</time>
      </trkpt>
      <trkpt lat="48.71809" lon="2.48851">
        <ele>65</ele>
        <time>2021-03-03T11:04:56.449Z</time>
      </trkpt>
      <trkpt lat="48.71807" lon="2.48855">
        <ele>65</ele>
        <time>2021-03-03T11:05:01.434Z</time>
      </trkpt>
      <trkpt lat="48.71804" lon="2.48855">
        <ele>65</ele>
        <time>2021-03-03T11:05:06.453Z</time>
      </trkpt>
      <trkpt lat="48.71798" lon="2.48858">
        <ele>65</ele>
        <time>2021-03-03T11:05:11.458Z</time>
      </trkpt>
      <trkpt lat="48.7179" lon="2.48857">
        <ele>61</ele>
        <time>2021-03-03T11:05:16.432Z</time>
      </trkpt>
      <trkpt lat="48.71785" lon="2.48858">
        <ele>61</ele>
        <time>2021-03-03T11:05:21.434Z</time>
      </trkpt>
      <trkpt lat="48.71779" lon="2.48857">
        <ele>61</ele>
        <time>2021-03-03T11:05:26.447Z</time>
      </trkpt>
      <trkpt lat="48.71771" lon="2.48857">
        <ele>61</ele>
        <time>2021-03-03T11:05:31.453Z</time>
      </trkpt>
      <trkpt lat="48.71766" lon="2.48857">
        <ele>61</ele>
        <time>2021-03-03T11:05:36.442Z</time>
      </trkpt>
      <trkpt lat="48.7176" lon="2.48857">
        <ele>58</ele>
        <time>2021-03-03T11:05:41.442Z</time>
      </trkpt>
      <trkpt lat="48.71753" lon="2.48854">
        <ele>58</ele>
        <time>2021-03-03T11:05:45.477Z</time>
      </trkpt>
      <trkpt lat="48.71749" lon="2.48858">
        <ele>58</ele>
        <time>2021-03-03T11:05:50.444Z</time>
      </trkpt>
      <trkpt lat="48.71745" lon="2.48864">
        <ele>58</ele>
        <time>2021-03-03T11:05:55.446Z</time>
      </trkpt>
      <trkpt lat="48.71743" lon="2.48868">
        <ele>58</ele>
        <time>2021-03-03T11:05:59.447Z</time>
      </trkpt>
      <trkpt lat="48.71742" lon="2.48876">
        <ele>60</ele>
        <time>2021-03-03T11:06:04.455Z</time>
      </trkpt>
      <trkpt lat="48.71739" lon="2.48882">
        <ele>60</ele>
        <time>2021-03-03T11:06:09.446Z</time>
      </trkpt>
      <trkpt lat="48.71735" lon="2.48887">
        <ele>58</ele>
        <time>2021-03-03T11:06:13.450Z</time>
      </trkpt>
      <trkpt lat="48.71731" lon="2.48895">
        <ele>58</ele>
        <time>2021-03-03T11:06:18.441Z</time>
      </trkpt>
      <trkpt lat="48.71726" lon="2.489">
        <ele>58</ele>
        <time>2021-03-03T11:06:23.426Z</time>
      </trkpt>
      <trkpt lat="48.71721" lon="2.48902">
        <ele>58</ele>
        <time>2021-03-03T11:06:27.453Z</time>
      </trkpt>
      <trkpt lat="48.71716" lon="2.48904">
        <ele>58</ele>
        <time>2021-03-03T11:06:32.444Z</time>
      </trkpt>
      <trkpt lat="48.71711" lon="2.48905">
        <ele>58</ele>
        <time>2021-03-03T11:06:37.446Z</time>
      </trkpt>
      <trkpt lat="48.71706" lon="2.48906">
        <ele>53</ele>
        <time>2021-03-03T11:06:42.458Z</time>
      </trkpt>
      <trkpt lat="48.717" lon="2.48907">
        <ele>53</ele>
        <time>2021-03-03T11:06:47.448Z</time>
      </trkpt>
      <trkpt lat="48.71696" lon="2.48908">
        <ele>53</ele>
        <time>2021-03-03T11:06:52.441Z</time>
      </trkpt>
      <trkpt lat="48.71693" lon="2.4891">
        <ele>53</ele>
        <time>2021-03-03T11:06:56.448Z</time>
      </trkpt>
      <trkpt lat="48.71688" lon="2.48913">
        <ele>53</ele>
        <time>2021-03-03T11:07:01.445Z</time>
      </trkpt>
      <trkpt lat="48.71683" lon="2.48918">
        <ele>53</ele>
        <time>2021-03-03T11:07:06.447Z</time>
      </trkpt>
      <trkpt lat="48.7168" lon="2.48927">
        <ele>48</ele>
        <time>2021-03-03T11:07:11.449Z</time>
      </trkpt>
      <trkpt lat="48.71679" lon="2.48933">
        <ele>48</ele>
        <time>2021-03-03T11:07:16.426Z</time>
      </trkpt>
      <trkpt lat="48.71677" lon="2.48941">
        <ele>48</ele>
        <time>2021-03-03T11:07:20.466Z</time>
      </trkpt>
      <trkpt lat="48.71675" lon="2.4895">
        <ele>48</ele>
        <time>2021-03-03T11:07:25.424Z</time>
      </trkpt>
      <trkpt lat="48.71674" lon="2.48958">
        <ele>48</ele>
        <time>2021-03-03T11:07:29.438Z</time>
      </trkpt>
      <trkpt lat="48.71672" lon="2.48966">
        <ele>48</ele>
        <time>2021-03-03T11:07:34.438Z</time>
      </trkpt>
      <trkpt lat="48.71671" lon="2.48975">
        <ele>48</ele>
        <time>2021-03-03T11:07:39.453Z</time>
      </trkpt>
      <trkpt lat="48.71671" lon="2.48984">
        <ele>48</ele>
        <time>2021-03-03T11:07:44.458Z</time>
      </trkpt>
      <trkpt lat="48.71668" lon="2.48992">
        <ele>48</ele>
        <time>2021-03-03T11:07:49.439Z</time>
      </trkpt>
      <trkpt lat="48.71667" lon="2.48998">
        <ele>48</ele>
        <time>2021-03-03T11:07:53.439Z</time>
      </trkpt>
      <trkpt lat="48.71666" lon="2.49006">
        <ele>48</ele>
        <time>2021-03-03T11:07:58.425Z</time>
      </trkpt>
      <trkpt lat="48.71664" lon="2.49012">
        <ele>48</ele>
        <time>2021-03-03T11:08:02.430Z</time>
      </trkpt>
      <trkpt lat="48.71662" lon="2.49018">
        <ele>47</ele>
        <time>2021-03-03T11:08:07.471Z</time>
      </trkpt>
      <trkpt lat="48.71659" lon="2.49027">
        <ele>47</ele>
        <time>2021-03-03T11:08:12.426Z</time>
      </trkpt>
      <trkpt lat="48.71658" lon="2.49034">
        <ele>47</ele>
        <time>2021-03-03T11:08:16.422Z</time>
      </trkpt>
      <trkpt lat="48.71656" lon="2.49038">
        <ele>47</ele>
        <time>2021-03-03T11:08:20.449Z</time>
      </trkpt>
      <trkpt lat="48.71657" lon="2.49045">
        <ele>48</ele>
        <time>2021-03-03T11:08:25.445Z</time>
      </trkpt>
      <trkpt lat="48.71656" lon="2.4905">
        <ele>48</ele>
        <time>2021-03-03T11:08:29.448Z</time>
      </trkpt>
      <trkpt lat="48.71655" lon="2.49058">
        <ele>48</ele>
        <time>2021-03-03T11:08:34.446Z</time>
      </trkpt>
      <trkpt lat="48.71653" lon="2.49063">
        <ele>48</ele>
        <time>2021-03-03T11:08:38.458Z</time>
      </trkpt>
      <trkpt lat="48.71652" lon="2.49072">
        <ele>47</ele>
        <time>2021-03-03T11:08:43.421Z</time>
      </trkpt>
      <trkpt lat="48.7165" lon="2.4908">
        <ele>47</ele>
        <time>2021-03-03T11:08:48.436Z</time>
      </trkpt>
      <trkpt lat="48.7165" lon="2.49088">
        <ele>47</ele>
        <time>2021-03-03T11:08:53.448Z</time>
      </trkpt>
      <trkpt lat="48.7165" lon="2.49096">
        <ele>47</ele>
        <time>2021-03-03T11:08:58.451Z</time>
      </trkpt>
      <trkpt lat="48.71646" lon="2.49102">
        <ele>49</ele>
        <time>2021-03-03T11:09:03.444Z</time>
      </trkpt>
      <trkpt lat="48.71643" lon="2.49104">
        <ele>49</ele>
        <time>2021-03-03T11:09:08.435Z</time>
      </trkpt>
      <trkpt lat="48.7164" lon="2.49104">
        <ele>49</ele>
        <time>2021-03-03T11:09:13.448Z</time>
      </trkpt>
      <trkpt lat="48.71637" lon="2.49103">
        <ele>49</ele>
        <time>2021-03-03T11:09:17.449Z</time>
      </trkpt>
      <trkpt lat="48.71634" lon="2.49102">
        <ele>49</ele>
        <time>2021-03-03T11:09:22.442Z</time>
      </trkpt>
      <trkpt lat="48.71631" lon="2.49095">
        <ele>47</ele>
        <time>2021-03-03T11:09:27.443Z</time>
      </trkpt>
      <trkpt lat="48.7163" lon="2.49088">
        <ele>47</ele>
        <time>2021-03-03T11:09:32.427Z</time>
      </trkpt>
      <trkpt lat="48.71628" lon="2.49084">
        <ele>47</ele>
        <time>2021-03-03T11:09:36.455Z</time>
      </trkpt>
      <trkpt lat="48.71627" lon="2.49077">
        <ele>47</ele>
        <time>2021-03-03T11:09:41.446Z</time>
      </trkpt>
      <trkpt lat="48.71625" lon="2.49071">
        <ele>46</ele>
        <time>2021-03-03T11:09:45.443Z</time>
      </trkpt>
      <trkpt lat="48.71621" lon="2.49067">
        <ele>45</ele>
        <time>2021-03-03T11:09:50.438Z</time>
      </trkpt>
      <trkpt lat="48.71618" lon="2.49063">
        <ele>45</ele>
        <time>2021-03-03T11:09:54.439Z</time>
      </trkpt>
      <trkpt lat="48.71615" lon="2.49061">
        <ele>45</ele>
        <time>2021-03-03T11:09:59.443Z</time>
      </trkpt>
      <trkpt lat="48.71609" lon="2.49058">
        <ele>45</ele>
        <time>2021-03-03T11:10:04.448Z</time>
      </trkpt>
      <trkpt lat="48.71603" lon="2.49057">
        <ele>45</ele>
        <time>2021-03-03T11:10:09.437Z</time>
      </trkpt>
      <trkpt lat="48.716" lon="2.49054">
        <ele>45</ele>
        <time>2021-03-03T11:10:13.435Z</time>
      </trkpt>
      <trkpt lat="48.71595" lon="2.49048">
        <ele>46</ele>
        <time>2021-03-03T11:10:18.436Z</time>
      </trkpt>
      <trkpt lat="48.7159" lon="2.49044">
        <ele>46</ele>
        <time>2021-03-03T11:10:23.449Z</time>
      </trkpt>
      <trkpt lat="48.71586" lon="2.49041">
        <ele>44</ele>
        <time>2021-03-03T11:10:27.443Z</time>
      </trkpt>
      <trkpt lat="48.7158" lon="2.49039">
        <ele>44</ele>
        <time>2021-03-03T11:10:32.447Z</time>
      </trkpt>
      <trkpt lat="48.71574" lon="2.49037">
        <ele>44</ele>
        <time>2021-03-03T11:10:37.452Z</time>
      </trkpt>
      <trkpt lat="48.71568" lon="2.49036">
        <ele>43</ele>
        <time>2021-03-03T11:10:42.446Z</time>
      </trkpt>
      <trkpt lat="48.71562" lon="2.49033">
        <ele>43</ele>
        <time>2021-03-03T11:10:46.444Z</time>
      </trkpt>
      <trkpt lat="48.71557" lon="2.49029">
        <ele>43</ele>
        <time>2021-03-03T11:10:51.458Z</time>
      </trkpt>
      <trkpt lat="48.71553" lon="2.49029">
        <ele>43</ele>
        <time>2021-03-03T11:10:56.462Z</time>
      </trkpt>
      <trkpt lat="48.71547" lon="2.49025">
        <ele>43</ele>
        <time>2021-03-03T11:11:01.446Z</time>
      </trkpt>
      <trkpt lat="48.7154" lon="2.49018">
        <ele>42</ele>
        <time>2021-03-03T11:11:06.441Z</time>
      </trkpt>
      <trkpt lat="48.71535" lon="2.49011">
        <ele>40</ele>
        <time>2021-03-03T11:11:10.465Z</time>
      </trkpt>
      <trkpt lat="48.71529" lon="2.49007">
        <ele>40</ele>
        <time>2021-03-03T11:11:15.442Z</time>
      </trkpt>
      <trkpt lat="48.71523" lon="2.49003">
        <ele>40</ele>
        <time>2021-03-03T11:11:20.444Z</time>
      </trkpt>
      <trkpt lat="48.71517" lon="2.48999">
        <ele>40</ele>
        <time>2021-03-03T11:11:25.424Z</time>
      </trkpt>
      <trkpt lat="48.71511" lon="2.48995">
        <ele>41</ele>
        <time>2021-03-03T11:11:30.446Z</time>
      </trkpt>
      <trkpt lat="48.71506" lon="2.48992">
        <ele>41</ele>
        <time>2021-03-03T11:11:35.432Z</time>
      </trkpt>
      <trkpt lat="48.71501" lon="2.48987">
        <ele>41</ele>
        <time>2021-03-03T11:11:39.442Z</time>
      </trkpt>
      <trkpt lat="48.71496" lon="2.48982">
        <ele>39</ele>
        <time>2021-03-03T11:11:44.458Z</time>
      </trkpt>
      <trkpt lat="48.71491" lon="2.48979">
        <ele>39</ele>
        <time>2021-03-03T11:11:48.455Z</time>
      </trkpt>
      <trkpt lat="48.71487" lon="2.48975">
        <ele>39</ele>
        <time>2021-03-03T11:11:53.419Z</time>
      </trkpt>
      <trkpt lat="48.71483" lon="2.48972">
        <ele>40</ele>
        <time>2021-03-03T11:11:57.444Z</time>
      </trkpt>
      <trkpt lat="48.71477" lon="2.48967">
        <ele>40</ele>
        <time>2021-03-03T11:12:02.440Z</time>
      </trkpt>
      <trkpt lat="48.71472" lon="2.48965">
        <ele>40</ele>
        <time>2021-03-03T11:12:07.439Z</time>
      </trkpt>
      <trkpt lat="48.71468" lon="2.48962">
        <ele>40</ele>
        <time>2021-03-03T11:12:11.453Z</time>
      </trkpt>
      <trkpt lat="48.71461" lon="2.48959">
        <ele>40</ele>
        <time>2021-03-03T11:12:16.442Z</time>
      </trkpt>
      <trkpt lat="48.71455" lon="2.48958">
        <ele>38</ele>
        <time>2021-03-03T11:12:21.449Z</time>
      </trkpt>
      <trkpt lat="48.71449" lon="2.48954">
        <ele>38</ele>
        <time>2021-03-03T11:12:26.449Z</time>
      </trkpt>
      <trkpt lat="48.71443" lon="2.48951">
        <ele>38</ele>
        <time>2021-03-03T11:12:31.425Z</time>
      </trkpt>
      <trkpt lat="48.71439" lon="2.48948">
        <ele>38</ele>
        <time>2021-03-03T11:12:35.435Z</time>
      </trkpt>
      <trkpt lat="48.71434" lon="2.48945">
        <ele>38</ele>
        <time>2021-03-03T11:12:40.436Z</time>
      </trkpt>
      <trkpt lat="48.71429" lon="2.48942">
        <ele>39</ele>
        <time>2021-03-03T11:12:45.446Z</time>
      </trkpt>
      <trkpt lat="48.71423" lon="2.48939">
        <ele>39</ele>
        <time>2021-03-03T11:12:50.437Z</time>
      </trkpt>
      <trkpt lat="48.71417" lon="2.48936">
        <ele>39</ele>
        <time>2021-03-03T11:12:55.441Z</time>
      </trkpt>
      <trkpt lat="48.71411" lon="2.48934">
        <ele>39</ele>
        <time>2021-03-03T11:13:00.450Z</time>
      </trkpt>
      <trkpt lat="48.71406" lon="2.48931">
        <ele>39</ele>
        <time>2021-03-03T11:13:05.433Z</time>
      </trkpt>
      <trkpt lat="48.71401" lon="2.48927">
        <ele>39</ele>
        <time>2021-03-03T11:13:10.442Z</time>
      </trkpt>
      <trkpt lat="48.71395" lon="2.48925">
        <ele>39</ele>
        <time>2021-03-03T11:13:15.443Z</time>
      </trkpt>
      <trkpt lat="48.7139" lon="2.48921">
        <ele>39</ele>
        <time>2021-03-03T11:13:20.443Z</time>
      </trkpt>
      <trkpt lat="48.71385" lon="2.48918">
        <ele>39</ele>
        <time>2021-03-03T11:13:25.433Z</time>
      </trkpt>
      <trkpt lat="48.71381" lon="2.48914">
        <ele>39</ele>
        <time>2021-03-03T11:13:30.443Z</time>
      </trkpt>
      <trkpt lat="48.71382" lon="2.48907">
        <ele>39</ele>
        <time>2021-03-03T11:13:35.441Z</time>
      </trkpt>
      <trkpt lat="48.71385" lon="2.489">
        <ele>39</ele>
        <time>2021-03-03T11:13:40.415Z</time>
      </trkpt>
      <trkpt lat="48.71385" lon="2.48893">
        <ele>39</ele>
        <time>2021-03-03T11:13:44.434Z</time>
      </trkpt>
      <trkpt lat="48.71386" lon="2.48883">
        <ele>39</ele>
        <time>2021-03-03T11:13:49.415Z</time>
      </trkpt>
      <trkpt lat="48.71387" lon="2.48877">
        <ele>39</ele>
        <time>2021-03-03T11:13:53.437Z</time>
      </trkpt>
      <trkpt lat="48.71389" lon="2.48869">
        <ele>40</ele>
        <time>2021-03-03T11:13:58.426Z</time>
      </trkpt>
      <trkpt lat="48.71389" lon="2.48864">
        <ele>40</ele>
        <time>2021-03-03T11:14:02.427Z</time>
      </trkpt>
      <trkpt lat="48.71391" lon="2.48856">
        <ele>40</ele>
        <time>2021-03-03T11:14:07.430Z</time>
      </trkpt>
      <trkpt lat="48.71394" lon="2.48852">
        <ele>40</ele>
        <time>2021-03-03T11:14:11.445Z</time>
      </trkpt>
      <trkpt lat="48.71397" lon="2.48847">
        <ele>40</ele>
        <time>2021-03-03T11:14:16.440Z</time>
      </trkpt>
      <trkpt lat="48.71401" lon="2.48841">
        <ele>40</ele>
        <time>2021-03-03T11:14:21.413Z</time>
      </trkpt>
      <trkpt lat="48.71406" lon="2.48836">
        <ele>41</ele>
        <time>2021-03-03T11:14:26.445Z</time>
      </trkpt>
      <trkpt lat="48.71412" lon="2.48829">
        <ele>41</ele>
        <time>2021-03-03T11:14:31.452Z</time>
      </trkpt>
      <trkpt lat="48.71418" lon="2.48821">
        <ele>41</ele>
        <time>2021-03-03T11:14:36.442Z</time>
      </trkpt>
      <trkpt lat="48.71423" lon="2.48813">
        <ele>42</ele>
        <time>2021-03-03T11:14:41.435Z</time>
      </trkpt>
      <trkpt lat="48.71424" lon="2.48808">
        <ele>42</ele>
        <time>2021-03-03T11:14:45.437Z</time>
      </trkpt>
      <trkpt lat="48.71426" lon="2.48801">
        <ele>42</ele>
        <time>2021-03-03T11:14:49.446Z</time>
      </trkpt>
      <trkpt lat="48.71428" lon="2.48794">
        <ele>42</ele>
        <time>2021-03-03T11:14:54.441Z</time>
      </trkpt>
      <trkpt lat="48.7143" lon="2.48787">
        <ele>41</ele>
        <time>2021-03-03T11:14:58.445Z</time>
      </trkpt>
      <trkpt lat="48.71432" lon="2.48777">
        <ele>41</ele>
        <time>2021-03-03T11:15:03.426Z</time>
      </trkpt>
      <trkpt lat="48.71434" lon="2.48769">
        <ele>41</ele>
        <time>2021-03-03T11:15:07.445Z</time>
      </trkpt>
      <trkpt lat="48.71435" lon="2.48762">
        <ele>40</ele>
        <time>2021-03-03T11:15:11.438Z</time>
      </trkpt>
      <trkpt lat="48.71439" lon="2.48755">
        <ele>40</ele>
        <time>2021-03-03T11:15:16.437Z</time>
      </trkpt>
      <trkpt lat="48.71442" lon="2.48748">
        <ele>40</ele>
        <time>2021-03-03T11:15:21.425Z</time>
      </trkpt>
      <trkpt lat="48.71446" lon="2.48742">
        <ele>40</ele>
        <time>2021-03-03T11:15:25.442Z</time>
      </trkpt>
      <trkpt lat="48.71448" lon="2.48736">
        <ele>39</ele>
        <time>2021-03-03T11:15:30.442Z</time>
      </trkpt>
      <trkpt lat="48.7145" lon="2.48728">
        <ele>39</ele>
        <time>2021-03-03T11:15:35.440Z</time>
      </trkpt>
      <trkpt lat="48.71452" lon="2.48722">
        <ele>39</ele>
        <time>2021-03-03T11:15:40.444Z</time>
      </trkpt>
      <trkpt lat="48.71457" lon="2.48714">
        <ele>39</ele>
        <time>2021-03-03T11:15:45.435Z</time>
      </trkpt>
      <trkpt lat="48.7146" lon="2.48703">
        <ele>39</ele>
        <time>2021-03-03T11:15:50.447Z</time>
      </trkpt>
      <trkpt lat="48.71458" lon="2.48693">
        <ele>39</ele>
        <time>2021-03-03T11:15:55.444Z</time>
      </trkpt>
      <trkpt lat="48.71456" lon="2.48685">
        <ele>39</ele>
        <time>2021-03-03T11:16:00.442Z</time>
      </trkpt>
      <trkpt lat="48.71455" lon="2.48674">
        <ele>39</ele>
        <time>2021-03-03T11:16:05.440Z</time>
      </trkpt>
      <trkpt lat="48.71454" lon="2.48665">
        <ele>39</ele>
        <time>2021-03-03T11:16:10.475Z</time>
      </trkpt>
      <trkpt lat="48.71453" lon="2.48658">
        <ele>39</ele>
        <time>2021-03-03T11:16:15.445Z</time>
      </trkpt>
      <trkpt lat="48.71451" lon="2.4865">
        <ele>39</ele>
        <time>2021-03-03T11:16:20.451Z</time>
      </trkpt>
      <trkpt lat="48.71453" lon="2.48638">
        <ele>39</ele>
        <time>2021-03-03T11:16:25.445Z</time>
      </trkpt>
      <trkpt lat="48.71455" lon="2.4863">
        <ele>39</ele>
        <time>2021-03-03T11:16:30.446Z</time>
      </trkpt>
      <trkpt lat="48.71458" lon="2.48624">
        <ele>40</ele>
        <time>2021-03-03T11:16:35.441Z</time>
      </trkpt>
      <trkpt lat="48.71462" lon="2.48618">
        <ele>40</ele>
        <time>2021-03-03T11:16:40.452Z</time>
      </trkpt>
      <trkpt lat="48.71466" lon="2.48611">
        <ele>40</ele>
        <time>2021-03-03T11:16:45.440Z</time>
      </trkpt>
      <trkpt lat="48.71469" lon="2.48607">
        <ele>40</ele>
        <time>2021-03-03T11:16:49.436Z</time>
      </trkpt>
      <trkpt lat="48.7147" lon="2.48599">
        <ele>40</ele>
        <time>2021-03-03T11:16:54.441Z</time>
      </trkpt>
      <trkpt lat="48.71472" lon="2.4859">
        <ele>40</ele>
        <time>2021-03-03T11:16:59.444Z</time>
      </trkpt>
      <trkpt lat="48.71473" lon="2.4858">
        <ele>40</ele>
        <time>2021-03-03T11:17:04.441Z</time>
      </trkpt>
      <trkpt lat="48.71473" lon="2.48573">
        <ele>40</ele>
        <time>2021-03-03T11:17:09.444Z</time>
      </trkpt>
      <trkpt lat="48.71472" lon="2.48565">
        <ele>40</ele>
        <time>2021-03-03T11:17:14.436Z</time>
      </trkpt>
      <trkpt lat="48.71473" lon="2.48558">
        <ele>40</ele>
        <time>2021-03-03T11:17:19.440Z</time>
      </trkpt>
      <trkpt lat="48.71473" lon="2.4855">
        <ele>40</ele>
        <time>2021-03-03T11:17:24.415Z</time>
      </trkpt>
      <trkpt lat="48.71474" lon="2.48545">
        <ele>40</ele>
        <time>2021-03-03T11:17:28.440Z</time>
      </trkpt>
      <trkpt lat="48.71475" lon="2.4854">
        <ele>41</ele>
        <time>2021-03-03T11:17:32.435Z</time>
      </trkpt>
      <trkpt lat="48.71477" lon="2.48529">
        <ele>41</ele>
        <time>2021-03-03T11:17:37.448Z</time>
      </trkpt>
      <trkpt lat="48.71478" lon="2.48523">
        <ele>41</ele>
        <time>2021-03-03T11:17:42.440Z</time>
      </trkpt>
      <trkpt lat="48.71481" lon="2.48518">
        <ele>41</ele>
        <time>2021-03-03T11:17:47.436Z</time>
      </trkpt>
      <trkpt lat="48.71482" lon="2.48513">
        <ele>41</ele>
        <time>2021-03-03T11:17:51.441Z</time>
      </trkpt>
      <trkpt lat="48.71486" lon="2.48507">
        <ele>40</ele>
        <time>2021-03-03T11:17:56.423Z</time>
      </trkpt>
      <trkpt lat="48.7149" lon="2.48502">
        <ele>40</ele>
        <time>2021-03-03T11:18:00.442Z</time>
      </trkpt>
      <trkpt lat="48.71495" lon="2.48491">
        <ele>40</ele>
        <time>2021-03-03T11:18:05.439Z</time>
      </trkpt>
      <trkpt lat="48.71497" lon="2.48485">
        <ele>40</ele>
        <time>2021-03-03T11:18:09.440Z</time>
      </trkpt>
      <trkpt lat="48.71499" lon="2.48479">
        <ele>40</ele>
        <time>2021-03-03T11:18:14.428Z</time>
      </trkpt>
      <trkpt lat="48.71502" lon="2.48475">
        <ele>40</ele>
        <time>2021-03-03T11:18:18.444Z</time>
      </trkpt>
      <trkpt lat="48.71503" lon="2.4847">
        <ele>40</ele>
        <time>2021-03-03T11:18:23.436Z</time>
      </trkpt>
      <trkpt lat="48.71504" lon="2.48463">
        <ele>40</ele>
        <time>2021-03-03T11:18:28.443Z</time>
      </trkpt>
      <trkpt lat="48.71503" lon="2.48457">
        <ele>40</ele>
        <time>2021-03-03T11:18:33.425Z</time>
      </trkpt>
      <trkpt lat="48.71505" lon="2.48453">
        <ele>40</ele>
        <time>2021-03-03T11:18:37.443Z</time>
      </trkpt>
      <trkpt lat="48.71509" lon="2.4845">
        <ele>40</ele>
        <time>2021-03-03T11:18:42.444Z</time>
      </trkpt>
      <trkpt lat="48.71512" lon="2.48449">
        <ele>40</ele>
        <time>2021-03-03T11:18:47.434Z</time>
      </trkpt>
      <trkpt lat="48.71517" lon="2.4845">
        <ele>40</ele>
        <time>2021-03-03T11:18:51.434Z</time>
      </trkpt>
      <trkpt lat="48.71522" lon="2.4845">
        <ele>40</ele>
        <time>2021-03-03T11:18:56.440Z</time>
      </trkpt>
      <trkpt lat="48.71526" lon="2.48446">
        <ele>40</ele>
        <time>2021-03-03T11:19:01.435Z</time>
      </trkpt>
      <trkpt lat="48.71529" lon="2.48438">
        <ele>40</ele>
        <time>2021-03-03T11:19:05.443Z</time>
      </trkpt>
      <trkpt lat="48.71533" lon="2.48432">
        <ele>40</ele>
        <time>2021-03-03T11:19:10.435Z</time>
      </trkpt>
      <trkpt lat="48.71537" lon="2.48426">
        <ele>40</ele>
        <time>2021-03-03T11:19:15.434Z</time>
      </trkpt>
      <trkpt lat="48.71542" lon="2.4842">
        <ele>41</ele>
        <time>2021-03-03T11:19:20.434Z</time>
      </trkpt>
      <trkpt lat="48.71546" lon="2.48415">
        <ele>41</ele>
        <time>2021-03-03T11:19:25.421Z</time>
      </trkpt>
      <trkpt lat="48.71548" lon="2.48411">
        <ele>41</ele>
        <time>2021-03-03T11:19:29.441Z</time>
      </trkpt>
      <trkpt lat="48.71553" lon="2.48403">
        <ele>41</ele>
        <time>2021-03-03T11:19:34.448Z</time>
      </trkpt>
      <trkpt lat="48.71557" lon="2.48396">
        <ele>41</ele>
        <time>2021-03-03T11:19:39.442Z</time>
      </trkpt>
      <trkpt lat="48.71559" lon="2.48388">
        <ele>41</ele>
        <time>2021-03-03T11:19:43.422Z</time>
      </trkpt>
      <trkpt lat="48.7156" lon="2.48383">
        <ele>41</ele>
        <time>2021-03-03T11:19:47.437Z</time>
      </trkpt>
      <trkpt lat="48.71563" lon="2.48374">
        <ele>42</ele>
        <time>2021-03-03T11:19:52.443Z</time>
      </trkpt>
      <trkpt lat="48.71566" lon="2.48369">
        <ele>42</ele>
        <time>2021-03-03T11:19:56.437Z</time>
      </trkpt>
      <trkpt lat="48.71567" lon="2.48361">
        <ele>42</ele>
        <time>2021-03-03T11:20:01.435Z</time>
      </trkpt>
      <trkpt lat="48.71565" lon="2.48353">
        <ele>42</ele>
        <time>2021-03-03T11:20:06.436Z</time>
      </trkpt>
      <trkpt lat="48.71567" lon="2.48346">
        <ele>42</ele>
        <time>2021-03-03T11:20:11.439Z</time>
      </trkpt>
      <trkpt lat="48.71569" lon="2.48342">
        <ele>42</ele>
        <time>2021-03-03T11:20:15.434Z</time>
      </trkpt>
      <trkpt lat="48.71571" lon="2.48338">
        <ele>42</ele>
        <time>2021-03-03T11:20:20.435Z</time>
      </trkpt>
      <trkpt lat="48.71574" lon="2.48331">
        <ele>42</ele>
        <time>2021-03-03T11:20:25.435Z</time>
      </trkpt>
      <trkpt lat="48.71575" lon="2.48321">
        <ele>42</ele>
        <time>2021-03-03T11:20:30.415Z</time>
      </trkpt>
      <trkpt lat="48.71577" lon="2.4831">
        <ele>42</ele>
        <time>2021-03-03T11:20:35.435Z</time>
      </trkpt>
      <trkpt lat="48.71578" lon="2.48301">
        <ele>42</ele>
        <time>2021-03-03T11:20:40.468Z</time>
      </trkpt>
      <trkpt lat="48.71578" lon="2.48292">
        <ele>42</ele>
        <time>2021-03-03T11:20:45.437Z</time>
      </trkpt>
      <trkpt lat="48.71577" lon="2.48287">
        <ele>43</ele>
        <time>2021-03-03T11:20:49.429Z</time>
      </trkpt>
      <trkpt lat="48.71576" lon="2.48277">
        <ele>43</ele>
        <time>2021-03-03T11:20:54.442Z</time>
      </trkpt>
      <trkpt lat="48.71575" lon="2.48269">
        <ele>43</ele>
        <time>2021-03-03T11:20:59.430Z</time>
      </trkpt>
      <trkpt lat="48.71574" lon="2.4826">
        <ele>43</ele>
        <time>2021-03-03T11:21:04.446Z</time>
      </trkpt>
      <trkpt lat="48.71573" lon="2.48251">
        <ele>43</ele>
        <time>2021-03-03T11:21:09.449Z</time>
      </trkpt>
      <trkpt lat="48.71574" lon="2.48242">
        <ele>43</ele>
        <time>2021-03-03T11:21:14.429Z</time>
      </trkpt>
      <trkpt lat="48.71575" lon="2.48235">
        <ele>43</ele>
        <time>2021-03-03T11:21:19.451Z</time>
      </trkpt>
      <trkpt lat="48.71577" lon="2.48227">
        <ele>43</ele>
        <time>2021-03-03T11:21:24.413Z</time>
      </trkpt>
      <trkpt lat="48.7158" lon="2.48216">
        <ele>43</ele>
        <time>2021-03-03T11:21:29.438Z</time>
      </trkpt>
      <trkpt lat="48.71582" lon="2.48208">
        <ele>42</ele>
        <time>2021-03-03T11:21:34.421Z</time>
      </trkpt>
      <trkpt lat="48.71581" lon="2.482">
        <ele>42</ele>
        <time>2021-03-03T11:21:39.460Z</time>
      </trkpt>
      <trkpt lat="48.71581" lon="2.48192">
        <ele>42</ele>
        <time>2021-03-03T11:21:44.437Z</time>
      </trkpt>
      <trkpt lat="48.71581" lon="2.48186">
        <ele>42</ele>
        <time>2021-03-03T11:21:49.438Z</time>
      </trkpt>
      <trkpt lat="48.71581" lon="2.48179">
        <ele>42</ele>
        <time>2021-03-03T11:21:54.418Z</time>
      </trkpt>
      <trkpt lat="48.71581" lon="2.48172">
        <ele>42</ele>
        <time>2021-03-03T11:21:58.422Z</time>
      </trkpt>
      <trkpt lat="48.71581" lon="2.48163">
        <ele>42</ele>
        <time>2021-03-03T11:22:03.410Z</time>
      </trkpt>
      <trkpt lat="48.7158" lon="2.48153">
        <ele>42</ele>
        <time>2021-03-03T11:22:08.424Z</time>
      </trkpt>
      <trkpt lat="48.71579" lon="2.48145">
        <ele>41</ele>
        <time>2021-03-03T11:22:13.436Z</time>
      </trkpt>
      <trkpt lat="48.71578" lon="2.48138">
        <ele>41</ele>
        <time>2021-03-03T11:22:18.425Z</time>
      </trkpt>
      <trkpt lat="48.71576" lon="2.48133">
        <ele>41</ele>
        <time>2021-03-03T11:22:22.443Z</time>
      </trkpt>
      <trkpt lat="48.71574" lon="2.48125">
        <ele>40</ele>
        <time>2021-03-03T11:22:27.431Z</time>
      </trkpt>
      <trkpt lat="48.71571" lon="2.48117">
        <ele>40</ele>
        <time>2021-03-03T11:22:32.434Z</time>
      </trkpt>
      <trkpt lat="48.71571" lon="2.48111">
        <ele>40</ele>
        <time>2021-03-03T11:22:36.414Z</time>
      </trkpt>
      <trkpt lat="48.71571" lon="2.48104">
        <ele>40</ele>
        <time>2021-03-03T11:22:41.414Z</time>
      </trkpt>
      <trkpt lat="48.71569" lon="2.48095">
        <ele>39</ele>
        <time>2021-03-03T11:22:45.433Z</time>
      </trkpt>
      <trkpt lat="48.71569" lon="2.48081">
        <ele>39</ele>
        <time>2021-03-03T11:22:50.437Z</time>
      </trkpt>
      <trkpt lat="48.71569" lon="2.48071">
        <ele>39</ele>
        <time>2021-03-03T11:22:55.440Z</time>
      </trkpt>
      <trkpt lat="48.71571" lon="2.48061">
        <ele>38</ele>
        <time>2021-03-03T11:23:00.435Z</time>
      </trkpt>
      <trkpt lat="48.71572" lon="2.48052">
        <ele>38</ele>
        <time>2021-03-03T11:23:05.436Z</time>
      </trkpt>
      <trkpt lat="48.71572" lon="2.48043">
        <ele>38</ele>
        <time>2021-03-03T11:23:10.430Z</time>
      </trkpt>
      <trkpt lat="48.71568" lon="2.48035">
        <ele>38</ele>
        <time>2021-03-03T11:23:15.425Z</time>
      </trkpt>
      <trkpt lat="48.71565" lon="2.48031">
        <ele>38</ele>
        <time>2021-03-03T11:23:19.427Z</time>
      </trkpt>
      <trkpt lat="48.71561" lon="2.48024">
        <ele>38</ele>
        <time>2021-03-03T11:23:24.430Z</time>
      </trkpt>
      <trkpt lat="48.71559" lon="2.48017">
        <ele>38</ele>
        <time>2021-03-03T11:23:29.433Z</time>
      </trkpt>
      <trkpt lat="48.71557" lon="2.48009">
        <ele>38</ele>
        <time>2021-03-03T11:23:34.425Z</time>
      </trkpt>
      <trkpt lat="48.71557" lon="2.48">
        <ele>38</ele>
        <time>2021-03-03T11:23:39.434Z</time>
      </trkpt>
      <trkpt lat="48.71556" lon="2.47991">
        <ele>38</ele>
        <time>2021-03-03T11:23:44.423Z</time>
      </trkpt>
      <trkpt lat="48.71555" lon="2.47983">
        <ele>38</ele>
        <time>2021-03-03T11:23:48.434Z</time>
      </trkpt>
      <trkpt lat="48.71555" lon="2.47976">
        <ele>38</ele>
        <time>2021-03-03T11:23:53.430Z</time>
      </trkpt>
      <trkpt lat="48.7155" lon="2.47968">
        <ele>38</ele>
        <time>2021-03-03T11:23:58.426Z</time>
      </trkpt>
      <trkpt lat="48.71547" lon="2.47962">
        <ele>38</ele>
        <time>2021-03-03T11:24:03.428Z</time>
      </trkpt>
      <trkpt lat="48.71544" lon="2.47956">
        <ele>38</ele>
        <time>2021-03-03T11:24:07.432Z</time>
      </trkpt>
      <trkpt lat="48.71539" lon="2.47951">
        <ele>38</ele>
        <time>2021-03-03T11:24:12.422Z</time>
      </trkpt>
      <trkpt lat="48.71536" lon="2.47944">
        <ele>38</ele>
        <time>2021-03-03T11:24:17.434Z</time>
      </trkpt>
      <trkpt lat="48.71535" lon="2.47938">
        <ele>38</ele>
        <time>2021-03-03T11:24:21.427Z</time>
      </trkpt>
      <trkpt lat="48.71535" lon="2.47929">
        <ele>38</ele>
        <time>2021-03-03T11:24:26.430Z</time>
      </trkpt>
      <trkpt lat="48.71533" lon="2.47924">
        <ele>38</ele>
        <time>2021-03-03T11:24:30.438Z</time>
      </trkpt>
      <trkpt lat="48.71531" lon="2.47921">
        <ele>38</ele>
        <time>2021-03-03T11:24:35.433Z</time>
      </trkpt>
      <trkpt lat="48.71525" lon="2.47915">
        <ele>38</ele>
        <time>2021-03-03T11:24:41.067Z</time>
      </trkpt>
      <trkpt lat="48.71519" lon="2.47913">
        <ele>38</ele>
        <time>2021-03-03T11:24:46.007Z</time>
      </trkpt>
      <trkpt lat="48.71515" lon="2.47913">
        <ele>38</ele>
        <time>2021-03-03T11:24:50.076Z</time>
      </trkpt>
      <trkpt lat="48.71509" lon="2.47912">
        <ele>38</ele>
        <time>2021-03-03T11:24:55.073Z</time>
      </trkpt>
      <trkpt lat="48.71494" lon="2.47909">
        <ele>38</ele>
        <time>2021-03-03T11:25:44.926Z</time>
      </trkpt>
      <trkpt lat="48.71494" lon="2.47909">
        <ele>38</ele>
        <time>2021-03-03T11:27:17.953Z</time>
      </trkpt>
      <trkpt lat="48.71494" lon="2.47909">
        <ele>38</ele>
        <time>2021-03-03T11:27:22.938Z</time>
      </trkpt>
      <trkpt lat="48.71493" lon="2.47908">
        <ele>38</ele>
        <time>2021-03-03T11:28:00.951Z</time>
      </trkpt>
      <trkpt lat="48.71492" lon="2.47908">
        <ele>38</ele>
        <time>2021-03-03T11:28:05.955Z</time>
      </trkpt>
    </trkseg>
  </trk>
</gpx>